Missouri River (Missouri), Waverly (06895500)

StateMissouriLatestUnknown (47200 cfs)
RiverMissouri RiverRatingObservedEstimated
Updated2020-10-29 10:00 (58 minutes ago)Flood - The river is flooding. Obstacles can be treacherous or deadly. The river should be avoided at this stage for casual trips and definitely for the inexperienced. Trips should be attempted only with protective gear and equipment.Flood(none)(none)
Discharge47200 cfs (median: 47900 cfs)High - The river is high and potentially dangerous, especially for the young and / or inexperienced. Normal stream obstacles are sometimes difficult to navigate. Extended distances can be attempted, but canoe travel may not be advisable.High(none)(none)
Height11.71 feetGood - Conditions are ideal for a canoe or kayak. Boats typically will drag on fewer than one-quarter of riffles, if at all, and portages are unnecessary or rare. Normal float lengths can be attempted without a problem.Good(none)(none)
TrendFalling (rising over 24 hours)Low - River is low but can still be floated. Some riffles are okay but most come with significant dragging and might need a portage. Float lengths should be reduced to accommodate low flow, dragging, and portages.Low(none)(none)
USGSExternal icon USGS Site (External icon Google Maps)Poor - River is too low to float comfortably. Most or all riffles will drag or must be portaged and some obstacles (such as slick shelf rock) cause undue problems. Avoid the river at this stage for casual paddling trips.Poor(none)(none)

Trending Data

Plot Image

Trips for Missouri River (Missouri), Waverly (06895500)

DateStartEndDistanceConditionDischargeHeightFishingDetails

A total of 0 rows are displayed.

Condition Descriptions

Fishing Conditions

Fish Species

Notes

Classic Trip List

The classic River Trips application is still available for use. It is updated with the new system using a data retrofit. It is no longer maintained. The original River Trips application is no longer updated (as of 1 Dec 2016) but can be checked for errors or for the condition of the data before it was converted to the new system.

Gauge Data Table

ObservationHeightDischargeMaximum
Discharge
Minimum
Discharge
Mean
Discharge
P05P10P20P25P50
(Median)
P75P80P90P95
2020-10-29 10:00 11.71 47200 130000 (1987) 24300 (2006) 53500 28100 34500 37200 40700 47900 63100 67200 77500 97500
2020-10-29 09:00 11.74 47400 130000 (1987) 24300 (2006) 53500 28100 34500 37200 40700 47900 63100 67200 77500 97500
2020-10-29 08:00 11.72 47300 130000 (1987) 24300 (2006) 53500 28100 34500 37200 40700 47900 63100 67200 77500 97500
2020-10-29 07:00 11.69 47100 130000 (1987) 24300 (2006) 53500 28100 34500 37200 40700 47900 63100 67200 77500 97500
2020-10-29 06:00 11.71 47200 130000 (1987) 24300 (2006) 53500 28100 34500 37200 40700 47900 63100 67200 77500 97500
2020-10-29 05:00 11.68 47000 130000 (1987) 24300 (2006) 53500 28100 34500 37200 40700 47900 63100 67200 77500 97500
2020-10-29 04:00 11.67 47000 130000 (1987) 24300 (2006) 53500 28100 34500 37200 40700 47900 63100 67200 77500 97500
2020-10-29 03:00 11.67 47000 130000 (1987) 24300 (2006) 53500 28100 34500 37200 40700 47900 63100 67200 77500 97500
2020-10-29 02:00 11.65 46900 130000 (1987) 24300 (2006) 53500 28100 34500 37200 40700 47900 63100 67200 77500 97500
2020-10-29 01:00 11.64 46800 130000 (1987) 24300 (2006) 53500 28100 34500 37200 40700 47900 63100 67200 77500 97500
2020-10-29 00:00 11.63 46800 130000 (1987) 24300 (2006) 53500 28100 34500 37200 40700 47900 63100 67200 77500 97500
2020-10-28 23:00 11.62 46700 139000 (1987) 24800 (2006) 53900 27200 35400 37500 40900 48900 64300 68400 76900 98400
2020-10-28 22:00 11.62 46700 139000 (1987) 24800 (2006) 53900 27200 35400 37500 40900 48900 64300 68400 76900 98400
2020-10-28 21:00 11.62 46700 139000 (1987) 24800 (2006) 53900 27200 35400 37500 40900 48900 64300 68400 76900 98400
2020-10-28 20:00 11.61 46700 139000 (1987) 24800 (2006) 53900 27200 35400 37500 40900 48900 64300 68400 76900 98400
2020-10-28 19:00 11.60 46600 139000 (1987) 24800 (2006) 53900 27200 35400 37500 40900 48900 64300 68400 76900 98400
2020-10-28 18:00 11.59 46600 139000 (1987) 24800 (2006) 53900 27200 35400 37500 40900 48900 64300 68400 76900 98400
2020-10-28 17:00 11.56 46400 139000 (1987) 24800 (2006) 53900 27200 35400 37500 40900 48900 64300 68400 76900 98400
2020-10-28 16:00 11.62 46700 139000 (1987) 24800 (2006) 53900 27200 35400 37500 40900 48900 64300 68400 76900 98400
2020-10-28 15:00 11.63 46800 139000 (1987) 24800 (2006) 53900 27200 35400 37500 40900 48900 64300 68400 76900 98400
2020-10-28 14:00 11.59 46600 139000 (1987) 24800 (2006) 53900 27200 35400 37500 40900 48900 64300 68400 76900 98400
2020-10-28 13:00 11.62 46700 139000 (1987) 24800 (2006) 53900 27200 35400 37500 40900 48900 64300 68400 76900 98400
2020-10-28 12:00 11.61 46700 139000 (1987) 24800 (2006) 53900 27200 35400 37500 40900 48900 64300 68400 76900 98400
2020-10-28 11:00 11.62 46700 139000 (1987) 24800 (2006) 53900 27200 35400 37500 40900 48900 64300 68400 76900 98400
2020-10-28 10:00 11.62 46700 139000 (1987) 24800 (2006) 53900 27200 35400 37500 40900 48900 64300 68400 76900 98400
2020-10-28 09:00 11.62 46700 139000 (1987) 24800 (2006) 53900 27200 35400 37500 40900 48900 64300 68400 76900 98400
2020-10-28 08:00 11.63 46800 139000 (1987) 24800 (2006) 53900 27200 35400 37500 40900 48900 64300 68400 76900 98400
2020-10-28 07:00 11.64 46800 139000 (1987) 24800 (2006) 53900 27200 35400 37500 40900 48900 64300 68400 76900 98400
2020-10-28 06:00 11.64 46800 139000 (1987) 24800 (2006) 53900 27200 35400 37500 40900 48900 64300 68400 76900 98400
2020-10-28 05:00 11.64 46800 139000 (1987) 24800 (2006) 53900 27200 35400 37500 40900 48900 64300 68400 76900 98400
2020-10-28 04:00 11.65 46900 139000 (1987) 24800 (2006) 53900 27200 35400 37500 40900 48900 64300 68400 76900 98400
2020-10-28 03:00 11.65 46900 139000 (1987) 24800 (2006) 53900 27200 35400 37500 40900 48900 64300 68400 76900 98400
2020-10-28 02:00 11.65 46900 139000 (1987) 24800 (2006) 53900 27200 35400 37500 40900 48900 64300 68400 76900 98400
2020-10-28 01:00 11.65 46900 139000 (1987) 24800 (2006) 53900 27200 35400 37500 40900 48900 64300 68400 76900 98400
2020-10-28 00:00 11.63 46800 139000 (1987) 24800 (2006) 53900 27200 35400 37500 40900 48900 64300 68400 76900 98400
2020-10-27 23:00 11.63 46800 143000 (1987) 25100 (2007) 54400 25900 35400 37900 39700 49000 66600 69200 81900 100000
2020-10-27 22:00 11.63 46800 143000 (1987) 25100 (2007) 54400 25900 35400 37900 39700 49000 66600 69200 81900 100000
2020-10-27 21:00 11.63 46800 143000 (1987) 25100 (2007) 54400 25900 35400 37900 39700 49000 66600 69200 81900 100000
2020-10-27 20:00 11.63 46800 143000 (1987) 25100 (2007) 54400 25900 35400 37900 39700 49000 66600 69200 81900 100000
2020-10-27 19:00 11.64 46800 143000 (1987) 25100 (2007) 54400 25900 35400 37900 39700 49000 66600 69200 81900 100000
2020-10-27 18:00 11.67 47000 143000 (1987) 25100 (2007) 54400 25900 35400 37900 39700 49000 66600 69200 81900 100000
2020-10-27 17:00 11.67 47000 143000 (1987) 25100 (2007) 54400 25900 35400 37900 39700 49000 66600 69200 81900 100000
2020-10-27 16:00 11.67 47000 143000 (1987) 25100 (2007) 54400 25900 35400 37900 39700 49000 66600 69200 81900 100000
2020-10-27 15:00 11.67 47000 143000 (1987) 25100 (2007) 54400 25900 35400 37900 39700 49000 66600 69200 81900 100000
2020-10-27 14:00 11.67 47000 143000 (1987) 25100 (2007) 54400 25900 35400 37900 39700 49000 66600 69200 81900 100000
2020-10-27 13:00 11.65 46900 143000 (1987) 25100 (2007) 54400 25900 35400 37900 39700 49000 66600 69200 81900 100000
2020-10-27 12:00 11.67 47000 143000 (1987) 25100 (2007) 54400 25900 35400 37900 39700 49000 66600 69200 81900 100000
2020-10-27 11:00 11.67 47000 143000 (1987) 25100 (2007) 54400 25900 35400 37900 39700 49000 66600 69200 81900 100000
2020-10-27 10:00 11.65 46900 143000 (1987) 25100 (2007) 54400 25900 35400 37900 39700 49000 66600 69200 81900 100000
2020-10-27 09:00 11.67 47000 143000 (1987) 25100 (2007) 54400 25900 35400 37900 39700 49000 66600 69200 81900 100000
2020-10-27 08:00 11.70 47200 143000 (1987) 25100 (2007) 54400 25900 35400 37900 39700 49000 66600 69200 81900 100000
2020-10-27 07:00 11.69 47100 143000 (1987) 25100 (2007) 54400 25900 35400 37900 39700 49000 66600 69200 81900 100000
2020-10-27 06:00 11.69 47100 143000 (1987) 25100 (2007) 54400 25900 35400 37900 39700 49000 66600 69200 81900 100000
2020-10-27 05:00 11.70 47200 143000 (1987) 25100 (2007) 54400 25900 35400 37900 39700 49000 66600 69200 81900 100000
2020-10-27 04:00 11.69 47100 143000 (1987) 25100 (2007) 54400 25900 35400 37900 39700 49000 66600 69200 81900 100000
2020-10-27 03:00 11.70 47200 143000 (1987) 25100 (2007) 54400 25900 35400 37900 39700 49000 66600 69200 81900 100000
2020-10-27 02:00 11.70 47200 143000 (1987) 25100 (2007) 54400 25900 35400 37900 39700 49000 66600 69200 81900 100000
2020-10-27 01:00 11.69 47100 143000 (1987) 25100 (2007) 54400 25900 35400 37900 39700 49000 66600 69200 81900 100000
2020-10-27 00:00 11.72 47300 143000 (1987) 25100 (2007) 54400 25900 35400 37900 39700 49000 66600 69200 81900 100000
2020-10-26 23:00 11.72 47300 143000 (1987) 23800 (2007) 55200 26300 34900 38700 39600 49600 67000 71000 85500 99100
2020-10-26 22:00 11.74 47400 143000 (1987) 23800 (2007) 55200 26300 34900 38700 39600 49600 67000 71000 85500 99100
2020-10-26 21:00 11.73 47300 143000 (1987) 23800 (2007) 55200 26300 34900 38700 39600 49600 67000 71000 85500 99100
2020-10-26 20:00 11.75 47400 143000 (1987) 23800 (2007) 55200 26300 34900 38700 39600 49600 67000 71000 85500 99100
2020-10-26 19:00 11.74 47400 143000 (1987) 23800 (2007) 55200 26300 34900 38700 39600 49600 67000 71000 85500 99100
2020-10-26 18:00 11.74 47400 143000 (1987) 23800 (2007) 55200 26300 34900 38700 39600 49600 67000 71000 85500 99100
2020-10-26 17:00 11.71 47200 143000 (1987) 23800 (2007) 55200 26300 34900 38700 39600 49600 67000 71000 85500 99100
2020-10-26 16:00 11.72 47300 143000 (1987) 23800 (2007) 55200 26300 34900 38700 39600 49600 67000 71000 85500 99100
2020-10-26 15:00 11.75 47400 143000 (1987) 23800 (2007) 55200 26300 34900 38700 39600 49600 67000 71000 85500 99100
2020-10-26 14:00 11.73 47300 143000 (1987) 23800 (2007) 55200 26300 34900 38700 39600 49600 67000 71000 85500 99100
2020-10-26 13:00 11.73 47300 143000 (1987) 23800 (2007) 55200 26300 34900 38700 39600 49600 67000 71000 85500 99100
2020-10-26 12:00 11.72 47300 143000 (1987) 23800 (2007) 55200 26300 34900 38700 39600 49600 67000 71000 85500 99100
2020-10-26 11:00 11.71 47200 143000 (1987) 23800 (2007) 55200 26300 34900 38700 39600 49600 67000 71000 85500 99100
2020-10-26 10:00 11.67 47000 143000 (1987) 23800 (2007) 55200 26300 34900 38700 39600 49600 67000 71000 85500 99100
2020-10-26 09:00 11.67 47000 143000 (1987) 23800 (2007) 55200 26300 34900 38700 39600 49600 67000 71000 85500 99100
2020-10-26 08:00 11.74 47400 143000 (1987) 23800 (2007) 55200 26300 34900 38700 39600 49600 67000 71000 85500 99100
2020-10-26 07:00 11.71 47200 143000 (1987) 23800 (2007) 55200 26300 34900 38700 39600 49600 67000 71000 85500 99100
2020-10-26 06:00 11.68 47000 143000 (1987) 23800 (2007) 55200 26300 34900 38700 39600 49600 67000 71000 85500 99100
2020-10-26 05:00 11.73 47300 143000 (1987) 23800 (2007) 55200 26300 34900 38700 39600 49600 67000 71000 85500 99100
2020-10-26 04:00 11.74 47400 143000 (1987) 23800 (2007) 55200 26300 34900 38700 39600 49600 67000 71000 85500 99100
2020-10-26 03:00 11.71 47200 143000 (1987) 23800 (2007) 55200 26300 34900 38700 39600 49600 67000 71000 85500 99100
2020-10-26 02:00 11.72 47300 143000 (1987) 23800 (2007) 55200 26300 34900 38700 39600 49600 67000 71000 85500 99100
2020-10-26 01:00 11.72 47300 143000 (1987) 23800 (2007) 55200 26300 34900 38700 39600 49600 67000 71000 85500 99100
2020-10-26 00:00 11.74 47400 143000 (1987) 23800 (2007) 55200 26300 34900 38700 39600 49600 67000 71000 85500 99100
2020-10-25 23:00 11.73 47300 129000 (1987) 23600 (2007) 55500 27200 34900 39500 40300 51700 66400 70900 83300 102000
2020-10-25 22:00 11.72 47300 129000 (1987) 23600 (2007) 55500 27200 34900 39500 40300 51700 66400 70900 83300 102000
2020-10-25 21:00 11.72 47300 129000 (1987) 23600 (2007) 55500 27200 34900 39500 40300 51700 66400 70900 83300 102000
2020-10-25 20:00 11.71 47200 129000 (1987) 23600 (2007) 55500 27200 34900 39500 40300 51700 66400 70900 83300 102000
2020-10-25 19:00 11.71 47200 129000 (1987) 23600 (2007) 55500 27200 34900 39500 40300 51700 66400 70900 83300 102000
2020-10-25 18:00 11.71 47200 129000 (1987) 23600 (2007) 55500 27200 34900 39500 40300 51700 66400 70900 83300 102000
2020-10-25 17:00 11.70 47200 129000 (1987) 23600 (2007) 55500 27200 34900 39500 40300 51700 66400 70900 83300 102000
2020-10-25 16:00 11.72 47300 129000 (1987) 23600 (2007) 55500 27200 34900 39500 40300 51700 66400 70900 83300 102000
2020-10-25 15:00 11.74 47400 129000 (1987) 23600 (2007) 55500 27200 34900 39500 40300 51700 66400 70900 83300 102000
2020-10-25 14:00 11.75 47400 129000 (1987) 23600 (2007) 55500 27200 34900 39500 40300 51700 66400 70900 83300 102000
2020-10-25 13:00 11.77 47500 129000 (1987) 23600 (2007) 55500 27200 34900 39500 40300 51700 66400 70900 83300 102000
2020-10-25 12:00 11.77 47500 129000 (1987) 23600 (2007) 55500 27200 34900 39500 40300 51700 66400 70900 83300 102000
2020-10-25 11:00 11.81 47700 129000 (1987) 23600 (2007) 55500 27200 34900 39500 40300 51700 66400 70900 83300 102000
2020-10-25 10:00 11.77 47500 129000 (1987) 23600 (2007) 55500 27200 34900 39500 40300 51700 66400 70900 83300 102000
2020-10-25 09:00 11.76 47500 129000 (1987) 23600 (2007) 55500 27200 34900 39500 40300 51700 66400 70900 83300 102000
2020-10-25 08:00 11.78 47600 129000 (1987) 23600 (2007) 55500 27200 34900 39500 40300 51700 66400 70900 83300 102000
2020-10-25 07:00 11.80 47700 129000 (1987) 23600 (2007) 55500 27200 34900 39500 40300 51700 66400 70900 83300 102000
2020-10-25 06:00 11.75 47400 129000 (1987) 23600 (2007) 55500 27200 34900 39500 40300 51700 66400 70900 83300 102000
2020-10-25 05:00 11.81 47700 129000 (1987) 23600 (2007) 55500 27200 34900 39500 40300 51700 66400 70900 83300 102000
2020-10-25 04:00 11.79 47600 129000 (1987) 23600 (2007) 55500 27200 34900 39500 40300 51700 66400 70900 83300 102000
2020-10-25 03:00 11.79 47600 129000 (1987) 23600 (2007) 55500 27200 34900 39500 40300 51700 66400 70900 83300 102000
2020-10-25 02:00 11.78 47600 129000 (1987) 23600 (2007) 55500 27200 34900 39500 40300 51700 66400 70900 83300 102000
2020-10-25 01:00 11.78 47600 129000 (1987) 23600 (2007) 55500 27200 34900 39500 40300 51700 66400 70900 83300 102000
2020-10-25 00:00 11.74 47400 129000 (1987) 23600 (2007) 55500 27200 34900 39500 40300 51700 66400 70900 83300 102000
2020-10-24 23:00 11.70 47200 119000 (1987) 24100 (2007) 55500 28600 34800 38900 40700 51000 66400 70400 82500 105000
2020-10-24 22:00 11.71 47200 119000 (1987) 24100 (2007) 55500 28600 34800 38900 40700 51000 66400 70400 82500 105000
2020-10-24 21:00 11.77 47500 119000 (1987) 24100 (2007) 55500 28600 34800 38900 40700 51000 66400 70400 82500 105000
2020-10-24 20:00 11.86 48000 119000 (1987) 24100 (2007) 55500 28600 34800 38900 40700 51000 66400 70400 82500 105000
2020-10-24 19:00 11.81 47700 119000 (1987) 24100 (2007) 55500 28600 34800 38900 40700 51000 66400 70400 82500 105000
2020-10-24 18:00 11.77 47500 119000 (1987) 24100 (2007) 55500 28600 34800 38900 40700 51000 66400 70400 82500 105000
2020-10-24 17:00 11.72 47300 119000 (1987) 24100 (2007) 55500 28600 34800 38900 40700 51000 66400 70400 82500 105000
2020-10-24 16:00 11.70 47200 119000 (1987) 24100 (2007) 55500 28600 34800 38900 40700 51000 66400 70400 82500 105000
2020-10-24 15:00 11.74 47400 119000 (1987) 24100 (2007) 55500 28600 34800 38900 40700 51000 66400 70400 82500 105000
2020-10-24 14:00 11.72 47300 119000 (1987) 24100 (2007) 55500 28600 34800 38900 40700 51000 66400 70400 82500 105000
2020-10-24 13:00 11.75 47400 119000 (1987) 24100 (2007) 55500 28600 34800 38900 40700 51000 66400 70400 82500 105000
2020-10-24 12:00 11.75 47400 119000 (1987) 24100 (2007) 55500 28600 34800 38900 40700 51000 66400 70400 82500 105000
2020-10-24 11:00 11.73 47300 119000 (1987) 24100 (2007) 55500 28600 34800 38900 40700 51000 66400 70400 82500 105000
2020-10-24 10:00 11.77 47500 119000 (1987) 24100 (2007) 55500 28600 34800 38900 40700 51000 66400 70400 82500 105000
2020-10-24 09:00 11.84 47900 119000 (1987) 24100 (2007) 55500 28600 34800 38900 40700 51000 66400 70400 82500 105000
2020-10-24 08:00 11.84 47900 119000 (1987) 24100 (2007) 55500 28600 34800 38900 40700 51000 66400 70400 82500 105000
2020-10-24 07:00 11.87 48000 119000 (1987) 24100 (2007) 55500 28600 34800 38900 40700 51000 66400 70400 82500 105000
2020-10-24 06:00 11.86 48000 119000 (1987) 24100 (2007) 55500 28600 34800 38900 40700 51000 66400 70400 82500 105000
2020-10-24 05:00 11.86 48000 119000 (1987) 24100 (2007) 55500 28600 34800 38900 40700 51000 66400 70400 82500 105000
2020-10-24 04:00 11.85 47900 119000 (1987) 24100 (2007) 55500 28600 34800 38900 40700 51000 66400 70400 82500 105000
2020-10-24 03:00 11.84 47900 119000 (1987) 24100 (2007) 55500 28600 34800 38900 40700 51000 66400 70400 82500 105000
2020-10-24 02:00 11.83 47800 119000 (1987) 24100 (2007) 55500 28600 34800 38900 40700 51000 66400 70400 82500 105000
2020-10-24 01:00 11.76 47500 119000 (1987) 24100 (2007) 55500 28600 34800 38900 40700 51000 66400 70400 82500 105000
2020-10-24 00:00 11.81 47700 119000 (1987) 24100 (2007) 55500 28600 34800 38900 40700 51000 66400 70400 82500 105000
2020-10-23 23:00 11.80 47700 117000 (2019) 25200 (2007) 55500 30600 34800 38900 40600 50200 67300 72500 83900 107000
2020-10-23 22:00 11.79 47600 117000 (2019) 25200 (2007) 55500 30600 34800 38900 40600 50200 67300 72500 83900 107000
2020-10-23 21:00 11.78 47600 117000 (2019) 25200 (2007) 55500 30600 34800 38900 40600 50200 67300 72500 83900 107000
2020-10-23 20:00 11.75 47400 117000 (2019) 25200 (2007) 55500 30600 34800 38900 40600 50200 67300 72500 83900 107000
2020-10-23 19:00 11.73 47300 117000 (2019) 25200 (2007) 55500 30600 34800 38900 40600 50200 67300 72500 83900 107000
2020-10-23 18:00 11.77 47500 117000 (2019) 25200 (2007) 55500 30600 34800 38900 40600 50200 67300 72500 83900 107000
2020-10-23 17:00 11.76 47500 117000 (2019) 25200 (2007) 55500 30600 34800 38900 40600 50200 67300 72500 83900 107000
2020-10-23 16:00 11.74 47400 117000 (2019) 25200 (2007) 55500 30600 34800 38900 40600 50200 67300 72500 83900 107000
2020-10-23 15:00 11.73 47300 117000 (2019) 25200 (2007) 55500 30600 34800 38900 40600 50200 67300 72500 83900 107000
2020-10-23 14:00 11.74 47400 117000 (2019) 25200 (2007) 55500 30600 34800 38900 40600 50200 67300 72500 83900 107000
2020-10-23 13:00 11.74 47400 117000 (2019) 25200 (2007) 55500 30600 34800 38900 40600 50200 67300 72500 83900 107000
2020-10-23 12:00 11.72 47300 117000 (2019) 25200 (2007) 55500 30600 34800 38900 40600 50200 67300 72500 83900 107000
2020-10-23 11:00 11.74 47400 117000 (2019) 25200 (2007) 55500 30600 34800 38900 40600 50200 67300 72500 83900 107000
2020-10-23 10:00 11.71 47200 117000 (2019) 25200 (2007) 55500 30600 34800 38900 40600 50200 67300 72500 83900 107000
2020-10-23 09:00 11.71 47200 117000 (2019) 25200 (2007) 55500 30600 34800 38900 40600 50200 67300 72500 83900 107000
2020-10-23 08:00 11.68 47000 117000 (2019) 25200 (2007) 55500 30600 34800 38900 40600 50200 67300 72500 83900 107000
2020-10-23 07:00 11.65 46900 117000 (2019) 25200 (2007) 55500 30600 34800 38900 40600 50200 67300 72500 83900 107000
2020-10-23 06:00 11.58 46500 117000 (2019) 25200 (2007) 55500 30600 34800 38900 40600 50200 67300 72500 83900 107000
2020-10-23 05:00 11.68 47000 117000 (2019) 25200 (2007) 55500 30600 34800 38900 40600 50200 67300 72500 83900 107000
2020-10-23 04:00 11.69 47100 117000 (2019) 25200 (2007) 55500 30600 34800 38900 40600 50200 67300 72500 83900 107000
2020-10-23 03:00 11.61 46700 117000 (2019) 25200 (2007) 55500 30600 34800 38900 40600 50200 67300 72500 83900 107000
2020-10-23 02:00 11.69 47100 117000 (2019) 25200 (2007) 55500 30600 34800 38900 40600 50200 67300 72500 83900 107000
2020-10-23 01:00 11.69 47100 117000 (2019) 25200 (2007) 55500 30600 34800 38900 40600 50200 67300 72500 83900 107000
2020-10-23 00:00 11.68 47000 117000 (2019) 25200 (2007) 55500 30600 34800 38900 40600 50200 67300 72500 83900 107000
2020-10-22 23:00 11.61 46700 122000 (1974) 24800 (2007) 55200 30600 35000 39000 40100 49800 68500 71700 82900 111000
2020-10-22 22:00 11.66 46900 122000 (1974) 24800 (2007) 55200 30600 35000 39000 40100 49800 68500 71700 82900 111000
2020-10-22 21:00 11.65 46900 122000 (1974) 24800 (2007) 55200 30600 35000 39000 40100 49800 68500 71700 82900 111000
2020-10-22 20:00 11.65 46900 122000 (1974) 24800 (2007) 55200 30600 35000 39000 40100 49800 68500 71700 82900 111000
2020-10-22 19:00 11.66 46900 122000 (1974) 24800 (2007) 55200 30600 35000 39000 40100 49800 68500 71700 82900 111000
2020-10-22 18:00 11.64 46800 122000 (1974) 24800 (2007) 55200 30600 35000 39000 40100 49800 68500 71700 82900 111000
2020-10-22 17:00 11.59 46600 122000 (1974) 24800 (2007) 55200 30600 35000 39000 40100 49800 68500 71700 82900 111000
2020-10-22 16:00 11.63 46800 122000 (1974) 24800 (2007) 55200 30600 35000 39000 40100 49800 68500 71700 82900 111000
2020-10-22 15:00 11.59 46600 122000 (1974) 24800 (2007) 55200 30600 35000 39000 40100 49800 68500 71700 82900 111000
2020-10-22 14:00 11.59 46600 122000 (1974) 24800 (2007) 55200 30600 35000 39000 40100 49800 68500 71700 82900 111000
2020-10-22 13:00 11.57 46500 122000 (1974) 24800 (2007) 55200 30600 35000 39000 40100 49800 68500 71700 82900 111000
2020-10-22 12:00 11.60 46600 122000 (1974) 24800 (2007) 55200 30600 35000 39000 40100 49800 68500 71700 82900 111000
2020-10-22 11:00 11.55 46400 122000 (1974) 24800 (2007) 55200 30600 35000 39000 40100 49800 68500 71700 82900 111000
2020-10-22 10:00 11.55 46400 122000 (1974) 24800 (2007) 55200 30600 35000 39000 40100 49800 68500 71700 82900 111000
2020-10-22 09:00 11.59 46600 122000 (1974) 24800 (2007) 55200 30600 35000 39000 40100 49800 68500 71700 82900 111000
2020-10-22 08:00 11.60 46600 122000 (1974) 24800 (2007) 55200 30600 35000 39000 40100 49800 68500 71700 82900 111000
2020-10-22 07:00 11.62 46700 122000 (1974) 24800 (2007) 55200 30600 35000 39000 40100 49800 68500 71700 82900 111000
2020-10-22 06:00 11.63 46800 122000 (1974) 24800 (2007) 55200 30600 35000 39000 40100 49800 68500 71700 82900 111000
2020-10-22 05:00 11.63 46800 122000 (1974) 24800 (2007) 55200 30600 35000 39000 40100 49800 68500 71700 82900 111000
2020-10-22 04:00 11.62 46700 122000 (1974) 24800 (2007) 55200 30600 35000 39000 40100 49800 68500 71700 82900 111000
2020-10-22 03:00 11.63 46800 122000 (1974) 24800 (2007) 55200 30600 35000 39000 40100 49800 68500 71700 82900 111000
2020-10-22 02:00 11.62 46700 122000 (1974) 24800 (2007) 55200 30600 35000 39000 40100 49800 68500 71700 82900 111000
2020-10-22 01:00 11.61 46700 122000 (1974) 24800 (2007) 55200 30600 35000 39000 40100 49800 68500 71700 82900 111000
2020-10-22 00:00 11.58 46500 122000 (1974) 24800 (2007) 55200 30600 35000 39000 40100 49800 68500 71700 82900 111000
2020-10-21 23:00 11.53 46300 140000 (1974) 24700 (2007) 55900 28900 35500 39100 40200 49100 67400 73100 84000 113000
2020-10-21 22:00 11.52 46200 140000 (1974) 24700 (2007) 55900 28900 35500 39100 40200 49100 67400 73100 84000 113000
2020-10-21 21:00 11.47 46000 140000 (1974) 24700 (2007) 55900 28900 35500 39100 40200 49100 67400 73100 84000 113000
2020-10-21 20:00 11.57 46500 140000 (1974) 24700 (2007) 55900 28900 35500 39100 40200 49100 67400 73100 84000 113000
2020-10-21 19:00 11.53 46300 140000 (1974) 24700 (2007) 55900 28900 35500 39100 40200 49100 67400 73100 84000 113000
2020-10-21 18:00 11.49 46100 140000 (1974) 24700 (2007) 55900 28900 35500 39100 40200 49100 67400 73100 84000 113000
2020-10-21 17:00 11.54 46300 140000 (1974) 24700 (2007) 55900 28900 35500 39100 40200 49100 67400 73100 84000 113000
2020-10-21 16:00 11.51 46200 140000 (1974) 24700 (2007) 55900 28900 35500 39100 40200 49100 67400 73100 84000 113000
2020-10-21 15:00 11.52 46200 140000 (1974) 24700 (2007) 55900 28900 35500 39100 40200 49100 67400 73100 84000 113000
2020-10-21 14:00 11.56 46400 140000 (1974) 24700 (2007) 55900 28900 35500 39100 40200 49100 67400 73100 84000 113000
2020-10-21 13:00 11.47 46000 140000 (1974) 24700 (2007) 55900 28900 35500 39100 40200 49100 67400 73100 84000 113000
2020-10-21 12:00 11.44 45800 140000 (1974) 24700 (2007) 55900 28900 35500 39100 40200 49100 67400 73100 84000 113000
2020-10-21 11:00 11.44 45800 140000 (1974) 24700 (2007) 55900 28900 35500 39100 40200 49100 67400 73100 84000 113000
2020-10-21 10:00 11.42 45700 140000 (1974) 24700 (2007) 55900 28900 35500 39100 40200 49100 67400 73100 84000 113000
2020-10-21 09:00 11.40 45600 140000 (1974) 24700 (2007) 55900 28900 35500 39100 40200 49100 67400 73100 84000 113000
2020-10-21 08:00 11.48 46000 140000 (1974) 24700 (2007) 55900 28900 35500 39100 40200 49100 67400 73100 84000 113000
2020-10-21 07:00 11.48 46000 140000 (1974) 24700 (2007) 55900 28900 35500 39100 40200 49100 67400 73100 84000 113000
2020-10-21 06:00 11.52 46200 140000 (1974) 24700 (2007) 55900 28900 35500 39100 40200 49100 67400 73100 84000 113000
2020-10-21 05:00 11.53 46300 140000 (1974) 24700 (2007) 55900 28900 35500 39100 40200 49100 67400 73100 84000 113000
2020-10-21 04:00 11.53 46300 140000 (1974) 24700 (2007) 55900 28900 35500 39100 40200 49100 67400 73100 84000 113000
2020-10-21 03:00 11.53 46300 140000 (1974) 24700 (2007) 55900 28900 35500 39100 40200 49100 67400 73100 84000 113000
2020-10-21 02:00 11.52 46200 140000 (1974) 24700 (2007) 55900 28900 35500 39100 40200 49100 67400 73100 84000 113000
2020-10-21 01:00 11.52 46200 140000 (1974) 24700 (2007) 55900 28900 35500 39100 40200 49100 67400 73100 84000 113000
2020-10-21 00:00 11.51 46200 140000 (1974) 24700 (2007) 55900 28900 35500 39100 40200 49100 67400 73100 84000 113000
2020-10-20 23:00 11.50 46100 152000 (1974) 25700 (2007) 57100 28000 35400 39300 40700 51100 67700 74200 87200 115000
2020-10-20 22:00 11.50 46100 152000 (1974) 25700 (2007) 57100 28000 35400 39300 40700 51100 67700 74200 87200 115000
2020-10-20 21:00 11.50 46100 152000 (1974) 25700 (2007) 57100 28000 35400 39300 40700 51100 67700 74200 87200 115000
2020-10-20 20:00 11.51 46200 152000 (1974) 25700 (2007) 57100 28000 35400 39300 40700 51100 67700 74200 87200 115000
2020-10-20 19:00 11.50 46100 152000 (1974) 25700 (2007) 57100 28000 35400 39300 40700 51100 67700 74200 87200 115000
2020-10-20 18:00 11.50 46100 152000 (1974) 25700 (2007) 57100 28000 35400 39300 40700 51100 67700 74200 87200 115000
2020-10-20 17:00 11.50 46100 152000 (1974) 25700 (2007) 57100 28000 35400 39300 40700 51100 67700 74200 87200 115000
2020-10-20 16:00 11.49 46100 152000 (1974) 25700 (2007) 57100 28000 35400 39300 40700 51100 67700 74200 87200 115000
2020-10-20 15:00 11.50 46100 152000 (1974) 25700 (2007) 57100 28000 35400 39300 40700 51100 67700 74200 87200 115000
2020-10-20 14:00 11.46 45900 152000 (1974) 25700 (2007) 57100 28000 35400 39300 40700 51100 67700 74200 87200 115000
2020-10-20 13:00 11.45 45900 152000 (1974) 25700 (2007) 57100 28000 35400 39300 40700 51100 67700 74200 87200 115000
2020-10-20 12:00 11.46 45900 152000 (1974) 25700 (2007) 57100 28000 35400 39300 40700 51100 67700 74200 87200 115000
2020-10-20 11:00 11.36 45400 152000 (1974) 25700 (2007) 57100 28000 35400 39300 40700 51100 67700 74200 87200 115000
2020-10-20 10:00 11.33 45300 152000 (1974) 25700 (2007) 57100 28000 35400 39300 40700 51100 67700 74200 87200 115000
2020-10-20 09:00 11.42 45700 152000 (1974) 25700 (2007) 57100 28000 35400 39300 40700 51100 67700 74200 87200 115000
2020-10-20 08:00 11.37 45500 152000 (1974) 25700 (2007) 57100 28000 35400 39300 40700 51100 67700 74200 87200 115000
2020-10-20 07:00 11.38 45500 152000 (1974) 25700 (2007) 57100 28000 35400 39300 40700 51100 67700 74200 87200 115000
2020-10-20 06:00 11.33 45300 152000 (1974) 25700 (2007) 57100 28000 35400 39300 40700 51100 67700 74200 87200 115000
2020-10-20 05:00 11.37 45500 152000 (1974) 25700 (2007) 57100 28000 35400 39300 40700 51100 67700 74200 87200 115000
2020-10-20 04:00 11.32 45200 152000 (1974) 25700 (2007) 57100 28000 35400 39300 40700 51100 67700 74200 87200 115000
2020-10-20 03:00 11.44 45800 152000 (1974) 25700 (2007) 57100 28000 35400 39300 40700 51100 67700 74200 87200 115000
2020-10-20 02:00 11.32 45200 152000 (1974) 25700 (2007) 57100 28000 35400 39300 40700 51100 67700 74200 87200 115000
2020-10-20 01:00 11.42 45700 152000 (1974) 25700 (2007) 57100 28000 35400 39300 40700 51100 67700 74200 87200 115000
2020-10-20 00:00 11.35 45400 152000 (1974) 25700 (2007) 57100 28000 35400 39300 40700 51100 67700 74200 87200 115000
2020-10-19 23:00 11.36 45400 172000 (1974) 27200 (2006) 58600 28400 35200 40200 42200 49900 70000 75900 99700 117000
2020-10-19 22:00 11.37 45500 172000 (1974) 27200 (2006) 58600 28400 35200 40200 42200 49900 70000 75900 99700 117000
2020-10-19 21:00 11.42 45700 172000 (1974) 27200 (2006) 58600 28400 35200 40200 42200 49900 70000 75900 99700 117000
2020-10-19 20:00 11.31 45200 172000 (1974) 27200 (2006) 58600 28400 35200 40200 42200 49900 70000 75900 99700 117000
2020-10-19 19:00 11.35 45400 172000 (1974) 27200 (2006) 58600 28400 35200 40200 42200 49900 70000 75900 99700 117000
2020-10-19 18:00 11.39 45600 172000 (1974) 27200 (2006) 58600 28400 35200 40200 42200 49900 70000 75900 99700 117000
2020-10-19 17:00 11.32 45200 172000 (1974) 27200 (2006) 58600 28400 35200 40200 42200 49900 70000 75900 99700 117000
2020-10-19 16:00 11.30 45100 172000 (1974) 27200 (2006) 58600 28400 35200 40200 42200 49900 70000 75900 99700 117000
2020-10-19 15:00 11.32 45200 172000 (1974) 27200 (2006) 58600 28400 35200 40200 42200 49900 70000 75900 99700 117000
2020-10-19 14:00 11.39 45600 172000 (1974) 27200 (2006) 58600 28400 35200 40200 42200 49900 70000 75900 99700 117000
2020-10-19 13:00 11.37 45500 172000 (1974) 27200 (2006) 58600 28400 35200 40200 42200 49900 70000 75900 99700 117000
2020-10-19 12:00 11.29 45100 172000 (1974) 27200 (2006) 58600 28400 35200 40200 42200 49900 70000 75900 99700 117000
2020-10-19 11:00 11.24 44800 172000 (1974) 27200 (2006) 58600 28400 35200 40200 42200 49900 70000 75900 99700 117000
2020-10-19 10:00 11.28 45000 172000 (1974) 27200 (2006) 58600 28400 35200 40200 42200 49900 70000 75900 99700 117000
2020-10-19 09:00 11.26 44900 172000 (1974) 27200 (2006) 58600 28400 35200 40200 42200 49900 70000 75900 99700 117000
2020-10-19 08:00 11.26 44900 172000 (1974) 27200 (2006) 58600 28400 35200 40200 42200 49900 70000 75900 99700 117000
2020-10-19 07:00 11.29 45100 172000 (1974) 27200 (2006) 58600 28400 35200 40200 42200 49900 70000 75900 99700 117000
2020-10-19 06:00 11.35 45400 172000 (1974) 27200 (2006) 58600 28400 35200 40200 42200 49900 70000 75900 99700 117000
2020-10-19 05:00 11.29 45100 172000 (1974) 27200 (2006) 58600 28400 35200 40200 42200 49900 70000 75900 99700 117000
2020-10-19 04:00 11.32 45200 172000 (1974) 27200 (2006) 58600 28400 35200 40200 42200 49900 70000 75900 99700 117000
2020-10-19 03:00 11.27 45000 172000 (1974) 27200 (2006) 58600 28400 35200 40200 42200 49900 70000 75900 99700 117000
2020-10-19 02:00 11.34 45300 172000 (1974) 27200 (2006) 58600 28400 35200 40200 42200 49900 70000 75900 99700 117000
2020-10-19 01:00 11.38 45500 172000 (1974) 27200 (2006) 58600 28400 35200 40200 42200 49900 70000 75900 99700 117000
2020-10-19 00:00 11.42 45700 172000 (1974) 27200 (2006) 58600 28400 35200 40200 42200 49900 70000 75900 99700 117000
2020-10-18 23:00 11.45 45900 199000 (1974) 28100 (2006) 59000 29800 35300 40500 42400 50400 68300 75000 86700 117000
2020-10-18 22:00 11.45 45900 199000 (1974) 28100 (2006) 59000 29800 35300 40500 42400 50400 68300 75000 86700 117000
2020-10-18 21:00 11.43 45800 199000 (1974) 28100 (2006) 59000 29800 35300 40500 42400 50400 68300 75000 86700 117000
2020-10-18 20:00 11.41 45700 199000 (1974) 28100 (2006) 59000 29800 35300 40500 42400 50400 68300 75000 86700 117000
2020-10-18 19:00 11.41 45700 199000 (1974) 28100 (2006) 59000 29800 35300 40500 42400 50400 68300 75000 86700 117000
2020-10-18 18:00 11.45 45900 199000 (1974) 28100 (2006) 59000 29800 35300 40500 42400 50400 68300 75000 86700 117000
2020-10-18 17:00 11.45 45900 199000 (1974) 28100 (2006) 59000 29800 35300 40500 42400 50400 68300 75000 86700 117000
2020-10-18 16:00 11.38 45500 199000 (1974) 28100 (2006) 59000 29800 35300 40500 42400 50400 68300 75000 86700 117000
2020-10-18 15:00 11.47 46000 199000 (1974) 28100 (2006) 59000 29800 35300 40500 42400 50400 68300 75000 86700 117000
2020-10-18 14:00 11.39 45600 199000 (1974) 28100 (2006) 59000 29800 35300 40500 42400 50400 68300 75000 86700 117000
2020-10-18 13:00 11.34 45300 199000 (1974) 28100 (2006) 59000 29800 35300 40500 42400 50400 68300 75000 86700 117000
2020-10-18 12:00 11.40 45600 199000 (1974) 28100 (2006) 59000 29800 35300 40500 42400 50400 68300 75000 86700 117000
2020-10-18 11:00 11.44 45800 199000 (1974) 28100 (2006) 59000 29800 35300 40500 42400 50400 68300 75000 86700 117000
2020-10-18 10:00 11.46 45900 199000 (1974) 28100 (2006) 59000 29800 35300 40500 42400 50400 68300 75000 86700 117000
2020-10-18 09:00 11.46 45900 199000 (1974) 28100 (2006) 59000 29800 35300 40500 42400 50400 68300 75000 86700 117000
2020-10-18 08:00 11.41 45700 199000 (1974) 28100 (2006) 59000 29800 35300 40500 42400 50400 68300 75000 86700 117000
2020-10-18 07:00 11.47 46000 199000 (1974) 28100 (2006) 59000 29800 35300 40500 42400 50400 68300 75000 86700 117000
2020-10-18 06:00 11.49 46100 199000 (1974) 28100 (2006) 59000 29800 35300 40500 42400 50400 68300 75000 86700 117000
2020-10-18 05:00 11.49 46100 199000 (1974) 28100 (2006) 59000 29800 35300 40500 42400 50400 68300 75000 86700 117000
2020-10-18 04:00 11.47 46000 199000 (1974) 28100 (2006) 59000 29800 35300 40500 42400 50400 68300 75000 86700 117000
2020-10-18 03:00 11.47 46000 199000 (1974) 28100 (2006) 59000 29800 35300 40500 42400 50400 68300 75000 86700 117000
2020-10-18 02:00 11.46 45900 199000 (1974) 28100 (2006) 59000 29800 35300 40500 42400 50400 68300 75000 86700 117000
2020-10-18 01:00 11.45 45900 199000 (1974) 28100 (2006) 59000 29800 35300 40500 42400 50400 68300 75000 86700 117000
2020-10-18 00:00 11.46 45900 199000 (1974) 28100 (2006) 59000 29800 35300 40500 42400 50400 68300 75000 86700 117000
2020-10-17 23:00 11.45 45900 220000 (1974) 29300 (2005) 59100 31900 35400 39800 41400 50800 65500 70400 88700 120000
2020-10-17 22:00 11.45 45900 220000 (1974) 29300 (2005) 59100 31900 35400 39800 41400 50800 65500 70400 88700 120000
2020-10-17 21:00 11.44 45800 220000 (1974) 29300 (2005) 59100 31900 35400 39800 41400 50800 65500 70400 88700 120000
2020-10-17 20:00 11.45 45900 220000 (1974) 29300 (2005) 59100 31900 35400 39800 41400 50800 65500 70400 88700 120000
2020-10-17 19:00 11.44 45800 220000 (1974) 29300 (2005) 59100 31900 35400 39800 41400 50800 65500 70400 88700 120000
2020-10-17 18:00 11.45 45900 220000 (1974) 29300 (2005) 59100 31900 35400 39800 41400 50800 65500 70400 88700 120000
2020-10-17 17:00 11.43 45800 220000 (1974) 29300 (2005) 59100 31900 35400 39800 41400 50800 65500 70400 88700 120000
2020-10-17 16:00 11.35 45400 220000 (1974) 29300 (2005) 59100 31900 35400 39800 41400 50800 65500 70400 88700 120000
2020-10-17 15:00 11.33 45300 220000 (1974) 29300 (2005) 59100 31900 35400 39800 41400 50800 65500 70400 88700 120000
2020-10-17 14:00 11.35 45400 220000 (1974) 29300 (2005) 59100 31900 35400 39800 41400 50800 65500 70400 88700 120000
2020-10-17 13:00 11.31 45200 220000 (1974) 29300 (2005) 59100 31900 35400 39800 41400 50800 65500 70400 88700 120000
2020-10-17 12:00 11.31 45200 220000 (1974) 29300 (2005) 59100 31900 35400 39800 41400 50800 65500 70400 88700 120000
2020-10-17 11:00 11.39 45600 220000 (1974) 29300 (2005) 59100 31900 35400 39800 41400 50800 65500 70400 88700 120000
2020-10-17 10:00 11.31 45200 220000 (1974) 29300 (2005) 59100 31900 35400 39800 41400 50800 65500 70400 88700 120000
2020-10-17 09:00 11.34 45300 220000 (1974) 29300 (2005) 59100 31900 35400 39800 41400 50800 65500 70400 88700 120000
2020-10-17 08:00 11.39 45600 220000 (1974) 29300 (2005) 59100 31900 35400 39800 41400 50800 65500 70400 88700 120000
2020-10-17 07:00 11.40 45600 220000 (1974) 29300 (2005) 59100 31900 35400 39800 41400 50800 65500 70400 88700 120000
2020-10-17 06:00 11.39 45600 220000 (1974) 29300 (2005) 59100 31900 35400 39800 41400 50800 65500 70400 88700 120000
2020-10-17 05:00 11.38 45500 220000 (1974) 29300 (2005) 59100 31900 35400 39800 41400 50800 65500 70400 88700 120000
2020-10-17 04:00 11.39 45600 220000 (1974) 29300 (2005) 59100 31900 35400 39800 41400 50800 65500 70400 88700 120000
2020-10-17 03:00 11.38 45500 220000 (1974) 29300 (2005) 59100 31900 35400 39800 41400 50800 65500 70400 88700 120000
2020-10-17 02:00 11.38 45500 220000 (1974) 29300 (2005) 59100 31900 35400 39800 41400 50800 65500 70400 88700 120000
2020-10-17 01:00 11.38 45500 220000 (1974) 29300 (2005) 59100 31900 35400 39800 41400 50800 65500 70400 88700 120000
2020-10-17 00:00 11.38 45500 220000 (1974) 29300 (2005) 59100 31900 35400 39800 41400 50800 65500 70400 88700 120000
2020-10-16 23:00 11.38 45500 236000 (1974) 31200 (2005) 60200 33900 35700 39000 41200 51200 67400 70600 90300 131000
2020-10-16 22:00 11.36 45400 236000 (1974) 31200 (2005) 60200 33900 35700 39000 41200 51200 67400 70600 90300 131000
2020-10-16 20:00 11.35 45400 236000 (1974) 31200 (2005) 60200 33900 35700 39000 41200 51200 67400 70600 90300 131000
2020-10-16 19:00 11.34 45300 236000 (1974) 31200 (2005) 60200 33900 35700 39000 41200 51200 67400 70600 90300 131000
2020-10-16 18:00 11.34 45300 236000 (1974) 31200 (2005) 60200 33900 35700 39000 41200 51200 67400 70600 90300 131000
2020-10-16 17:00 11.33 45300 236000 (1974) 31200 (2005) 60200 33900 35700 39000 41200 51200 67400 70600 90300 131000
2020-10-16 16:00 11.24 44800 236000 (1974) 31200 (2005) 60200 33900 35700 39000 41200 51200 67400 70600 90300 131000
2020-10-16 15:00 11.25 44900 236000 (1974) 31200 (2005) 60200 33900 35700 39000 41200 51200 67400 70600 90300 131000
2020-10-16 14:00 11.20 44600 236000 (1974) 31200 (2005) 60200 33900 35700 39000 41200 51200 67400 70600 90300 131000
2020-10-16 13:00 11.22 44700 236000 (1974) 31200 (2005) 60200 33900 35700 39000 41200 51200 67400 70600 90300 131000
2020-10-16 12:00 11.27 45000 236000 (1974) 31200 (2005) 60200 33900 35700 39000 41200 51200 67400 70600 90300 131000
2020-10-16 11:00 11.25 44900 236000 (1974) 31200 (2005) 60200 33900 35700 39000 41200 51200 67400 70600 90300 131000
2020-10-16 10:00 11.24 44800 236000 (1974) 31200 (2005) 60200 33900 35700 39000 41200 51200 67400 70600 90300 131000
2020-10-16 09:00 11.24 44800 236000 (1974) 31200 (2005) 60200 33900 35700 39000 41200 51200 67400 70600 90300 131000
2020-10-16 08:00 11.29 45100 236000 (1974) 31200 (2005) 60200 33900 35700 39000 41200 51200 67400 70600 90300 131000
2020-10-16 07:00 11.29 45100 236000 (1974) 31200 (2005) 60200 33900 35700 39000 41200 51200 67400 70600 90300 131000
2020-10-16 06:00 11.32 45200 236000 (1974) 31200 (2005) 60200 33900 35700 39000 41200 51200 67400 70600 90300 131000
2020-10-16 05:00 11.33 45300 236000 (1974) 31200 (2005) 60200 33900 35700 39000 41200 51200 67400 70600 90300 131000
2020-10-16 04:00 11.32 45200 236000 (1974) 31200 (2005) 60200 33900 35700 39000 41200 51200 67400 70600 90300 131000
2020-10-16 03:00 11.32 45200 236000 (1974) 31200 (2005) 60200 33900 35700 39000 41200 51200 67400 70600 90300 131000
2020-10-16 02:00 11.32 45200 236000 (1974) 31200 (2005) 60200 33900 35700 39000 41200 51200 67400 70600 90300 131000
2020-10-16 01:00 11.32 45200 236000 (1974) 31200 (2005) 60200 33900 35700 39000 41200 51200 67400 70600 90300 131000
2020-10-16 00:00 11.31 45200 236000 (1974) 31200 (2005) 60200 33900 35700 39000 41200 51200 67400 70600 90300 131000
2020-10-15 23:00 11.31 45200 250000 (1974) 33400 (2005) 63000 35000 36200 39200 40800 51000 68500 72100 101000 159000
2020-10-15 22:00 11.32 45200 250000 (1974) 33400 (2005) 63000 35000 36200 39200 40800 51000 68500 72100 101000 159000
2020-10-15 21:00 11.32 45200 250000 (1974) 33400 (2005) 63000 35000 36200 39200 40800 51000 68500 72100 101000 159000
2020-10-15 20:00 11.32 45200 250000 (1974) 33400 (2005) 63000 35000 36200 39200 40800 51000 68500 72100 101000 159000
2020-10-15 19:00 11.32 45200 250000 (1974) 33400 (2005) 63000 35000 36200 39200 40800 51000 68500 72100 101000 159000
2020-10-15 18:00 11.33 45300 250000 (1974) 33400 (2005) 63000 35000 36200 39200 40800 51000 68500 72100 101000 159000
2020-10-15 17:00 11.34 45300 250000 (1974) 33400 (2005) 63000 35000 36200 39200 40800 51000 68500 72100 101000 159000
2020-10-15 16:00 11.34 45300 250000 (1974) 33400 (2005) 63000 35000 36200 39200 40800 51000 68500 72100 101000 159000
2020-10-15 15:00 11.33 45300 250000 (1974) 33400 (2005) 63000 35000 36200 39200 40800 51000 68500 72100 101000 159000
2020-10-15 14:00 11.27 45000 250000 (1974) 33400 (2005) 63000 35000 36200 39200 40800 51000 68500 72100 101000 159000
2020-10-15 13:00 11.32 45200 250000 (1974) 33400 (2005) 63000 35000 36200 39200 40800 51000 68500 72100 101000 159000
2020-10-15 12:00 11.34 45300 250000 (1974) 33400 (2005) 63000 35000 36200 39200 40800 51000 68500 72100 101000 159000
2020-10-15 11:00 11.34 45300 250000 (1974) 33400 (2005) 63000 35000 36200 39200 40800 51000 68500 72100 101000 159000
2020-10-15 10:00 11.32 45200 250000 (1974) 33400 (2005) 63000 35000 36200 39200 40800 51000 68500 72100 101000 159000
2020-10-15 09:00 11.33 45300 250000 (1974) 33400 (2005) 63000 35000 36200 39200 40800 51000 68500 72100 101000 159000
2020-10-15 07:00 11.34 45300 250000 (1974) 33400 (2005) 63000 35000 36200 39200 40800 51000 68500 72100 101000 159000
2020-10-15 06:00 11.34 45300 250000 (1974) 33400 (2005) 63000 35000 36200 39200 40800 51000 68500 72100 101000 159000
2020-10-15 05:00 11.34 45300 250000 (1974) 33400 (2005) 63000 35000 36200 39200 40800 51000 68500 72100 101000 159000
2020-10-15 04:00 11.34 45300 250000 (1974) 33400 (2005) 63000 35000 36200 39200 40800 51000 68500 72100 101000 159000
2020-10-15 03:00 11.32 45200 250000 (1974) 33400 (2005) 63000 35000 36200 39200 40800 51000 68500 72100 101000 159000
2020-10-15 02:00 11.33 45300 250000 (1974) 33400 (2005) 63000 35000 36200 39200 40800 51000 68500 72100 101000 159000
2020-10-15 01:00 11.32 45200 250000 (1974) 33400 (2005) 63000 35000 36200 39200 40800 51000 68500 72100 101000 159000
2020-10-15 00:00 11.29 45100 250000 (1974) 33400 (2005) 63000 35000 36200 39200 40800 51000 68500 72100 101000 159000
2020-10-14 23:00 11.33 45300 256000 (1974) 34600 (1992) 64500 35600 36500 39700 41400 51400 69700 72800 102000 169000
2020-10-14 22:00 11.34 45300 256000 (1974) 34600 (1992) 64500 35600 36500 39700 41400 51400 69700 72800 102000 169000
2020-10-14 21:00 11.36 45400 256000 (1974) 34600 (1992) 64500 35600 36500 39700 41400 51400 69700 72800 102000 169000
2020-10-14 20:00 11.35 45400 256000 (1974) 34600 (1992) 64500 35600 36500 39700 41400 51400 69700 72800 102000 169000
2020-10-14 19:00 11.36 45400 256000 (1974) 34600 (1992) 64500 35600 36500 39700 41400 51400 69700 72800 102000 169000
2020-10-14 18:00 11.36 45400 256000 (1974) 34600 (1992) 64500 35600 36500 39700 41400 51400 69700 72800 102000 169000
2020-10-14 17:00 11.34 45300 256000 (1974) 34600 (1992) 64500 35600 36500 39700 41400 51400 69700 72800 102000 169000
2020-10-14 16:00 11.32 45200 256000 (1974) 34600 (1992) 64500 35600 36500 39700 41400 51400 69700 72800 102000 169000
2020-10-14 15:00 11.24 44800 256000 (1974) 34600 (1992) 64500 35600 36500 39700 41400 51400 69700 72800 102000 169000
2020-10-14 14:00 11.28 45000 256000 (1974) 34600 (1992) 64500 35600 36500 39700 41400 51400 69700 72800 102000 169000
2020-10-14 13:00 11.21 44700 256000 (1974) 34600 (1992) 64500 35600 36500 39700 41400 51400 69700 72800 102000 169000
2020-10-14 12:00 11.26 44900 256000 (1974) 34600 (1992) 64500 35600 36500 39700 41400 51400 69700 72800 102000 169000
2020-10-14 11:00 11.35 45400 256000 (1974) 34600 (1992) 64500 35600 36500 39700 41400 51400 69700 72800 102000 169000
2020-10-14 10:00 11.33 45300 256000 (1974) 34600 (1992) 64500 35600 36500 39700 41400 51400 69700 72800 102000 169000
2020-10-14 09:00 11.36 45400 256000 (1974) 34600 (1992) 64500 35600 36500 39700 41400 51400 69700 72800 102000 169000
2020-10-14 08:00 11.38 45500 256000 (1974) 34600 (1992) 64500 35600 36500 39700 41400 51400 69700 72800 102000 169000
2020-10-14 07:00 11.40 45600 256000 (1974) 34600 (1992) 64500 35600 36500 39700 41400 51400 69700 72800 102000 169000
2020-10-14 06:00 11.39 45600 256000 (1974) 34600 (1992) 64500 35600 36500 39700 41400 51400 69700 72800 102000 169000
2020-10-14 05:00 11.39 45600 256000 (1974) 34600 (1992) 64500 35600 36500 39700 41400 51400 69700 72800 102000 169000
2020-10-14 04:00 11.39 45600 256000 (1974) 34600 (1992) 64500 35600 36500 39700 41400 51400 69700 72800 102000 169000
2020-10-14 03:00 11.39 45600 256000 (1974) 34600 (1992) 64500 35600 36500 39700 41400 51400 69700 72800 102000 169000
2020-10-14 02:00 11.41 45700 256000 (1974) 34600 (1992) 64500 35600 36500 39700 41400 51400 69700 72800 102000 169000
2020-10-14 01:00 11.41 45700 256000 (1974) 34600 (1992) 64500 35600 36500 39700 41400 51400 69700 72800 102000 169000
2020-10-14 00:00 11.41 45700 256000 (1974) 34600 (1992) 64500 35600 36500 39700 41400 51400 69700 72800 102000 169000
2020-10-13 23:00 11.42 45700 251000 (1974) 33800 (2004) 65100 35400 36500 39700 41800 52100 72300 74100 106000 172000
2020-10-13 22:00 11.42 45700 251000 (1974) 33800 (2004) 65100 35400 36500 39700 41800 52100 72300 74100 106000 172000
2020-10-13 21:00 11.41 45700 251000 (1974) 33800 (2004) 65100 35400 36500 39700 41800 52100 72300 74100 106000 172000
2020-10-13 20:00 11.42 45700 251000 (1974) 33800 (2004) 65100 35400 36500 39700 41800 52100 72300 74100 106000 172000
2020-10-13 19:00 11.44 45800 251000 (1974) 33800 (2004) 65100 35400 36500 39700 41800 52100 72300 74100 106000 172000
2020-10-13 18:00 11.44 45800 251000 (1974) 33800 (2004) 65100 35400 36500 39700 41800 52100 72300 74100 106000 172000
2020-10-13 17:00 11.45 45900 251000 (1974) 33800 (2004) 65100 35400 36500 39700 41800 52100 72300 74100 106000 172000
2020-10-13 16:00 11.43 45800 251000 (1974) 33800 (2004) 65100 35400 36500 39700 41800 52100 72300 74100 106000 172000
2020-10-13 15:00 11.38 45500 251000 (1974) 33800 (2004) 65100 35400 36500 39700 41800 52100 72300 74100 106000 172000
2020-10-13 14:00 11.39 45600 251000 (1974) 33800 (2004) 65100 35400 36500 39700 41800 52100 72300 74100 106000 172000
2020-10-13 13:00 11.36 45400 251000 (1974) 33800 (2004) 65100 35400 36500 39700 41800 52100 72300 74100 106000 172000
2020-10-13 12:00 11.43 45800 251000 (1974) 33800 (2004) 65100 35400 36500 39700 41800 52100 72300 74100 106000 172000
2020-10-13 11:00 11.49 46100 251000 (1974) 33800 (2004) 65100 35400 36500 39700 41800 52100 72300 74100 106000 172000
2020-10-13 10:00 11.43 45800 251000 (1974) 33800 (2004) 65100 35400 36500 39700 41800 52100 72300 74100 106000 172000
2020-10-13 09:00 11.51 46200 251000 (1974) 33800 (2004) 65100 35400 36500 39700 41800 52100 72300 74100 106000 172000
2020-10-13 08:00 11.52 46200 251000 (1974) 33800 (2004) 65100 35400 36500 39700 41800 52100 72300 74100 106000 172000
2020-10-13 07:00 11.53 46300 251000 (1974) 33800 (2004) 65100 35400 36500 39700 41800 52100 72300 74100 106000 172000
2020-10-13 06:00 11.54 46300 251000 (1974) 33800 (2004) 65100 35400 36500 39700 41800 52100 72300 74100 106000 172000
2020-10-13 05:00 11.54 46300 251000 (1974) 33800 (2004) 65100 35400 36500 39700 41800 52100 72300 74100 106000 172000
2020-10-13 04:00 11.56 46400 251000 (1974) 33800 (2004) 65100 35400 36500 39700 41800 52100 72300 74100 106000 172000
2020-10-13 03:00 11.56 46400 251000 (1974) 33800 (2004) 65100 35400 36500 39700 41800 52100 72300 74100 106000 172000
2020-10-13 02:00 11.58 46500 251000 (1974) 33800 (2004) 65100 35400 36500 39700 41800 52100 72300 74100 106000 172000
2020-10-13 01:00 11.58 46500 251000 (1974) 33800 (2004) 65100 35400 36500 39700 41800 52100 72300 74100 106000 172000
2020-10-13 00:00 11.60 46600 251000 (1974) 33800 (2004) 65100 35400 36500 39700 41800 52100 72300 74100 106000 172000
2020-10-12 23:00 11.61 46700 207000 (1974) 33500 (2004) 64900 35000 36200 39800 40900 51900 76300 79100 96100 194000
2020-10-12 22:00 11.61 46700 207000 (1974) 33500 (2004) 64900 35000 36200 39800 40900 51900 76300 79100 96100 194000
2020-10-12 21:00 11.61 46700 207000 (1974) 33500 (2004) 64900 35000 36200 39800 40900 51900 76300 79100 96100 194000
2020-10-12 20:00 11.62 46700 207000 (1974) 33500 (2004) 64900 35000 36200 39800 40900 51900 76300 79100 96100 194000
2020-10-12 19:00 11.62 46700 207000 (1974) 33500 (2004) 64900 35000 36200 39800 40900 51900 76300 79100 96100 194000
2020-10-12 18:00 11.64 46800 207000 (1974) 33500 (2004) 64900 35000 36200 39800 40900 51900 76300 79100 96100 194000
2020-10-12 17:00 11.64 46800 207000 (1974) 33500 (2004) 64900 35000 36200 39800 40900 51900 76300 79100 96100 194000
2020-10-12 16:00 11.63 46800 207000 (1974) 33500 (2004) 64900 35000 36200 39800 40900 51900 76300 79100 96100 194000
2020-10-12 15:00 11.54 46300 207000 (1974) 33500 (2004) 64900 35000 36200 39800 40900 51900 76300 79100 96100 194000
2020-10-12 14:00 11.67 47000 207000 (1974) 33500 (2004) 64900 35000 36200 39800 40900 51900 76300 79100 96100 194000
2020-10-12 13:00 11.58 46500 207000 (1974) 33500 (2004) 64900 35000 36200 39800 40900 51900 76300 79100 96100 194000
2020-10-12 12:00 11.59 46600 207000 (1974) 33500 (2004) 64900 35000 36200 39800 40900 51900 76300 79100 96100 194000
2020-10-12 11:00 11.55 46400 207000 (1974) 33500 (2004) 64900 35000 36200 39800 40900 51900 76300 79100 96100 194000
2020-10-12 10:00 11.61 46700 207000 (1974) 33500 (2004) 64900 35000 36200 39800 40900 51900 76300 79100 96100 194000
2020-10-12 09:00 11.60 46600 207000 (1974) 33500 (2004) 64900 35000 36200 39800 40900 51900 76300 79100 96100 194000
2020-10-12 08:00 11.61 46700 207000 (1974) 33500 (2004) 64900 35000 36200 39800 40900 51900 76300 79100 96100 194000
2020-10-12 07:00 11.66 46900 207000 (1974) 33500 (2004) 64900 35000 36200 39800 40900 51900 76300 79100 96100 194000
2020-10-12 06:00 11.68 47000 207000 (1974) 33500 (2004) 64900 35000 36200 39800 40900 51900 76300 79100 96100 194000
2020-10-12 05:00 11.59 46600 207000 (1974) 33500 (2004) 64900 35000 36200 39800 40900 51900 76300 79100 96100 194000
2020-10-12 04:00 11.58 46500 207000 (1974) 33500 (2004) 64900 35000 36200 39800 40900 51900 76300 79100 96100 194000
2020-10-12 03:00 11.72 47300 207000 (1974) 33500 (2004) 64900 35000 36200 39800 40900 51900 76300 79100 96100 194000
2020-10-12 02:00 11.71 47200 207000 (1974) 33500 (2004) 64900 35000 36200 39800 40900 51900 76300 79100 96100 194000
2020-10-12 01:00 11.67 47000 207000 (1974) 33500 (2004) 64900 35000 36200 39800 40900 51900 76300 79100 96100 194000
2020-10-12 00:00 11.58 46500 207000 (1974) 33500 (2004) 64900 35000 36200 39800 40900 51900 76300 79100 96100 194000
2020-10-11 23:00 11.66 46900 219000 (2019) 33500 (2004) 63600 34900 36300 39700 41400 52100 71500 77500 93100 170000
2020-10-11 22:00 11.69 47100 219000 (2019) 33500 (2004) 63600 34900 36300 39700 41400 52100 71500 77500 93100 170000
2020-10-11 21:00 11.72 47300 219000 (2019) 33500 (2004) 63600 34900 36300 39700 41400 52100 71500 77500 93100 170000
2020-10-11 20:00 11.65 46900 219000 (2019) 33500 (2004) 63600 34900 36300 39700 41400 52100 71500 77500 93100 170000
2020-10-11 19:00 11.64 46800 219000 (2019) 33500 (2004) 63600 34900 36300 39700 41400 52100 71500 77500 93100 170000
2020-10-11 18:00 11.63 46800 219000 (2019) 33500 (2004) 63600 34900 36300 39700 41400 52100 71500 77500 93100 170000
2020-10-11 17:00 11.59 46600 219000 (2019) 33500 (2004) 63600 34900 36300 39700 41400 52100 71500 77500 93100 170000
2020-10-11 16:00 11.62 46700 219000 (2019) 33500 (2004) 63600 34900 36300 39700 41400 52100 71500 77500 93100 170000
2020-10-11 15:00 11.61 46700 219000 (2019) 33500 (2004) 63600 34900 36300 39700 41400 52100 71500 77500 93100 170000
2020-10-11 14:00 11.67 47000 219000 (2019) 33500 (2004) 63600 34900 36300 39700 41400 52100 71500 77500 93100 170000
2020-10-11 13:00 11.69 47100 219000 (2019) 33500 (2004) 63600 34900 36300 39700 41400 52100 71500 77500 93100 170000
2020-10-11 12:00 11.65 46900 219000 (2019) 33500 (2004) 63600 34900 36300 39700 41400 52100 71500 77500 93100 170000
2020-10-11 11:00 11.61 46700 219000 (2019) 33500 (2004) 63600 34900 36300 39700 41400 52100 71500 77500 93100 170000
2020-10-11 10:00 11.70 47200 219000 (2019) 33500 (2004) 63600 34900 36300 39700 41400 52100 71500 77500 93100 170000
2020-10-11 09:00 11.71 47200 219000 (2019) 33500 (2004) 63600 34900 36300 39700 41400 52100 71500 77500 93100 170000
2020-10-11 08:00 11.72 47300 219000 (2019) 33500 (2004) 63600 34900 36300 39700 41400 52100 71500 77500 93100 170000
2020-10-11 07:00 11.74 47400 219000 (2019) 33500 (2004) 63600 34900 36300 39700 41400 52100 71500 77500 93100 170000
2020-10-11 06:00 11.75 47400 219000 (2019) 33500 (2004) 63600 34900 36300 39700 41400 52100 71500 77500 93100 170000
2020-10-11 05:00 11.75 47400 219000 (2019) 33500 (2004) 63600 34900 36300 39700 41400 52100 71500 77500 93100 170000
2020-10-11 04:00 11.75 47400 219000 (2019) 33500 (2004) 63600 34900 36300 39700 41400 52100 71500 77500 93100 170000
2020-10-11 03:00 11.74 47400 219000 (2019) 33500 (2004) 63600 34900 36300 39700 41400 52100 71500 77500 93100 170000
2020-10-11 02:00 11.74 47400 219000 (2019) 33500 (2004) 63600 34900 36300 39700 41400 52100 71500 77500 93100 170000
2020-10-11 01:00 11.74 47400 219000 (2019) 33500 (2004) 63600 34900 36300 39700 41400 52100 71500 77500 93100 170000
2020-10-11 00:00 11.74 47400 219000 (2019) 33500 (2004) 63600 34900 36300 39700 41400 52100 71500 77500 93100 170000
2020-10-10 23:00 11.75 47400 215000 (2019) 33300 (2004) 62100 35200 36200 40300 42100 51500 72900 78100 92600 134000
2020-10-10 22:00 11.75 47400 215000 (2019) 33300 (2004) 62100 35200 36200 40300 42100 51500 72900 78100 92600 134000
2020-10-10 21:00 11.77 47500 215000 (2019) 33300 (2004) 62100 35200 36200 40300 42100 51500 72900 78100 92600 134000
2020-10-10 20:00 11.76 47500 215000 (2019) 33300 (2004) 62100 35200 36200 40300 42100 51500 72900 78100 92600 134000
2020-10-10 19:00 11.78 47600 215000 (2019) 33300 (2004) 62100 35200 36200 40300 42100 51500 72900 78100 92600 134000
2020-10-10 18:00 11.79 47600 215000 (2019) 33300 (2004) 62100 35200 36200 40300 42100 51500 72900 78100 92600 134000
2020-10-10 17:00 11.77 47500 215000 (2019) 33300 (2004) 62100 35200 36200 40300 42100 51500 72900 78100 92600 134000
2020-10-10 16:00 11.80 47700 215000 (2019) 33300 (2004) 62100 35200 36200 40300 42100 51500 72900 78100 92600 134000
2020-10-10 15:00 11.80 47700 215000 (2019) 33300 (2004) 62100 35200 36200 40300 42100 51500 72900 78100 92600 134000
2020-10-10 14:00 11.80 47700 215000 (2019) 33300 (2004) 62100 35200 36200 40300 42100 51500 72900 78100 92600 134000
2020-10-10 13:00 11.81 47700 215000 (2019) 33300 (2004) 62100 35200 36200 40300 42100 51500 72900 78100 92600 134000
2020-10-10 12:00 11.81 47700 215000 (2019) 33300 (2004) 62100 35200 36200 40300 42100 51500 72900 78100 92600 134000
2020-10-10 11:00 11.80 47700 215000 (2019) 33300 (2004) 62100 35200 36200 40300 42100 51500 72900 78100 92600 134000
2020-10-10 10:00 11.79 47600 215000 (2019) 33300 (2004) 62100 35200 36200 40300 42100 51500 72900 78100 92600 134000
2020-10-10 09:00 11.79 47600 215000 (2019) 33300 (2004) 62100 35200 36200 40300 42100 51500 72900 78100 92600 134000
2020-10-10 08:00 11.80 47700 215000 (2019) 33300 (2004) 62100 35200 36200 40300 42100 51500 72900 78100 92600 134000
2020-10-10 07:00 11.81 47700 215000 (2019) 33300 (2004) 62100 35200 36200 40300 42100 51500 72900 78100 92600 134000
2020-10-10 06:00 11.83 47800 215000 (2019) 33300 (2004) 62100 35200 36200 40300 42100 51500 72900 78100 92600 134000
2020-10-10 05:00 11.82 47800 215000 (2019) 33300 (2004) 62100 35200 36200 40300 42100 51500 72900 78100 92600 134000
2020-10-10 04:00 11.83 47800 215000 (2019) 33300 (2004) 62100 35200 36200 40300 42100 51500 72900 78100 92600 134000
2020-10-10 03:00 11.83 47800 215000 (2019) 33300 (2004) 62100 35200 36200 40300 42100 51500 72900 78100 92600 134000
2020-10-10 02:00 11.82 47800 215000 (2019) 33300 (2004) 62100 35200 36200 40300 42100 51500 72900 78100 92600 134000
2020-10-10 01:00 11.83 47800 215000 (2019) 33300 (2004) 62100 35200 36200 40300 42100 51500 72900 78100 92600 134000
2020-10-10 00:00 11.76 47500 215000 (2019) 33300 (2004) 62100 35200 36200 40300 42100 51500 72900 78100 92600 134000
2020-10-09 23:00 11.84 47900 200000 (2019) 33100 (2004) 61200 35400 36100 41100 42500 52100 71700 76300 96400 108000
2020-10-09 22:00 11.83 47800 200000 (2019) 33100 (2004) 61200 35400 36100 41100 42500 52100 71700 76300 96400 108000
2020-10-09 21:00 11.83 47800 200000 (2019) 33100 (2004) 61200 35400 36100 41100 42500 52100 71700 76300 96400 108000
2020-10-09 20:00 11.83 47800 200000 (2019) 33100 (2004) 61200 35400 36100 41100 42500 52100 71700 76300 96400 108000
2020-10-09 19:00 11.78 47600 200000 (2019) 33100 (2004) 61200 35400 36100 41100 42500 52100 71700 76300 96400 108000
2020-10-09 18:00 11.82 47800 200000 (2019) 33100 (2004) 61200 35400 36100 41100 42500 52100 71700 76300 96400 108000
2020-10-09 17:00 11.82 47800 200000 (2019) 33100 (2004) 61200 35400 36100 41100 42500 52100 71700 76300 96400 108000
2020-10-09 16:00 11.82 47800 200000 (2019) 33100 (2004) 61200 35400 36100 41100 42500 52100 71700 76300 96400 108000
2020-10-09 15:00 11.78 47600 200000 (2019) 33100 (2004) 61200 35400 36100 41100 42500 52100 71700 76300 96400 108000
2020-10-09 14:00 11.82 47800 200000 (2019) 33100 (2004) 61200 35400 36100 41100 42500 52100 71700 76300 96400 108000
2020-10-09 13:00 11.81 47700 200000 (2019) 33100 (2004) 61200 35400 36100 41100 42500 52100 71700 76300 96400 108000
2020-10-09 12:00 11.72 47300 200000 (2019) 33100 (2004) 61200 35400 36100 41100 42500 52100 71700 76300 96400 108000
2020-10-09 11:00 11.81 47700 200000 (2019) 33100 (2004) 61200 35400 36100 41100 42500 52100 71700 76300 96400 108000
2020-10-09 10:00 11.81 47700 200000 (2019) 33100 (2004) 61200 35400 36100 41100 42500 52100 71700 76300 96400 108000
2020-10-09 09:00 11.82 47800 200000 (2019) 33100 (2004) 61200 35400 36100 41100 42500 52100 71700 76300 96400 108000
2020-10-09 08:00 11.81 47700 200000 (2019) 33100 (2004) 61200 35400 36100 41100 42500 52100 71700 76300 96400 108000
2020-10-09 07:00 11.82 47800 200000 (2019) 33100 (2004) 61200 35400 36100 41100 42500 52100 71700 76300 96400 108000
2020-10-09 06:00 11.82 47800 200000 (2019) 33100 (2004) 61200 35400 36100 41100 42500 52100 71700 76300 96400 108000
2020-10-09 05:00 11.81 47700 200000 (2019) 33100 (2004) 61200 35400 36100 41100 42500 52100 71700 76300 96400 108000
2020-10-09 04:00 11.60 46600 200000 (2019) 33100 (2004) 61200 35400 36100 41100 42500 52100 71700 76300 96400 108000
2020-10-09 03:00 11.82 47800 200000 (2019) 33100 (2004) 61200 35400 36100 41100 42500 52100 71700 76300 96400 108000
2020-10-09 02:00 11.82 47800 200000 (2019) 33100 (2004) 61200 35400 36100 41100 42500 52100 71700 76300 96400 108000
2020-10-09 01:00 11.83 47800 200000 (2019) 33100 (2004) 61200 35400 36100 41100 42500 52100 71700 76300 96400 108000
2020-10-09 00:00 11.83 47800 200000 (2019) 33100 (2004) 61200 35400 36100 41100 42500 52100 71700 76300 96400 108000
2020-10-08 23:00 11.83 47800 187000 (2020) 33100 (2004) 60600 35200 36600 40100 42600 52600 73700 77900 86500 123000
2020-10-08 22:00 11.73 47300 187000 (2020) 33100 (2004) 60600 35200 36600 40100 42600 52600 73700 77900 86500 123000
2020-10-08 21:00 11.84 47900 187000 (2020) 33100 (2004) 60600 35200 36600 40100 42600 52600 73700 77900 86500 123000
2020-10-08 20:00 11.86 48000 187000 (2020) 33100 (2004) 60600 35200 36600 40100 42600 52600 73700 77900 86500 123000
2020-10-08 19:00 11.86 48000 187000 (2020) 33100 (2004) 60600 35200 36600 40100 42600 52600 73700 77900 86500 123000
2020-10-08 18:00 11.85 47900 187000 (2020) 33100 (2004) 60600 35200 36600 40100 42600 52600 73700 77900 86500 123000
2020-10-08 17:00 11.86 48000 187000 (2020) 33100 (2004) 60600 35200 36600 40100 42600 52600 73700 77900 86500 123000
2020-10-08 16:00 11.87 48000 187000 (2020) 33100 (2004) 60600 35200 36600 40100 42600 52600 73700 77900 86500 123000
2020-10-08 15:00 11.87 48000 187000 (2020) 33100 (2004) 60600 35200 36600 40100 42600 52600 73700 77900 86500 123000
2020-10-08 14:00 11.88 48100 187000 (2020) 33100 (2004) 60600 35200 36600 40100 42600 52600 73700 77900 86500 123000
2020-10-08 13:00 11.85 47900 187000 (2020) 33100 (2004) 60600 35200 36600 40100 42600 52600 73700 77900 86500 123000
2020-10-08 12:00 11.87 48000 187000 (2020) 33100 (2004) 60600 35200 36600 40100 42600 52600 73700 77900 86500 123000
2020-10-08 11:00 11.83 47800 187000 (2020) 33100 (2004) 60600 35200 36600 40100 42600 52600 73700 77900 86500 123000
2020-10-08 10:00 11.81 47700 187000 (2020) 33100 (2004) 60600 35200 36600 40100 42600 52600 73700 77900 86500 123000
2020-10-08 09:00 11.83 47800 187000 (2020) 33100 (2004) 60600 35200 36600 40100 42600 52600 73700 77900 86500 123000
2020-10-08 08:00 11.88 48100 187000 (2020) 33100 (2004) 60600 35200 36600 40100 42600 52600 73700 77900 86500 123000
2020-10-08 07:00 11.89 48100 187000 (2020) 33100 (2004) 60600 35200 36600 40100 42600 52600 73700 77900 86500 123000
2020-10-08 06:00 11.89 48100 187000 (2020) 33100 (2004) 60600 35200 36600 40100 42600 52600 73700 77900 86500 123000
2020-10-08 05:00 11.89 48100 187000 (2020) 33100 (2004) 60600 35200 36600 40100 42600 52600 73700 77900 86500 123000
2020-10-08 04:00 11.89 48100 187000 (2020) 33100 (2004) 60600 35200 36600 40100 42600 52600 73700 77900 86500 123000
2020-10-08 03:00 11.88 48100 187000 (2020) 33100 (2004) 60600 35200 36600 40100 42600 52600 73700 77900 86500 123000
2020-10-08 02:00 11.88 48100 187000 (2020) 33100 (2004) 60600 35200 36600 40100 42600 52600 73700 77900 86500 123000
2020-10-08 01:00 11.87 48000 187000 (2020) 33100 (2004) 60600 35200 36600 40100 42600 52600 73700 77900 86500 123000
2020-10-08 00:00 11.88 48100 187000 (2020) 33100 (2004) 60600 35200 36600 40100 42600 52600 73700 77900 86500 123000
2020-10-07 23:00 11.88 48100 186000 (2020) 33700 (2004) 59700 35700 36700 39400 41300 50800 68500 73700 90700 124000
2020-10-07 22:00 11.88 48100 186000 (2020) 33700 (2004) 59700 35700 36700 39400 41300 50800 68500 73700 90700 124000
2020-10-07 21:00 11.88 48100 186000 (2020) 33700 (2004) 59700 35700 36700 39400 41300 50800 68500 73700 90700 124000
2020-10-07 20:00 11.89 48100 186000 (2020) 33700 (2004) 59700 35700 36700 39400 41300 50800 68500 73700 90700 124000
2020-10-07 19:00 11.88 48100 186000 (2020) 33700 (2004) 59700 35700 36700 39400 41300 50800 68500 73700 90700 124000
2020-10-07 18:00 11.88 48100 186000 (2020) 33700 (2004) 59700 35700 36700 39400 41300 50800 68500 73700 90700 124000
2020-10-07 17:00 11.85 47900 186000 (2020) 33700 (2004) 59700 35700 36700 39400 41300 50800 68500 73700 90700 124000
2020-10-07 16:00 11.88 48100 186000 (2020) 33700 (2004) 59700 35700 36700 39400 41300 50800 68500 73700 90700 124000
2020-10-07 15:00 11.88 48100 186000 (2020) 33700 (2004) 59700 35700 36700 39400 41300 50800 68500 73700 90700 124000
2020-10-07 14:00 11.86 48000 186000 (2020) 33700 (2004) 59700 35700 36700 39400 41300 50800 68500 73700 90700 124000
2020-10-07 13:00 11.87 48000 186000 (2020) 33700 (2004) 59700 35700 36700 39400 41300 50800 68500 73700 90700 124000
2020-10-07 12:00 11.87 48000 186000 (2020) 33700 (2004) 59700 35700 36700 39400 41300 50800 68500 73700 90700 124000
2020-10-07 11:00 11.87 48000 186000 (2020) 33700 (2004) 59700 35700 36700 39400 41300 50800 68500 73700 90700 124000
2020-10-07 10:00 11.86 48000 186000 (2020) 33700 (2004) 59700 35700 36700 39400 41300 50800 68500 73700 90700 124000
2020-10-07 09:00 11.86 48000 186000 (2020) 33700 (2004) 59700 35700 36700 39400 41300 50800 68500 73700 90700 124000
2020-10-07 08:00 11.86 48000 186000 (2020) 33700 (2004) 59700 35700 36700 39400 41300 50800 68500 73700 90700 124000
2020-10-07 07:00 11.87 48000 186000 (2020) 33700 (2004) 59700 35700 36700 39400 41300 50800 68500 73700 90700 124000
2020-10-07 06:00 11.87 48000 186000 (2020) 33700 (2004) 59700 35700 36700 39400 41300 50800 68500 73700 90700 124000
2020-10-07 05:00 11.87 48000 186000 (2020) 33700 (2004) 59700 35700 36700 39400 41300 50800 68500 73700 90700 124000
2020-10-07 04:00 11.87 48000 186000 (2020) 33700 (2004) 59700 35700 36700 39400 41300 50800 68500 73700 90700 124000
2020-10-07 03:00 11.86 48000 186000 (2020) 33700 (2004) 59700 35700 36700 39400 41300 50800 68500 73700 90700 124000
2020-10-07 02:00 11.86 48000 186000 (2020) 33700 (2004) 59700 35700 36700 39400 41300 50800 68500 73700 90700 124000
2020-10-07 01:00 11.85 47900 186000 (2020) 33700 (2004) 59700 35700 36700 39400 41300 50800 68500 73700 90700 124000
2020-10-07 00:00 11.85 47900 186000 (2020) 33700 (2004) 59700 35700 36700 39400 41300 50800 68500 73700 90700 124000
2020-10-06 23:00 11.84 47900 206000 (1999) 33800 (1958) 61100 35800 37100 39200 41100 52400 69500 72900 98300 134000
2020-10-06 22:00 11.84 47900 206000 (1999) 33800 (1958) 61100 35800 37100 39200 41100 52400 69500 72900 98300 134000
2020-10-06 21:00 11.84 47900 206000 (1999) 33800 (1958) 61100 35800 37100 39200 41100 52400 69500 72900 98300 134000
2020-10-06 20:00 11.84 47900 206000 (1999) 33800 (1958) 61100 35800 37100 39200 41100 52400 69500 72900 98300 134000
2020-10-06 19:00 11.84 47900 206000 (1999) 33800 (1958) 61100 35800 37100 39200 41100 52400 69500 72900 98300 134000
2020-10-06 18:00 11.84 47900 206000 (1999) 33800 (1958) 61100 35800 37100 39200 41100 52400 69500 72900 98300 134000
2020-10-06 17:00 11.85 47900 206000 (1999) 33800 (1958) 61100 35800 37100 39200 41100 52400 69500 72900 98300 134000
2020-10-06 16:00 11.84 47900 206000 (1999) 33800 (1958) 61100 35800 37100 39200 41100 52400 69500 72900 98300 134000
2020-10-06 15:00 11.85 47900 206000 (1999) 33800 (1958) 61100 35800 37100 39200 41100 52400 69500 72900 98300 134000
2020-10-06 14:00 11.85 47900 206000 (1999) 33800 (1958) 61100 35800 37100 39200 41100 52400 69500 72900 98300 134000
2020-10-06 13:00 11.85 47900 206000 (1999) 33800 (1958) 61100 35800 37100 39200 41100 52400 69500 72900 98300 134000
2020-10-06 12:00 11.85 47900 206000 (1999) 33800 (1958) 61100 35800 37100 39200 41100 52400 69500 72900 98300 134000
2020-10-06 11:00 11.84 47900 206000 (1999) 33800 (1958) 61100 35800 37100 39200 41100 52400 69500 72900 98300 134000
2020-10-06 10:00 11.84 47900 206000 (1999) 33800 (1958) 61100 35800 37100 39200 41100 52400 69500 72900 98300 134000
2020-10-06 09:00 11.84 47900 206000 (1999) 33800 (1958) 61100 35800 37100 39200 41100 52400 69500 72900 98300 134000
2020-10-06 08:00 11.85 47900 206000 (1999) 33800 (1958) 61100 35800 37100 39200 41100 52400 69500 72900 98300 134000
2020-10-06 07:00 11.86 48000 206000 (1999) 33800 (1958) 61100 35800 37100 39200 41100 52400 69500 72900 98300 134000
2020-10-06 06:00 11.86 48000 206000 (1999) 33800 (1958) 61100 35800 37100 39200 41100 52400 69500 72900 98300 134000
2020-10-06 05:00 11.86 48000 206000 (1999) 33800 (1958) 61100 35800 37100 39200 41100 52400 69500 72900 98300 134000
2020-10-06 04:00 11.86 48000 206000 (1999) 33800 (1958) 61100 35800 37100 39200 41100 52400 69500 72900 98300 134000
2020-10-06 03:00 11.86 48000 206000 (1999) 33800 (1958) 61100 35800 37100 39200 41100 52400 69500 72900 98300 134000
2020-10-06 02:00 11.85 47900 206000 (1999) 33800 (1958) 61100 35800 37100 39200 41100 52400 69500 72900 98300 134000
2020-10-06 01:00 11.85 47900 206000 (1999) 33800 (1958) 61100 35800 37100 39200 41100 52400 69500 72900 98300 134000
2020-10-06 00:00 11.84 47900 206000 (1999) 33800 (1958) 61100 35800 37100 39200 41100 52400 69500 72900 98300 134000
2020-10-05 23:00 11.84 47900 191000 (2020) 33500 (2004) 61200 36100 37100 39200 40000 50400 71400 75200 106000 147000
2020-10-05 22:00 11.84 47900 191000 (2020) 33500 (2004) 61200 36100 37100 39200 40000 50400 71400 75200 106000 147000
2020-10-05 21:00 11.84 47900 191000 (2020) 33500 (2004) 61200 36100 37100 39200 40000 50400 71400 75200 106000 147000
2020-10-05 20:00 11.83 47800 191000 (2020) 33500 (2004) 61200 36100 37100 39200 40000 50400 71400 75200 106000 147000
2020-10-05 19:00 11.83 47800 191000 (2020) 33500 (2004) 61200 36100 37100 39200 40000 50400 71400 75200 106000 147000
2020-10-05 18:00 11.82 47800 191000 (2020) 33500 (2004) 61200 36100 37100 39200 40000 50400 71400 75200 106000 147000
2020-10-05 17:00 11.79 47600 191000 (2020) 33500 (2004) 61200 36100 37100 39200 40000 50400 71400 75200 106000 147000
2020-10-05 16:00 11.79 47600 191000 (2020) 33500 (2004) 61200 36100 37100 39200 40000 50400 71400 75200 106000 147000
2020-10-05 15:00 11.81 47700 191000 (2020) 33500 (2004) 61200 36100 37100 39200 40000 50400 71400 75200 106000 147000
2020-10-05 14:00 11.79 47600 191000 (2020) 33500 (2004) 61200 36100 37100 39200 40000 50400 71400 75200 106000 147000
2020-10-05 13:00 11.76 47500 191000 (2020) 33500 (2004) 61200 36100 37100 39200 40000 50400 71400 75200 106000 147000
2020-10-05 12:00 11.73 47300 191000 (2020) 33500 (2004) 61200 36100 37100 39200 40000 50400 71400 75200 106000 147000
2020-10-05 11:00 11.75 47400 191000 (2020) 33500 (2004) 61200 36100 37100 39200 40000 50400 71400 75200 106000 147000
2020-10-05 10:00 11.74 47400 191000 (2020) 33500 (2004) 61200 36100 37100 39200 40000 50400 71400 75200 106000 147000
2020-10-05 09:00 11.72 47300 191000 (2020) 33500 (2004) 61200 36100 37100 39200 40000 50400 71400 75200 106000 147000
2020-10-05 08:00 11.73 47300 191000 (2020) 33500 (2004) 61200 36100 37100 39200 40000 50400 71400 75200 106000 147000
2020-10-05 07:00 11.72 47300 191000 (2020) 33500 (2004) 61200 36100 37100 39200 40000 50400 71400 75200 106000 147000
2020-10-05 06:00 11.70 47200 191000 (2020) 33500 (2004) 61200 36100 37100 39200 40000 50400 71400 75200 106000 147000
2020-10-05 05:00 11.70 47200 191000 (2020) 33500 (2004) 61200 36100 37100 39200 40000 50400 71400 75200 106000 147000
2020-10-05 04:00 11.67 47000 191000 (2020) 33500 (2004) 61200 36100 37100 39200 40000 50400 71400 75200 106000 147000
2020-10-05 03:00 11.65 46900 191000 (2020) 33500 (2004) 61200 36100 37100 39200 40000 50400 71400 75200 106000 147000
2020-10-05 02:00 11.65 46900 191000 (2020) 33500 (2004) 61200 36100 37100 39200 40000 50400 71400 75200 106000 147000
2020-10-05 01:00 11.63 46800 191000 (2020) 33500 (2004) 61200 36100 37100 39200 40000 50400 71400 75200 106000 147000
2020-10-05 00:00 11.62 46700 191000 (2020) 33500 (2004) 61200 36100 37100 39200 40000 50400 71400 75200 106000 147000
2020-10-04 23:00 11.60 46600 186000 (2020) 33600 (2004) 60800 36500 37700 38800 39900 49400 68300 77100 105000 134000
2020-10-04 22:00 11.59 46600 186000 (2020) 33600 (2004) 60800 36500 37700 38800 39900 49400 68300 77100 105000 134000
2020-10-04 21:00 11.58 46500 186000 (2020) 33600 (2004) 60800 36500 37700 38800 39900 49400 68300 77100 105000 134000
2020-10-04 20:00 11.55 46400 186000 (2020) 33600 (2004) 60800 36500 37700 38800 39900 49400 68300 77100 105000 134000
2020-10-04 19:00 11.54 46300 186000 (2020) 33600 (2004) 60800 36500 37700 38800 39900 49400 68300 77100 105000 134000
2020-10-04 18:00 11.51 46200 186000 (2020) 33600 (2004) 60800 36500 37700 38800 39900 49400 68300 77100 105000 134000
2020-10-04 17:00 11.43 45800 186000 (2020) 33600 (2004) 60800 36500 37700 38800 39900 49400 68300 77100 105000 134000
2020-10-04 16:00 11.51 46200 186000 (2020) 33600 (2004) 60800 36500 37700 38800 39900 49400 68300 77100 105000 134000
2020-10-04 15:00 11.49 46100 186000 (2020) 33600 (2004) 60800 36500 37700 38800 39900 49400 68300 77100 105000 134000
2020-10-04 14:00 11.48 46000 186000 (2020) 33600 (2004) 60800 36500 37700 38800 39900 49400 68300 77100 105000 134000
2020-10-04 13:00 11.46 45900 186000 (2020) 33600 (2004) 60800 36500 37700 38800 39900 49400 68300 77100 105000 134000
2020-10-04 12:00 11.47 46000 186000 (2020) 33600 (2004) 60800 36500 37700 38800 39900 49400 68300 77100 105000 134000
2020-10-04 11:00 11.47 46000 186000 (2020) 33600 (2004) 60800 36500 37700 38800 39900 49400 68300 77100 105000 134000
2020-10-04 10:00 11.44 45800 186000 (2020) 33600 (2004) 60800 36500 37700 38800 39900 49400 68300 77100 105000 134000
2020-10-04 09:00 11.45 45900 186000 (2020) 33600 (2004) 60800 36500 37700 38800 39900 49400 68300 77100 105000 134000
2020-10-04 08:00 11.45 45900 186000 (2020) 33600 (2004) 60800 36500 37700 38800 39900 49400 68300 77100 105000 134000
2020-10-04 07:00 11.47 46000 186000 (2020) 33600 (2004) 60800 36500 37700 38800 39900 49400 68300 77100 105000 134000
2020-10-04 06:00 11.46 45900 186000 (2020) 33600 (2004) 60800 36500 37700 38800 39900 49400 68300 77100 105000 134000
2020-10-04 05:00 11.46 45900 186000 (2020) 33600 (2004) 60800 36500 37700 38800 39900 49400 68300 77100 105000 134000
2020-10-04 04:00 11.46 45900 186000 (2020) 33600 (2004) 60800 36500 37700 38800 39900 49400 68300 77100 105000 134000
2020-10-04 03:00 11.46 45900 186000 (2020) 33600 (2004) 60800 36500 37700 38800 39900 49400 68300 77100 105000 134000
2020-10-04 02:00 11.46 45900 186000 (2020) 33600 (2004) 60800 36500 37700 38800 39900 49400 68300 77100 105000 134000
2020-10-04 01:00 11.46 45900 186000 (2020) 33600 (2004) 60800 36500 37700 38800 39900 49400 68300 77100 105000 134000
2020-10-04 00:00 11.45 45900 186000 (2020) 33600 (2004) 60800 36500 37700 38800 39900 49400 68300 77100 105000 134000
2020-10-03 23:00 11.45 45900 181000 (2020) 33900 (2004) 61000 35400 36800 39100 40300 48700 67000 79000 104000 135000
2020-10-03 21:00 11.46 45900 181000 (2020) 33900 (2004) 61000 35400 36800 39100 40300 48700 67000 79000 104000 135000
2020-10-03 20:00 11.44 45800 181000 (2020) 33900 (2004) 61000 35400 36800 39100 40300 48700 67000 79000 104000 135000
2020-10-03 19:00 11.45 45900 181000 (2020) 33900 (2004) 61000 35400 36800 39100 40300 48700 67000 79000 104000 135000
2020-10-03 18:00 11.45 45900 181000 (2020) 33900 (2004) 61000 35400 36800 39100 40300 48700 67000 79000 104000 135000
2020-10-03 17:00 11.45 45900 181000 (2020) 33900 (2004) 61000 35400 36800 39100 40300 48700 67000 79000 104000 135000
2020-10-03 16:00 11.48 46000 181000 (2020) 33900 (2004) 61000 35400 36800 39100 40300 48700 67000 79000 104000 135000
2020-10-03 15:00 11.47 46000 181000 (2020) 33900 (2004) 61000 35400 36800 39100 40300 48700 67000 79000 104000 135000
2020-10-03 14:00 11.49 46100 181000 (2020) 33900 (2004) 61000 35400 36800 39100 40300 48700 67000 79000 104000 135000
2020-10-03 13:00 11.46 45900 181000 (2020) 33900 (2004) 61000 35400 36800 39100 40300 48700 67000 79000 104000 135000
2020-10-03 12:00 11.38 45500 181000 (2020) 33900 (2004) 61000 35400 36800 39100 40300 48700 67000 79000 104000 135000
2020-10-03 11:00 11.42 45700 181000 (2020) 33900 (2004) 61000 35400 36800 39100 40300 48700 67000 79000 104000 135000
2020-10-03 10:00 11.44 45800 181000 (2020) 33900 (2004) 61000 35400 36800 39100 40300 48700 67000 79000 104000 135000
2020-10-03 09:00 11.42 45700 181000 (2020) 33900 (2004) 61000 35400 36800 39100 40300 48700 67000 79000 104000 135000
2020-10-03 08:00 11.45 45900 181000 (2020) 33900 (2004) 61000 35400 36800 39100 40300 48700 67000 79000 104000 135000
2020-10-03 07:00 11.39 45600 181000 (2020) 33900 (2004) 61000 35400 36800 39100 40300 48700 67000 79000 104000 135000
2020-10-03 06:00 11.37 45500 181000 (2020) 33900 (2004) 61000 35400 36800 39100 40300 48700 67000 79000 104000 135000
2020-10-03 05:00 11.49 46100 181000 (2020) 33900 (2004) 61000 35400 36800 39100 40300 48700 67000 79000 104000 135000
2020-10-03 04:00 11.50 46100 181000 (2020) 33900 (2004) 61000 35400 36800 39100 40300 48700 67000 79000 104000 135000
2020-10-03 03:00 11.50 46100 181000 (2020) 33900 (2004) 61000 35400 36800 39100 40300 48700 67000 79000 104000 135000
2020-10-03 02:00 11.50 46100 181000 (2020) 33900 (2004) 61000 35400 36800 39100 40300 48700 67000 79000 104000 135000
2020-10-03 01:00 11.50 46100 181000 (2020) 33900 (2004) 61000 35400 36800 39100 40300 48700 67000 79000 104000 135000
2020-10-03 00:00 11.42 45700 181000 (2020) 33900 (2004) 61000 35400 36800 39100 40300 48700 67000 79000 104000 135000
2020-10-02 23:00 11.50 46100 177000 (2020) 33800 (1958) 60300 34200 36900 39300 39900 48800 66400 79300 103000 145000
2020-10-02 22:00 11.48 46000 177000 (2020) 33800 (1958) 60300 34200 36900 39300 39900 48800 66400 79300 103000 145000
2020-10-02 21:00 11.52 46200 177000 (2020) 33800 (1958) 60300 34200 36900 39300 39900 48800 66400 79300 103000 145000
2020-10-02 20:00 11.53 46300 177000 (2020) 33800 (1958) 60300 34200 36900 39300 39900 48800 66400 79300 103000 145000
2020-10-02 19:00 11.53 46300 177000 (2020) 33800 (1958) 60300 34200 36900 39300 39900 48800 66400 79300 103000 145000
2020-10-02 18:00 11.54 46300 177000 (2020) 33800 (1958) 60300 34200 36900 39300 39900 48800 66400 79300 103000 145000
2020-10-02 17:00 11.54 46300 177000 (2020) 33800 (1958) 60300 34200 36900 39300 39900 48800 66400 79300 103000 145000
2020-10-02 16:00 11.55 46400 177000 (2020) 33800 (1958) 60300 34200 36900 39300 39900 48800 66400 79300 103000 145000
2020-10-02 15:00 11.48 46000 177000 (2020) 33800 (1958) 60300 34200 36900 39300 39900 48800 66400 79300 103000 145000
2020-10-02 14:00 11.55 46400 177000 (2020) 33800 (1958) 60300 34200 36900 39300 39900 48800 66400 79300 103000 145000
2020-10-02 13:00 11.54 46300 177000 (2020) 33800 (1958) 60300 34200 36900 39300 39900 48800 66400 79300 103000 145000
2020-10-02 12:00 11.52 46200 177000 (2020) 33800 (1958) 60300 34200 36900 39300 39900 48800 66400 79300 103000 145000
2020-10-02 11:00 11.56 46400 177000 (2020) 33800 (1958) 60300 34200 36900 39300 39900 48800 66400 79300 103000 145000
2020-10-02 10:00 11.57 46500 177000 (2020) 33800 (1958) 60300 34200 36900 39300 39900 48800 66400 79300 103000 145000
2020-10-02 09:00 11.55 46400 177000 (2020) 33800 (1958) 60300 34200 36900 39300 39900 48800 66400 79300 103000 145000
2020-10-02 08:00 11.57 46500 177000 (2020) 33800 (1958) 60300 34200 36900 39300 39900 48800 66400 79300 103000 145000
2020-10-02 07:00 11.58 46500 177000 (2020) 33800 (1958) 60300 34200 36900 39300 39900 48800 66400 79300 103000 145000
2020-10-02 06:00 11.58 46500 177000 (2020) 33800 (1958) 60300 34200 36900 39300 39900 48800 66400 79300 103000 145000
2020-10-02 05:00 11.57 46500 177000 (2020) 33800 (1958) 60300 34200 36900 39300 39900 48800 66400 79300 103000 145000
2020-10-02 04:00 11.58 46500 177000 (2020) 33800 (1958) 60300 34200 36900 39300 39900 48800 66400 79300 103000 145000
2020-10-02 03:00 11.58 46500 177000 (2020) 33800 (1958) 60300 34200 36900 39300 39900 48800 66400 79300 103000 145000
2020-10-02 02:00 11.59 46600 177000 (2020) 33800 (1958) 60300 34200 36900 39300 39900 48800 66400 79300 103000 145000
2020-10-02 01:00 11.58 46500 177000 (2020) 33800 (1958) 60300 34200 36900 39300 39900 48800 66400 79300 103000 145000
2020-10-02 00:00 11.59 46600 177000 (2020) 33800 (1958) 60300 34200 36900 39300 39900 48800 66400 79300 103000 145000
2020-10-01 23:00 11.57 46500 201000 (1974) 33200 (1958) 61500 34100 36700 39100 40300 48600 67400 69700 110000 160000
2020-10-01 22:00 11.57 46500 201000 (1974) 33200 (1958) 61500 34100 36700 39100 40300 48600 67400 69700 110000 160000
2020-10-01 21:00 11.56 46400 201000 (1974) 33200 (1958) 61500 34100 36700 39100 40300 48600 67400 69700 110000 160000
2020-10-01 20:00 11.55 46400 201000 (1974) 33200 (1958) 61500 34100 36700 39100 40300 48600 67400 69700 110000 160000
2020-10-01 19:00 11.54 46300 201000 (1974) 33200 (1958) 61500 34100 36700 39100 40300 48600 67400 69700 110000 160000
2020-10-01 18:00 11.54 46300 201000 (1974) 33200 (1958) 61500 34100 36700 39100 40300 48600 67400 69700 110000 160000
2020-10-01 17:00 11.55 46400 201000 (1974) 33200 (1958) 61500 34100 36700 39100 40300 48600 67400 69700 110000 160000
2020-10-01 16:00 11.51 46200 201000 (1974) 33200 (1958) 61500 34100 36700 39100 40300 48600 67400 69700 110000 160000
2020-10-01 15:00 11.58 46500 201000 (1974) 33200 (1958) 61500 34100 36700 39100 40300 48600 67400 69700 110000 160000
2020-10-01 14:00 11.54 46300 201000 (1974) 33200 (1958) 61500 34100 36700 39100 40300 48600 67400 69700 110000 160000
2020-10-01 13:00 11.56 46400 201000 (1974) 33200 (1958) 61500 34100 36700 39100 40300 48600 67400 69700 110000 160000
2020-10-01 12:00 11.57 46500 201000 (1974) 33200 (1958) 61500 34100 36700 39100 40300 48600 67400 69700 110000 160000
2020-10-01 11:00 11.55 46400 201000 (1974) 33200 (1958) 61500 34100 36700 39100 40300 48600 67400 69700 110000 160000
2020-10-01 10:00 11.54 46300 201000 (1974) 33200 (1958) 61500 34100 36700 39100 40300 48600 67400 69700 110000 160000
2020-10-01 09:00 11.48 46000 201000 (1974) 33200 (1958) 61500 34100 36700 39100 40300 48600 67400 69700 110000 160000
2020-10-01 08:00 11.61 46700 201000 (1974) 33200 (1958) 61500 34100 36700 39100 40300 48600 67400 69700 110000 160000
2020-10-01 07:00 11.59 45300 201000 (1974) 33200 (1958) 61500 34100 36700 39100 40300 48600 67400 69700 110000 160000
2020-10-01 06:00 11.59 45300 201000 (1974) 33200 (1958) 61500 34100 36700 39100 40300 48600 67400 69700 110000 160000
2020-10-01 05:00 11.54 45100 201000 (1974) 33200 (1958) 61500 34100 36700 39100 40300 48600 67400 69700 110000 160000
2020-10-01 04:00 11.59 45300 201000 (1974) 33200 (1958) 61500 34100 36700 39100 40300 48600 67400 69700 110000 160000
2020-10-01 03:00 11.60 45400 201000 (1974) 33200 (1958) 61500 34100 36700 39100 40300 48600 67400 69700 110000 160000
2020-10-01 02:00 11.60 45400 201000 (1974) 33200 (1958) 61500 34100 36700 39100 40300 48600 67400 69700 110000 160000
2020-10-01 01:00 11.61 45400 201000 (1974) 33200 (1958) 61500 34100 36700 39100 40300 48600 67400 69700 110000 160000
2020-10-01 00:00 11.61 45400 201000 (1974) 33200 (1958) 61500 34100 36700 39100 40300 48600 67400 69700 110000 160000
2020-09-30 23:00 11.62 45500 230000 (1973) 33500 (2003) 62100 34300 36700 39400 40600 48200 67400 69800 113000 143000
2020-09-30 22:00 11.62 45500 230000 (1973) 33500 (2003) 62100 34300 36700 39400 40600 48200 67400 69800 113000 143000
2020-09-30 21:00 11.62 45500 230000 (1973) 33500 (2003) 62100 34300 36700 39400 40600 48200 67400 69800 113000 143000
2020-09-30 20:00 11.61 45400 230000 (1973) 33500 (2003) 62100 34300 36700 39400 40600 48200 67400 69800 113000 143000
2020-09-30 19:00 11.61 45400 230000 (1973) 33500 (2003) 62100 34300 36700 39400 40600 48200 67400 69800 113000 143000
2020-09-30 18:00 11.61 45400 230000 (1973) 33500 (2003) 62100 34300 36700 39400 40600 48200 67400 69800 113000 143000
2020-09-30 17:00 11.62 45500 230000 (1973) 33500 (2003) 62100 34300 36700 39400 40600 48200 67400 69800 113000 143000
2020-09-30 16:00 11.53 45000 230000 (1973) 33500 (2003) 62100 34300 36700 39400 40600 48200 67400 69800 113000 143000
2020-09-30 15:00 11.61 45400 230000 (1973) 33500 (2003) 62100 34300 36700 39400 40600 48200 67400 69800 113000 143000
2020-09-30 14:00 11.60 45400 230000 (1973) 33500 (2003) 62100 34300 36700 39400 40600 48200 67400 69800 113000 143000
2020-09-30 13:00 11.58 45300 230000 (1973) 33500 (2003) 62100 34300 36700 39400 40600 48200 67400 69800 113000 143000
2020-09-30 12:00 11.57 45200 230000 (1973) 33500 (2003) 62100 34300 36700 39400 40600 48200 67400 69800 113000 143000
2020-09-30 11:00 11.61 45400 230000 (1973) 33500 (2003) 62100 34300 36700 39400 40600 48200 67400 69800 113000 143000
2020-09-30 10:00 11.53 45000 230000 (1973) 33500 (2003) 62100 34300 36700 39400 40600 48200 67400 69800 113000 143000
2020-09-30 09:00 11.65 45600 230000 (1973) 33500 (2003) 62100 34300 36700 39400 40600 48200 67400 69800 113000 143000
2020-09-30 08:00 11.67 45700 230000 (1973) 33500 (2003) 62100 34300 36700 39400 40600 48200 67400 69800 113000 143000
2020-09-30 07:00 11.67 45700 230000 (1973) 33500 (2003) 62100 34300 36700 39400 40600 48200 67400 69800 113000 143000
2020-09-30 06:00 11.67 45700 230000 (1973) 33500 (2003) 62100 34300 36700 39400 40600 48200 67400 69800 113000 143000
2020-09-30 05:00 11.68 45800 230000 (1973) 33500 (2003) 62100 34300 36700 39400 40600 48200 67400 69800 113000 143000
2020-09-30 04:00 11.69 45800 230000 (1973) 33500 (2003) 62100 34300 36700 39400 40600 48200 67400 69800 113000 143000
2020-09-30 03:00 11.69 45800 230000 (1973) 33500 (2003) 62100 34300 36700 39400 40600 48200 67400 69800 113000 143000
2020-09-30 02:00 11.71 45900 230000 (1973) 33500 (2003) 62100 34300 36700 39400 40600 48200 67400 69800 113000 143000
2020-09-30 01:00 11.71 45900 230000 (1973) 33500 (2003) 62100 34300 36700 39400 40600 48200 67400 69800 113000 143000
2020-09-30 00:00 11.72 46000 230000 (1973) 33500 (2003) 62100 34300 36700 39400 40600 48200 67400 69800 113000 143000
2020-09-29 23:00 11.60 45400 239000 (1973) 33000 (2002) 62100 34500 36500 40200 41500 49600 69600 74300 108000 134000
2020-09-29 22:00 11.74 46100 239000 (1973) 33000 (2002) 62100 34500 36500 40200 41500 49600 69600 74300 108000 134000
2020-09-29 21:00 11.75 46100 239000 (1973) 33000 (2002) 62100 34500 36500 40200 41500 49600 69600 74300 108000 134000
2020-09-29 20:00 11.77 46200 239000 (1973) 33000 (2002) 62100 34500 36500 40200 41500 49600 69600 74300 108000 134000
2020-09-29 19:00 11.78 46300 239000 (1973) 33000 (2002) 62100 34500 36500 40200 41500 49600 69600 74300 108000 134000
2020-09-29 18:00 11.79 46300 239000 (1973) 33000 (2002) 62100 34500 36500 40200 41500 49600 69600 74300 108000 134000
2020-09-29 17:00 11.78 46300 239000 (1973) 33000 (2002) 62100 34500 36500 40200 41500 49600 69600 74300 108000 134000
2020-09-29 16:00 11.66 45700 239000 (1973) 33000 (2002) 62100 34500 36500 40200 41500 49600 69600 74300 108000 134000
2020-09-29 15:00 11.77 46200 239000 (1973) 33000 (2002) 62100 34500 36500 40200 41500 49600 69600 74300 108000 134000
2020-09-29 14:00 11.77 46200 239000 (1973) 33000 (2002) 62100 34500 36500 40200 41500 49600 69600 74300 108000 134000
2020-09-29 13:00 11.80 46400 239000 (1973) 33000 (2002) 62100 34500 36500 40200 41500 49600 69600 74300 108000 134000
2020-09-29 12:00 11.76 46200 239000 (1973) 33000 (2002) 62100 34500 36500 40200 41500 49600 69600 74300 108000 134000
2020-09-29 11:00 11.82 46500 239000 (1973) 33000 (2002) 62100 34500 36500 40200 41500 49600 69600 74300 108000 134000
2020-09-29 10:00 11.87 46700 239000 (1973) 33000 (2002) 62100 34500 36500 40200 41500 49600 69600 74300 108000 134000
2020-09-29 09:00 11.88 46800 239000 (1973) 33000 (2002) 62100 34500 36500 40200 41500 49600 69600 74300 108000 134000
2020-09-29 08:00 11.90 46900 239000 (1973) 33000 (2002) 62100 34500 36500 40200 41500 49600 69600 74300 108000 134000
2020-09-29 07:00 11.92 47000 239000 (1973) 33000 (2002) 62100 34500 36500 40200 41500 49600 69600 74300 108000 134000
2020-09-29 06:00 11.92 47000 239000 (1973) 33000 (2002) 62100 34500 36500 40200 41500 49600 69600 74300 108000 134000
2020-09-29 05:00 11.92 47000 239000 (1973) 33000 (2002) 62100 34500 36500 40200 41500 49600 69600 74300 108000 134000
2020-09-29 04:00 11.92 47000 239000 (1973) 33000 (2002) 62100 34500 36500 40200 41500 49600 69600 74300 108000 134000
2020-09-29 03:00 11.92 47000 239000 (1973) 33000 (2002) 62100 34500 36500 40200 41500 49600 69600 74300 108000 134000
2020-09-29 02:00 11.93 47000 239000 (1973) 33000 (2002) 62100 34500 36500 40200 41500 49600 69600 74300 108000 134000
2020-09-29 01:00 11.93 47000 239000 (1973) 33000 (2002) 62100 34500 36500 40200 41500 49600 69600 74300 108000 134000
2020-09-29 00:00 11.92 47000 239000 (1973) 33000 (2002) 62100 34500 36500 40200 41500 49600 69600 74300 108000 134000
2020-09-28 23:00 11.92 47000 203000 (1973) 33100 (2002) 62900 34400 38400 40400 41800 52100 71200 74900 114000 144000
2020-09-28 22:00 11.91 46900 203000 (1973) 33100 (2002) 62900 34400 38400 40400 41800 52100 71200 74900 114000 144000
2020-09-28 21:00 11.89 46800 203000 (1973) 33100 (2002) 62900 34400 38400 40400 41800 52100 71200 74900 114000 144000
2020-09-28 20:00 11.87 46700 203000 (1973) 33100 (2002) 62900 34400 38400 40400 41800 52100 71200 74900 114000 144000
2020-09-28 19:00 11.84 46600 203000 (1973) 33100 (2002) 62900 34400 38400 40400 41800 52100 71200 74900 114000 144000
2020-09-28 18:00 11.84 46600 203000 (1973) 33100 (2002) 62900 34400 38400 40400 41800 52100 71200 74900 114000 144000
2020-09-28 17:00 11.72 46000 203000 (1973) 33100 (2002) 62900 34400 38400 40400 41800 52100 71200 74900 114000 144000
2020-09-28 16:00 11.67 45700 203000 (1973) 33100 (2002) 62900 34400 38400 40400 41800 52100 71200 74900 114000 144000
2020-09-28 15:00 11.65 45600 203000 (1973) 33100 (2002) 62900 34400 38400 40400 41800 52100 71200 74900 114000 144000
2020-09-28 14:00 11.60 45400 203000 (1973) 33100 (2002) 62900 34400 38400 40400 41800 52100 71200 74900 114000 144000
2020-09-28 13:00 11.61 45400 203000 (1973) 33100 (2002) 62900 34400 38400 40400 41800 52100 71200 74900 114000 144000
2020-09-28 12:00 11.59 45300 203000 (1973) 33100 (2002) 62900 34400 38400 40400 41800 52100 71200 74900 114000 144000
2020-09-28 11:00 11.62 45500 203000 (1973) 33100 (2002) 62900 34400 38400 40400 41800 52100 71200 74900 114000 144000
2020-09-28 10:00 11.65 45600 203000 (1973) 33100 (2002) 62900 34400 38400 40400 41800 52100 71200 74900 114000 144000
2020-09-28 09:00 11.65 45600 203000 (1973) 33100 (2002) 62900 34400 38400 40400 41800 52100 71200 74900 114000 144000
2020-09-28 08:00 11.64 45600 203000 (1973) 33100 (2002) 62900 34400 38400 40400 41800 52100 71200 74900 114000 144000
2020-09-28 07:00 11.63 45500 203000 (1973) 33100 (2002) 62900 34400 38400 40400 41800 52100 71200 74900 114000 144000
2020-09-28 06:00 11.63 45500 203000 (1973) 33100 (2002) 62900 34400 38400 40400 41800 52100 71200 74900 114000 144000
2020-09-28 05:00 11.61 45400 203000 (1973) 33100 (2002) 62900 34400 38400 40400 41800 52100 71200 74900 114000 144000
2020-09-28 04:00 11.61 45400 203000 (1973) 33100 (2002) 62900 34400 38400 40400 41800 52100 71200 74900 114000 144000
2020-09-28 03:00 11.61 45400 203000 (1973) 33100 (2002) 62900 34400 38400 40400 41800 52100 71200 74900 114000 144000
2020-09-28 02:00 11.60 45400 203000 (1973) 33100 (2002) 62900 34400 38400 40400 41800 52100 71200 74900 114000 144000
2020-09-28 01:00 11.61 45400 203000 (1973) 33100 (2002) 62900 34400 38400 40400 41800 52100 71200 74900 114000 144000
2020-09-28 00:00 11.61 45400 203000 (1973) 33100 (2002) 62900 34400 38400 40400 41800 52100 71200 74900 114000 144000
2020-09-27 23:00 11.61 45400 159000 (1993) 33400 (2002) 63600 35000 39000 41300 42600 54800 71400 79500 114000 149000
2020-09-27 22:00 11.60 45400 159000 (1993) 33400 (2002) 63600 35000 39000 41300 42600 54800 71400 79500 114000 149000
2020-09-27 21:00 11.57 45200 159000 (1993) 33400 (2002) 63600 35000 39000 41300 42600 54800 71400 79500 114000 149000
2020-09-27 20:00 11.58 45300 159000 (1993) 33400 (2002) 63600 35000 39000 41300 42600 54800 71400 79500 114000 149000
2020-09-27 19:00 11.56 45200 159000 (1993) 33400 (2002) 63600 35000 39000 41300 42600 54800 71400 79500 114000 149000
2020-09-27 18:00 11.56 45200 159000 (1993) 33400 (2002) 63600 35000 39000 41300 42600 54800 71400 79500 114000 149000
2020-09-27 17:00 11.56 45200 159000 (1993) 33400 (2002) 63600 35000 39000 41300 42600 54800 71400 79500 114000 149000
2020-09-27 16:00 11.54 45100 159000 (1993) 33400 (2002) 63600 35000 39000 41300 42600 54800 71400 79500 114000 149000
2020-09-27 15:00 11.57 45200 159000 (1993) 33400 (2002) 63600 35000 39000 41300 42600 54800 71400 79500 114000 149000
2020-09-27 14:00 11.45 44600 159000 (1993) 33400 (2002) 63600 35000 39000 41300 42600 54800 71400 79500 114000 149000
2020-09-27 13:00 11.48 44800 159000 (1993) 33400 (2002) 63600 35000 39000 41300 42600 54800 71400 79500 114000 149000
2020-09-27 12:00 11.56 45200 159000 (1993) 33400 (2002) 63600 35000 39000 41300 42600 54800 71400 79500 114000 149000
2020-09-27 11:00 11.55 45100 159000 (1993) 33400 (2002) 63600 35000 39000 41300 42600 54800 71400 79500 114000 149000
2020-09-27 10:00 11.57 45200 159000 (1993) 33400 (2002) 63600 35000 39000 41300 42600 54800 71400 79500 114000 149000
2020-09-27 09:00 11.58 45300 159000 (1993) 33400 (2002) 63600 35000 39000 41300 42600 54800 71400 79500 114000 149000
2020-09-27 08:00 11.57 45200 159000 (1993) 33400 (2002) 63600 35000 39000 41300 42600 54800 71400 79500 114000 149000
2020-09-27 07:00 11.58 45300 159000 (1993) 33400 (2002) 63600 35000 39000 41300 42600 54800 71400 79500 114000 149000
2020-09-27 06:00 11.58 45300 159000 (1993) 33400 (2002) 63600 35000 39000 41300 42600 54800 71400 79500 114000 149000
2020-09-27 05:00 11.57 45200 159000 (1993) 33400 (2002) 63600 35000 39000 41300 42600 54800 71400 79500 114000 149000
2020-09-27 04:00 11.59 45300 159000 (1993) 33400 (2002) 63600 35000 39000 41300 42600 54800 71400 79500 114000 149000
2020-09-27 03:00 11.58 45300 159000 (1993) 33400 (2002) 63600 35000 39000 41300 42600 54800 71400 79500 114000 149000
2020-09-27 02:00 11.57 45200 159000 (1993) 33400 (2002) 63600 35000 39000 41300 42600 54800 71400 79500 114000 149000
2020-09-27 01:00 11.56 45200 159000 (1993) 33400 (2002) 63600 35000 39000 41300 42600 54800 71400 79500 114000 149000
2020-09-27 00:00 11.58 45300 159000 (1993) 33400 (2002) 63600 35000 39000 41300 42600 54800 71400 79500 114000 149000
2020-09-26 23:00 11.58 45300 166000 (1993) 34000 (2002) 64000 35400 39200 41600 43100 58400 73900 80600 107000 133000
2020-09-26 22:00 11.56 45200 166000 (1993) 34000 (2002) 64000 35400 39200 41600 43100 58400 73900 80600 107000 133000
2020-09-26 21:00 11.56 45200 166000 (1993) 34000 (2002) 64000 35400 39200 41600 43100 58400 73900 80600 107000 133000
2020-09-26 20:00 11.57 45200 166000 (1993) 34000 (2002) 64000 35400 39200 41600 43100 58400 73900 80600 107000 133000
2020-09-26 19:00 11.57 45200 166000 (1993) 34000 (2002) 64000 35400 39200 41600 43100 58400 73900 80600 107000 133000
2020-09-26 18:00 11.57 45200 166000 (1993) 34000 (2002) 64000 35400 39200 41600 43100 58400 73900 80600 107000 133000
2020-09-26 17:00 11.46 44700 166000 (1993) 34000 (2002) 64000 35400 39200 41600 43100 58400 73900 80600 107000 133000
2020-09-26 16:00 11.56 45200 166000 (1993) 34000 (2002) 64000 35400 39200 41600 43100 58400 73900 80600 107000 133000
2020-09-26 15:00 11.45 44600 166000 (1993) 34000 (2002) 64000 35400 39200 41600 43100 58400 73900 80600 107000 133000
2020-09-26 14:00 11.55 45100 166000 (1993) 34000 (2002) 64000 35400 39200 41600 43100 58400 73900 80600 107000 133000
2020-09-26 13:00 11.50 44900 166000 (1993) 34000 (2002) 64000 35400 39200 41600 43100 58400 73900 80600 107000 133000
2020-09-26 12:00 11.54 45100 166000 (1993) 34000 (2002) 64000 35400 39200 41600 43100 58400 73900 80600 107000 133000
2020-09-26 11:00 11.49 44800 166000 (1993) 34000 (2002) 64000 35400 39200 41600 43100 58400 73900 80600 107000 133000
2020-09-26 10:00 11.52 45000 166000 (1993) 34000 (2002) 64000 35400 39200 41600 43100 58400 73900 80600 107000 133000
2020-09-26 09:00 11.50 44900 166000 (1993) 34000 (2002) 64000 35400 39200 41600 43100 58400 73900 80600 107000 133000
2020-09-26 08:00 11.54 45100 166000 (1993) 34000 (2002) 64000 35400 39200 41600 43100 58400 73900 80600 107000 133000
2020-09-26 07:00 11.54 45100 166000 (1993) 34000 (2002) 64000 35400 39200 41600 43100 58400 73900 80600 107000 133000
2020-09-26 06:00 11.54 45100 166000 (1993) 34000 (2002) 64000 35400 39200 41600 43100 58400 73900 80600 107000 133000
2020-09-26 05:00 11.54 45100 166000 (1993) 34000 (2002) 64000 35400 39200 41600 43100 58400 73900 80600 107000 133000
2020-09-26 04:00 11.54 45100 166000 (1993) 34000 (2002) 64000 35400 39200 41600 43100 58400 73900 80600 107000 133000
2020-09-26 03:00 11.55 45100 166000 (1993) 34000 (2002) 64000 35400 39200 41600 43100 58400 73900 80600 107000 133000
2020-09-26 02:00 11.55 45100 166000 (1993) 34000 (2002) 64000 35400 39200 41600 43100 58400 73900 80600 107000 133000
2020-09-26 01:00 11.55 45100 166000 (1993) 34000 (2002) 64000 35400 39200 41600 43100 58400 73900 80600 107000 133000
2020-09-26 00:00 11.55 45100 166000 (1993) 34000 (2002) 64000 35400 39200 41600 43100 58400 73900 80600 107000 133000
2020-09-25 23:00 11.55 45100 159000 (1993) 34800 (1991) 64700 36400 38100 41200 42300 55000 74400 85300 116000 135000
2020-09-25 22:00 11.56 45200 159000 (1993) 34800 (1991) 64700 36400 38100 41200 42300 55000 74400 85300 116000 135000
2020-09-25 21:00 11.56 45200 159000 (1993) 34800 (1991) 64700 36400 38100 41200 42300 55000 74400 85300 116000 135000
2020-09-25 20:00 11.57 45200 159000 (1993) 34800 (1991) 64700 36400 38100 41200 42300 55000 74400 85300 116000 135000
2020-09-25 19:00 11.55 45100 159000 (1993) 34800 (1991) 64700 36400 38100 41200 42300 55000 74400 85300 116000 135000
2020-09-25 18:00 11.57 45200 159000 (1993) 34800 (1991) 64700 36400 38100 41200 42300 55000 74400 85300 116000 135000
2020-09-25 17:00 11.56 45200 159000 (1993) 34800 (1991) 64700 36400 38100 41200 42300 55000 74400 85300 116000 135000
2020-09-25 16:00 11.54 45100 159000 (1993) 34800 (1991) 64700 36400 38100 41200 42300 55000 74400 85300 116000 135000
2020-09-25 15:00 11.53 45000 159000 (1993) 34800 (1991) 64700 36400 38100 41200 42300 55000 74400 85300 116000 135000
2020-09-25 14:00 11.58 45300 159000 (1993) 34800 (1991) 64700 36400 38100 41200 42300 55000 74400 85300 116000 135000
2020-09-25 13:00 11.58 45300 159000 (1993) 34800 (1991) 64700 36400 38100 41200 42300 55000 74400 85300 116000 135000
2020-09-25 12:00 11.58 45300 159000 (1993) 34800 (1991) 64700 36400 38100 41200 42300 55000 74400 85300 116000 135000
2020-09-25 11:00 11.59 45300 159000 (1993) 34800 (1991) 64700 36400 38100 41200 42300 55000 74400 85300 116000 135000
2020-09-25 10:00 11.60 45400 159000 (1993) 34800 (1991) 64700 36400 38100 41200 42300 55000 74400 85300 116000 135000
2020-09-25 09:00 11.61 45400 159000 (1993) 34800 (1991) 64700 36400 38100 41200 42300 55000 74400 85300 116000 135000
2020-09-25 08:00 11.61 45400 159000 (1993) 34800 (1991) 64700 36400 38100 41200 42300 55000 74400 85300 116000 135000
2020-09-25 07:00 11.62 45500 159000 (1993) 34800 (1991) 64700 36400 38100 41200 42300 55000 74400 85300 116000 135000
2020-09-25 06:00 11.63 45500 159000 (1993) 34800 (1991) 64700 36400 38100 41200 42300 55000 74400 85300 116000 135000
2020-09-25 05:00 11.64 45600 159000 (1993) 34800 (1991) 64700 36400 38100 41200 42300 55000 74400 85300 116000 135000
2020-09-25 04:00 11.64 45600 159000 (1993) 34800 (1991) 64700 36400 38100 41200 42300 55000 74400 85300 116000 135000
2020-09-25 03:00 11.64 45600 159000 (1993) 34800 (1991) 64700 36400 38100 41200 42300 55000 74400 85300 116000 135000
2020-09-25 02:00 11.64 45600 159000 (1993) 34800 (1991) 64700 36400 38100 41200 42300 55000 74400 85300 116000 135000
2020-09-25 01:00 11.64 45600 159000 (1993) 34800 (1991) 64700 36400 38100 41200 42300 55000 74400 85300 116000 135000
2020-09-25 00:00 11.64 45600 159000 (1993) 34800 (1991) 64700 36400 38100 41200 42300 55000 74400 85300 116000 135000
2020-09-24 23:00 11.64 45600 172000 (1965) 35000 (1991) 64400 36300 38000 41100 41900 52900 75400 76600 114000 157000
2020-09-24 22:00 11.65 45600 172000 (1965) 35000 (1991) 64400 36300 38000 41100 41900 52900 75400 76600 114000 157000
2020-09-24 21:00 11.65 45600 172000 (1965) 35000 (1991) 64400 36300 38000 41100 41900 52900 75400 76600 114000 157000
2020-09-24 20:00 11.57 45200 172000 (1965) 35000 (1991) 64400 36300 38000 41100 41900 52900 75400 76600 114000 157000
2020-09-24 19:00 11.64 45600 172000 (1965) 35000 (1991) 64400 36300 38000 41100 41900 52900 75400 76600 114000 157000
2020-09-24 18:00 11.65 45600 172000 (1965) 35000 (1991) 64400 36300 38000 41100 41900 52900 75400 76600 114000 157000
2020-09-24 17:00 11.65 45600 172000 (1965) 35000 (1991) 64400 36300 38000 41100 41900 52900 75400 76600 114000 157000
2020-09-24 16:00 11.64 45600 172000 (1965) 35000 (1991) 64400 36300 38000 41100 41900 52900 75400 76600 114000 157000
2020-09-24 15:00 11.66 45700 172000 (1965) 35000 (1991) 64400 36300 38000 41100 41900 52900 75400 76600 114000 157000
2020-09-24 14:00 11.64 45600 172000 (1965) 35000 (1991) 64400 36300 38000 41100 41900 52900 75400 76600 114000 157000
2020-09-24 13:00 11.60 45400 172000 (1965) 35000 (1991) 64400 36300 38000 41100 41900 52900 75400 76600 114000 157000
2020-09-24 12:00 11.66 45700 172000 (1965) 35000 (1991) 64400 36300 38000 41100 41900 52900 75400 76600 114000 157000
2020-09-24 11:00 11.65 45600 172000 (1965) 35000 (1991) 64400 36300 38000 41100 41900 52900 75400 76600 114000 157000
2020-09-24 10:00 11.65 45600 172000 (1965) 35000 (1991) 64400 36300 38000 41100 41900 52900 75400 76600 114000 157000
2020-09-24 09:00 11.66 45700 172000 (1965) 35000 (1991) 64400 36300 38000 41100 41900 52900 75400 76600 114000 157000
2020-09-24 08:00 11.66 45700 172000 (1965) 35000 (1991) 64400 36300 38000 41100 41900 52900 75400 76600 114000 157000
2020-09-24 07:00 11.65 45600 172000 (1965) 35000 (1991) 64400 36300 38000 41100 41900 52900 75400 76600 114000 157000
2020-09-24 06:00 11.66 45700 172000 (1965) 35000 (1991) 64400 36300 38000 41100 41900 52900 75400 76600 114000 157000
2020-09-24 05:00 11.66 45700 172000 (1965) 35000 (1991) 64400 36300 38000 41100 41900 52900 75400 76600 114000 157000
2020-09-24 04:00 11.65 45600 172000 (1965) 35000 (1991) 64400 36300 38000 41100 41900 52900 75400 76600 114000 157000
2020-09-24 03:00 11.64 45600 172000 (1965) 35000 (1991) 64400 36300 38000 41100 41900 52900 75400 76600 114000 157000
2020-09-24 02:00 11.64 45600 172000 (1965) 35000 (1991) 64400 36300 38000 41100 41900 52900 75400 76600 114000 157000
2020-09-24 01:00 11.64 45600 172000 (1965) 35000 (1991) 64400 36300 38000 41100 41900 52900 75400 76600 114000 157000
2020-09-24 00:00 11.64 45600 172000 (1965) 35000 (1991) 64400 36300 38000 41100 41900 52900 75400 76600 114000 157000
2020-09-23 23:00 11.65 45600 202000 (1965) 35100 (1991) 64100 36400 37900 40900 41600 51100 72400 78600 123000 138000
2020-09-23 22:00 11.65 45600 202000 (1965) 35100 (1991) 64100 36400 37900 40900 41600 51100 72400 78600 123000 138000
2020-09-23 21:00 11.64 45600 202000 (1965) 35100 (1991) 64100 36400 37900 40900 41600 51100 72400 78600 123000 138000
2020-09-23 20:00 11.64 45600 202000 (1965) 35100 (1991) 64100 36400 37900 40900 41600 51100 72400 78600 123000 138000
2020-09-23 19:00 11.64 45600 202000 (1965) 35100 (1991) 64100 36400 37900 40900 41600 51100 72400 78600 123000 138000
2020-09-23 18:00 11.63 45500 202000 (1965) 35100 (1991) 64100 36400 37900 40900 41600 51100 72400 78600 123000 138000
2020-09-23 17:00 11.63 45500 202000 (1965) 35100 (1991) 64100 36400 37900 40900 41600 51100 72400 78600 123000 138000
2020-09-23 16:00 11.63 45500 202000 (1965) 35100 (1991) 64100 36400 37900 40900 41600 51100 72400 78600 123000 138000
2020-09-23 15:00 11.64 45600 202000 (1965) 35100 (1991) 64100 36400 37900 40900 41600 51100 72400 78600 123000 138000
2020-09-23 14:00 11.63 45500 202000 (1965) 35100 (1991) 64100 36400 37900 40900 41600 51100 72400 78600 123000 138000
2020-09-23 13:00 11.63 45500 202000 (1965) 35100 (1991) 64100 36400 37900 40900 41600 51100 72400 78600 123000 138000
2020-09-23 12:00 11.63 45500 202000 (1965) 35100 (1991) 64100 36400 37900 40900 41600 51100 72400 78600 123000 138000
2020-09-23 11:00 11.63 45500 202000 (1965) 35100 (1991) 64100 36400 37900 40900 41600 51100 72400 78600 123000 138000
2020-09-23 10:00 11.62 45500 202000 (1965) 35100 (1991) 64100 36400 37900 40900 41600 51100 72400 78600 123000 138000
2020-09-23 09:00 11.62 45500 202000 (1965) 35100 (1991) 64100 36400 37900 40900 41600 51100 72400 78600 123000 138000
2020-09-23 08:00 11.64 45600 202000 (1965) 35100 (1991) 64100 36400 37900 40900 41600 51100 72400 78600 123000 138000
2020-09-23 07:00 11.64 45600 202000 (1965) 35100 (1991) 64100 36400 37900 40900 41600 51100 72400 78600 123000 138000
2020-09-23 06:00 11.64 45600 202000 (1965) 35100 (1991) 64100 36400 37900 40900 41600 51100 72400 78600 123000 138000
2020-09-23 05:00 11.64 45600 202000 (1965) 35100 (1991) 64100 36400 37900 40900 41600 51100 72400 78600 123000 138000
2020-09-23 04:00 11.63 45500 202000 (1965) 35100 (1991) 64100 36400 37900 40900 41600 51100 72400 78600 123000 138000
2020-09-23 03:00 11.63 45500 202000 (1965) 35100 (1991) 64100 36400 37900 40900 41600 51100 72400 78600 123000 138000
2020-09-23 02:00 11.64 45600 202000 (1965) 35100 (1991) 64100 36400 37900 40900 41600 51100 72400 78600 123000 138000
2020-09-23 01:00 11.64 45600 202000 (1965) 35100 (1991) 64100 36400 37900 40900 41600 51100 72400 78600 123000 138000
2020-09-23 00:00 11.64 45600 202000 (1965) 35100 (1991) 64100 36400 37900 40900 41600 51100 72400 78600 123000 138000
2020-09-22 23:00 11.64 45600 193000 (1965) 35400 (1991) 62400 36100 38300 40600 41400 50900 71400 76200 113000 128000
2020-09-22 22:00 11.63 45500 193000 (1965) 35400 (1991) 62400 36100 38300 40600 41400 50900 71400 76200 113000 128000
2020-09-22 21:00 11.64 45600 193000 (1965) 35400 (1991) 62400 36100 38300 40600 41400 50900 71400 76200 113000 128000
2020-09-22 20:00 11.65 45600 193000 (1965) 35400 (1991) 62400 36100 38300 40600 41400 50900 71400 76200 113000 128000
2020-09-22 19:00 11.63 45500 193000 (1965) 35400 (1991) 62400 36100 38300 40600 41400 50900 71400 76200 113000 128000
2020-09-22 18:00 11.66 45700 193000 (1965) 35400 (1991) 62400 36100 38300 40600 41400 50900 71400 76200 113000 128000
2020-09-22 17:00 11.67 45700 193000 (1965) 35400 (1991) 62400 36100 38300 40600 41400 50900 71400 76200 113000 128000
2020-09-22 16:00 11.67 45700 193000 (1965) 35400 (1991) 62400 36100 38300 40600 41400 50900 71400 76200 113000 128000
2020-09-22 15:00 11.68 45800 193000 (1965) 35400 (1991) 62400 36100 38300 40600 41400 50900 71400 76200 113000 128000
2020-09-22 14:00 11.68 45800 193000 (1965) 35400 (1991) 62400 36100 38300 40600 41400 50900 71400 76200 113000 128000
2020-09-22 13:00 11.69 45800 193000 (1965) 35400 (1991) 62400 36100 38300 40600 41400 50900 71400 76200 113000 128000
2020-09-22 12:00 11.69 45800 193000 (1965) 35400 (1991) 62400 36100 38300 40600 41400 50900 71400 76200 113000 128000
2020-09-22 11:00 11.69 45800 193000 (1965) 35400 (1991) 62400 36100 38300 40600 41400 50900 71400 76200 113000 128000
2020-09-22 10:00 11.70 45900 193000 (1965) 35400 (1991) 62400 36100 38300 40600 41400 50900 71400 76200 113000 128000
2020-09-22 09:00 11.70 45900 193000 (1965) 35400 (1991) 62400 36100 38300 40600 41400 50900 71400 76200 113000 128000
2020-09-22 08:00 11.72 46000 193000 (1965) 35400 (1991) 62400 36100 38300 40600 41400 50900 71400 76200 113000 128000
2020-09-22 07:00 11.73 46000 193000 (1965) 35400 (1991) 62400 36100 38300 40600 41400 50900 71400 76200 113000 128000
2020-09-22 06:00 11.74 46100 193000 (1965) 35400 (1991) 62400 36100 38300 40600 41400 50900 71400 76200 113000 128000
2020-09-22 05:00 11.75 46100 193000 (1965) 35400 (1991) 62400 36100 38300 40600 41400 50900 71400 76200 113000 128000
2020-09-22 04:00 11.75 46100 193000 (1965) 35400 (1991) 62400 36100 38300 40600 41400 50900 71400 76200 113000 128000
2020-09-22 03:00 11.76 46200 193000 (1965) 35400 (1991) 62400 36100 38300 40600 41400 50900 71400 76200 113000 128000
2020-09-22 02:00 11.76 46200 193000 (1965) 35400 (1991) 62400 36100 38300 40600 41400 50900 71400 76200 113000 128000
2020-09-22 01:00 11.78 46300 193000 (1965) 35400 (1991) 62400 36100 38300 40600 41400 50900 71400 76200 113000 128000
2020-09-22 00:00 11.78 46300 193000 (1965) 35400 (1991) 62400 36100 38300 40600 41400 50900 71400 76200 113000 128000
2020-09-21 23:00 11.78 46300 137000 (2019) 35300 (1991) 60700 36600 38300 40100 41500 50900 70900 74600 107000 124000
2020-09-21 22:00 11.80 46400 137000 (2019) 35300 (1991) 60700 36600 38300 40100 41500 50900 70900 74600 107000 124000
2020-09-21 21:00 11.79 46300 137000 (2019) 35300 (1991) 60700 36600 38300 40100 41500 50900 70900 74600 107000 124000
2020-09-21 20:00 11.81 46400 137000 (2019) 35300 (1991) 60700 36600 38300 40100 41500 50900 70900 74600 107000 124000
2020-09-21 19:00 11.82 46500 137000 (2019) 35300 (1991) 60700 36600 38300 40100 41500 50900 70900 74600 107000 124000
2020-09-21 18:00 11.82 46500 137000 (2019) 35300 (1991) 60700 36600 38300 40100 41500 50900 70900 74600 107000 124000
2020-09-21 17:00 11.81 46400 137000 (2019) 35300 (1991) 60700 36600 38300 40100 41500 50900 70900 74600 107000 124000
2020-09-21 16:00 11.84 46600 137000 (2019) 35300 (1991) 60700 36600 38300 40100 41500 50900 70900 74600 107000 124000
2020-09-21 15:00 11.85 46600 137000 (2019) 35300 (1991) 60700 36600 38300 40100 41500 50900 70900 74600 107000 124000
2020-09-21 14:00 11.86 46700 137000 (2019) 35300 (1991) 60700 36600 38300 40100 41500 50900 70900 74600 107000 124000
2020-09-21 13:00 11.86 46700 137000 (2019) 35300 (1991) 60700 36600 38300 40100 41500 50900 70900 74600 107000 124000
2020-09-21 12:00 11.87 46700 137000 (2019) 35300 (1991) 60700 36600 38300 40100 41500 50900 70900 74600 107000 124000
2020-09-21 11:00 11.87 46700 137000 (2019) 35300 (1991) 60700 36600 38300 40100 41500 50900 70900 74600 107000 124000
2020-09-21 10:00 11.85 46600 137000 (2019) 35300 (1991) 60700 36600 38300 40100 41500 50900 70900 74600 107000 124000
2020-09-21 09:00 11.86 46700 137000 (2019) 35300 (1991) 60700 36600 38300 40100 41500 50900 70900 74600 107000 124000
2020-09-21 08:00 11.87 46700 137000 (2019) 35300 (1991) 60700 36600 38300 40100 41500 50900 70900 74600 107000 124000
2020-09-21 07:00 11.87 46700 137000 (2019) 35300 (1991) 60700 36600 38300 40100 41500 50900 70900 74600 107000 124000
2020-09-21 06:00 11.88 46800 137000 (2019) 35300 (1991) 60700 36600 38300 40100 41500 50900 70900 74600 107000 124000
2020-09-21 05:00 11.88 46800 137000 (2019) 35300 (1991) 60700 36600 38300 40100 41500 50900 70900 74600 107000 124000
2020-09-21 04:00 11.88 46800 137000 (2019) 35300 (1991) 60700 36600 38300 40100 41500 50900 70900 74600 107000 124000
2020-09-21 03:00 11.87 46700 137000 (2019) 35300 (1991) 60700 36600 38300 40100 41500 50900 70900 74600 107000 124000
2020-09-21 02:00 11.85 46600 137000 (2019) 35300 (1991) 60700 36600 38300 40100 41500 50900 70900 74600 107000 124000
2020-09-21 01:00 11.87 46700 137000 (2019) 35300 (1991) 60700 36600 38300 40100 41500 50900 70900 74600 107000 124000
2020-09-21 00:00 11.85 46600 137000 (2019) 35300 (1991) 60700 36600 38300 40100 41500 50900 70900 74600 107000 124000
2020-09-20 23:00 11.80 46400 135000 (2019) 35700 (1991) 59300 37500 38100 40100 41500 50600 71000 77200 97500 115000
2020-09-20 22:00 11.78 46300 135000 (2019) 35700 (1991) 59300 37500 38100 40100 41500 50600 71000 77200 97500 115000
2020-09-20 21:00 11.80 46400 135000 (2019) 35700 (1991) 59300 37500 38100 40100 41500 50600 71000 77200 97500 115000
2020-09-20 20:00 11.85 46600 135000 (2019) 35700 (1991) 59300 37500 38100 40100 41500 50600 71000 77200 97500 115000
2020-09-20 19:00 11.85 46600 135000 (2019) 35700 (1991) 59300 37500 38100 40100 41500 50600 71000 77200 97500 115000
2020-09-20 18:00 11.78 46300 135000 (2019) 35700 (1991) 59300 37500 38100 40100 41500 50600 71000 77200 97500 115000
2020-09-20 17:00 11.79 46300 135000 (2019) 35700 (1991) 59300 37500 38100 40100 41500 50600 71000 77200 97500 115000
2020-09-20 16:00 11.74 46100 135000 (2019) 35700 (1991) 59300 37500 38100 40100 41500 50600 71000 77200 97500 115000
2020-09-20 15:00 11.73 46000 135000 (2019) 35700 (1991) 59300 37500 38100 40100 41500 50600 71000 77200 97500 115000
2020-09-20 14:00 11.77 46200 135000 (2019) 35700 (1991) 59300 37500 38100 40100 41500 50600 71000 77200 97500 115000
2020-09-20 13:00 11.77 46200 135000 (2019) 35700 (1991) 59300 37500 38100 40100 41500 50600 71000 77200 97500 115000
2020-09-20 12:00 11.75 46100 135000 (2019) 35700 (1991) 59300 37500 38100 40100 41500 50600 71000 77200 97500 115000
2020-09-20 11:00 11.78 46300 135000 (2019) 35700 (1991) 59300 37500 38100 40100 41500 50600 71000 77200 97500 115000
2020-09-20 10:00 11.80 46400 135000 (2019) 35700 (1991) 59300 37500 38100 40100 41500 50600 71000 77200 97500 115000
2020-09-20 09:00 11.81 46400 135000 (2019) 35700 (1991) 59300 37500 38100 40100 41500 50600 71000 77200 97500 115000
2020-09-20 08:00 11.79 46300 135000 (2019) 35700 (1991) 59300 37500 38100 40100 41500 50600 71000 77200 97500 115000
2020-09-20 07:00 11.80 46400 135000 (2019) 35700 (1991) 59300 37500 38100 40100 41500 50600 71000 77200 97500 115000
2020-09-20 06:00 11.80 46400 135000 (2019) 35700 (1991) 59300 37500 38100 40100 41500 50600 71000 77200 97500 115000
2020-09-20 05:00 11.81 46400 135000 (2019) 35700 (1991) 59300 37500 38100 40100 41500 50600 71000 77200 97500 115000
2020-09-20 04:00 11.81 46400 135000 (2019) 35700 (1991) 59300 37500 38100 40100 41500 50600 71000 77200 97500 115000
2020-09-20 03:00 11.81 46400 135000 (2019) 35700 (1991) 59300 37500 38100 40100 41500 50600 71000 77200 97500 115000
2020-09-20 02:00 11.80 46400 135000 (2019) 35700 (1991) 59300 37500 38100 40100 41500 50600 71000 77200 97500 115000
2020-09-20 01:00 11.80 46400 135000 (2019) 35700 (1991) 59300 37500 38100 40100 41500 50600 71000 77200 97500 115000
2020-09-20 00:00 11.82 46500 135000 (2019) 35700 (1991) 59300 37500 38100 40100 41500 50600 71000 77200 97500 115000
2020-09-19 23:00 11.80 46400 134000 (2019) 36100 (1990) 59400 37400 37600 39400 40900 53100 70500 75800 97500 108000
2020-09-19 22:00 11.81 46400 134000 (2019) 36100 (1990) 59400 37400 37600 39400 40900 53100 70500 75800 97500 108000
2020-09-19 21:00 11.81 46400 134000 (2019) 36100 (1990) 59400 37400 37600 39400 40900 53100 70500 75800 97500 108000
2020-09-19 20:00 11.82 46500 134000 (2019) 36100 (1990) 59400 37400 37600 39400 40900 53100 70500 75800 97500 108000
2020-09-19 19:00 11.83 46500 134000 (2019) 36100 (1990) 59400 37400 37600 39400 40900 53100 70500 75800 97500 108000
2020-09-19 18:00 11.80 46400 134000 (2019) 36100 (1990) 59400 37400 37600 39400 40900 53100 70500 75800 97500 108000
2020-09-19 17:00 11.83 46500 134000 (2019) 36100 (1990) 59400 37400 37600 39400 40900 53100 70500 75800 97500 108000
2020-09-19 16:00 11.82 46500 134000 (2019) 36100 (1990) 59400 37400 37600 39400 40900 53100 70500 75800 97500 108000
2020-09-19 15:00 11.76 46200 134000 (2019) 36100 (1990) 59400 37400 37600 39400 40900 53100 70500 75800 97500 108000
2020-09-19 14:00 11.69 45800 134000 (2019) 36100 (1990) 59400 37400 37600 39400 40900 53100 70500 75800 97500 108000
2020-09-19 13:00 11.72 46000 134000 (2019) 36100 (1990) 59400 37400 37600 39400 40900 53100 70500 75800 97500 108000
2020-09-19 12:00 11.80 46400 134000 (2019) 36100 (1990) 59400 37400 37600 39400 40900 53100 70500 75800 97500 108000
2020-09-19 11:00 11.79 46300 134000 (2019) 36100 (1990) 59400 37400 37600 39400 40900 53100 70500 75800 97500 108000
2020-09-19 10:00 11.75 46100 134000 (2019) 36100 (1990) 59400 37400 37600 39400 40900 53100 70500 75800 97500 108000
2020-09-19 09:00 11.78 46300 134000 (2019) 36100 (1990) 59400 37400 37600 39400 40900 53100 70500 75800 97500 108000
2020-09-19 08:00 11.83 46500 134000 (2019) 36100 (1990) 59400 37400 37600 39400 40900 53100 70500 75800 97500 108000
2020-09-19 07:00 11.85 46600 134000 (2019) 36100 (1990) 59400 37400 37600 39400 40900 53100 70500 75800 97500 108000
2020-09-19 06:00 11.85 46600 134000 (2019) 36100 (1990) 59400 37400 37600 39400 40900 53100 70500 75800 97500 108000
2020-09-19 05:00 11.84 46600 134000 (2019) 36100 (1990) 59400 37400 37600 39400 40900 53100 70500 75800 97500 108000
2020-09-19 04:00 11.85 46600 134000 (2019) 36100 (1990) 59400 37400 37600 39400 40900 53100 70500 75800 97500 108000
2020-09-19 03:00 11.83 46500 134000 (2019) 36100 (1990) 59400 37400 37600 39400 40900 53100 70500 75800 97500 108000
2020-09-19 02:00 11.84 46600 134000 (2019) 36100 (1990) 59400 37400 37600 39400 40900 53100 70500 75800 97500 108000
2020-09-19 01:00 11.83 46500 134000 (2019) 36100 (1990) 59400 37400 37600 39400 40900 53100 70500 75800 97500 108000
2020-09-19 00:00 11.78 46300 134000 (2019) 36100 (1990) 59400 37400 37600 39400 40900 53100 70500 75800 97500 108000
2020-09-18 23:00 11.84 46600 133000 (2019) 35200 (1959) 58900 36800 37600 39800 40200 53300 74600 78600 88200 99300
2020-09-18 22:00 11.84 46600 133000 (2019) 35200 (1959) 58900 36800 37600 39800 40200 53300 74600 78600 88200 99300
2020-09-18 21:00 11.86 46700 133000 (2019) 35200 (1959) 58900 36800 37600 39800 40200 53300 74600 78600 88200 99300
2020-09-18 20:00 11.87 46700 133000 (2019) 35200 (1959) 58900 36800 37600 39800 40200 53300 74600 78600 88200 99300
2020-09-18 19:00 11.85 46600 133000 (2019) 35200 (1959) 58900 36800 37600 39800 40200 53300 74600 78600 88200 99300
2020-09-18 18:00 11.83 46500 133000 (2019) 35200 (1959) 58900 36800 37600 39800 40200 53300 74600 78600 88200 99300
2020-09-18 17:00 11.79 46300 133000 (2019) 35200 (1959) 58900 36800 37600 39800 40200 53300 74600 78600 88200 99300
2020-09-18 16:00 11.81 46400 133000 (2019) 35200 (1959) 58900 36800 37600 39800 40200 53300 74600 78600 88200 99300
2020-09-18 15:00 11.81 46400 133000 (2019) 35200 (1959) 58900 36800 37600 39800 40200 53300 74600 78600 88200 99300
2020-09-18 14:00 11.85 46600 133000 (2019) 35200 (1959) 58900 36800 37600 39800 40200 53300 74600 78600 88200 99300
2020-09-18 13:00 11.83 46500 133000 (2019) 35200 (1959) 58900 36800 37600 39800 40200 53300 74600 78600 88200 99300
2020-09-18 12:00 11.77 46200 133000 (2019) 35200 (1959) 58900 36800 37600 39800 40200 53300 74600 78600 88200 99300
2020-09-18 11:00 11.78 46300 133000 (2019) 35200 (1959) 58900 36800 37600 39800 40200 53300 74600 78600 88200 99300
2020-09-18 10:00 11.85 46600 133000 (2019) 35200 (1959) 58900 36800 37600 39800 40200 53300 74600 78600 88200 99300
2020-09-18 09:00 11.79 46300 133000 (2019) 35200 (1959) 58900 36800 37600 39800 40200 53300 74600 78600 88200 99300
2020-09-18 08:00 11.88 46800 133000 (2019) 35200 (1959) 58900 36800 37600 39800 40200 53300 74600 78600 88200 99300
2020-09-18 07:00 11.88 46800 133000 (2019) 35200 (1959) 58900 36800 37600 39800 40200 53300 74600 78600 88200 99300
2020-09-18 06:00 11.89 46800 133000 (2019) 35200 (1959) 58900 36800 37600 39800 40200 53300 74600 78600 88200 99300
2020-09-18 05:00 11.89 46800 133000 (2019) 35200 (1959) 58900 36800 37600 39800 40200 53300 74600 78600 88200 99300
2020-09-18 04:00 11.89 46800 133000 (2019) 35200 (1959) 58900 36800 37600 39800 40200 53300 74600 78600 88200 99300
2020-09-18 03:00 11.91 46900 133000 (2019) 35200 (1959) 58900 36800 37600 39800 40200 53300 74600 78600 88200 99300
2020-09-18 02:00 11.91 46900 133000 (2019) 35200 (1959) 58900 36800 37600 39800 40200 53300 74600 78600 88200 99300
2020-09-18 01:00 11.91 46900 133000 (2019) 35200 (1959) 58900 36800 37600 39800 40200 53300 74600 78600 88200 99300
2020-09-18 00:00 11.91 46900 133000 (2019) 35200 (1959) 58900 36800 37600 39800 40200 53300 74600 78600 88200 99300
2020-09-17 23:00 11.92 47000 132000 (2019) 35200 (1959) 59400 36400 37200 40000 41500 52800 70300 78100 98600 102000
2020-09-17 22:00 11.92 47000 132000 (2019) 35200 (1959) 59400 36400 37200 40000 41500 52800 70300 78100 98600 102000
2020-09-17 21:00 11.92 47000 132000 (2019) 35200 (1959) 59400 36400 37200 40000 41500 52800 70300 78100 98600 102000
2020-09-17 20:00 11.92 47000 132000 (2019) 35200 (1959) 59400 36400 37200 40000 41500 52800 70300 78100 98600 102000
2020-09-17 19:00 11.93 47000 132000 (2019) 35200 (1959) 59400 36400 37200 40000 41500 52800 70300 78100 98600 102000
2020-09-17 18:00 11.92 47000 132000 (2019) 35200 (1959) 59400 36400 37200 40000 41500 52800 70300 78100 98600 102000
2020-09-17 17:00 11.91 46900 132000 (2019) 35200 (1959) 59400 36400 37200 40000 41500 52800 70300 78100 98600 102000
2020-09-17 16:00 11.94 47100 132000 (2019) 35200 (1959) 59400 36400 37200 40000 41500 52800 70300 78100 98600 102000
2020-09-17 15:00 11.94 47100 132000 (2019) 35200 (1959) 59400 36400 37200 40000 41500 52800 70300 78100 98600 102000
2020-09-17 14:00 11.89 46800 132000 (2019) 35200 (1959) 59400 36400 37200 40000 41500 52800 70300 78100 98600 102000
2020-09-17 13:00 11.92 47000 132000 (2019) 35200 (1959) 59400 36400 37200 40000 41500 52800 70300 78100 98600 102000
2020-09-17 12:00 11.84 46600 132000 (2019) 35200 (1959) 59400 36400 37200 40000 41500 52800 70300 78100 98600 102000
2020-09-17 11:00 11.91 46900 132000 (2019) 35200 (1959) 59400 36400 37200 40000 41500 52800 70300 78100 98600 102000
2020-09-17 10:00 11.89 46800 132000 (2019) 35200 (1959) 59400 36400 37200 40000 41500 52800 70300 78100 98600 102000
2020-09-17 09:00 11.97 47300 132000 (2019) 35200 (1959) 59400 36400 37200 40000 41500 52800 70300 78100 98600 102000
2020-09-17 08:00 11.95 47200 132000 (2019) 35200 (1959) 59400 36400 37200 40000 41500 52800 70300 78100 98600 102000
2020-09-17 07:00 11.95 47200 132000 (2019) 35200 (1959) 59400 36400 37200 40000 41500 52800 70300 78100 98600 102000
2020-09-17 06:00 11.95 47200 132000 (2019) 35200 (1959) 59400 36400 37200 40000 41500 52800 70300 78100 98600 102000
2020-09-17 05:00 11.96 47200 132000 (2019) 35200 (1959) 59400 36400 37200 40000 41500 52800 70300 78100 98600 102000
2020-09-17 04:00 11.96 47200 132000 (2019) 35200 (1959) 59400 36400 37200 40000 41500 52800 70300 78100 98600 102000
2020-09-17 03:00 11.98 47300 132000 (2019) 35200 (1959) 59400 36400 37200 40000 41500 52800 70300 78100 98600 102000
2020-09-17 02:00 11.97 47300 132000 (2019) 35200 (1959) 59400 36400 37200 40000 41500 52800 70300 78100 98600 102000
2020-09-17 01:00 11.98 47300 132000 (2019) 35200 (1959) 59400 36400 37200 40000 41500 52800 70300 78100 98600 102000
2020-09-17 00:00 11.98 47300 132000 (2019) 35200 (1959) 59400 36400 37200 40000 41500 52800 70300 78100 98600 102000
2020-09-16 23:00 11.98 47300 132000 (2019) 35200 (1959) 61100 36300 37100 39800 41200 51100 73100 80700 103000 127000
2020-09-16 22:00 11.98 47300 132000 (2019) 35200 (1959) 61100 36300 37100 39800 41200 51100 73100 80700 103000 127000
2020-09-16 21:00 11.98 47300 132000 (2019) 35200 (1959) 61100 36300 37100 39800 41200 51100 73100 80700 103000 127000
2020-09-16 20:00 11.97 47300 132000 (2019) 35200 (1959) 61100 36300 37100 39800 41200 51100 73100 80700 103000 127000
2020-09-16 19:00 11.98 47300 132000 (2019) 35200 (1959) 61100 36300 37100 39800 41200 51100 73100 80700 103000 127000
2020-09-16 18:00 11.97 47300 132000 (2019) 35200 (1959) 61100 36300 37100 39800 41200 51100 73100 80700 103000 127000
2020-09-16 17:00 11.99 47400 132000 (2019) 35200 (1959) 61100 36300 37100 39800 41200 51100 73100 80700 103000 127000
2020-09-16 16:00 11.99 47400 132000 (2019) 35200 (1959) 61100 36300 37100 39800 41200 51100 73100 80700 103000 127000
2020-09-16 15:00 12.00 47400 132000 (2019) 35200 (1959) 61100 36300 37100 39800 41200 51100 73100 80700 103000 127000
2020-09-16 14:00 12.01 47500 132000 (2019) 35200 (1959) 61100 36300 37100 39800 41200 51100 73100 80700 103000 127000
2020-09-16 13:00 12.01 47500 132000 (2019) 35200 (1959) 61100 36300 37100 39800 41200 51100 73100 80700 103000 127000
2020-09-16 12:00 12.01 47500 132000 (2019) 35200 (1959) 61100 36300 37100 39800 41200 51100 73100 80700 103000 127000
2020-09-16 11:00 12.02 47500 132000 (2019) 35200 (1959) 61100 36300 37100 39800 41200 51100 73100 80700 103000 127000
2020-09-16 10:00 12.03 47600 132000 (2019) 35200 (1959) 61100 36300 37100 39800 41200 51100 73100 80700 103000 127000
2020-09-16 09:00 11.87 46700 132000 (2019) 35200 (1959) 61100 36300 37100 39800 41200 51100 73100 80700 103000 127000
2020-09-16 08:00 12.03 47600 132000 (2019) 35200 (1959) 61100 36300 37100 39800 41200 51100 73100 80700 103000 127000
2020-09-16 07:00 12.03 47600 132000 (2019) 35200 (1959) 61100 36300 37100 39800 41200 51100 73100 80700 103000 127000
2020-09-16 06:00 12.04 47600 132000 (2019) 35200 (1959) 61100 36300 37100 39800 41200 51100 73100 80700 103000 127000
2020-09-16 05:00 12.05 47700 132000 (2019) 35200 (1959) 61100 36300 37100 39800 41200 51100 73100 80700 103000 127000
2020-09-16 04:00 12.06 47700 132000 (2019) 35200 (1959) 61100 36300 37100 39800 41200 51100 73100 80700 103000 127000
2020-09-16 03:00 12.07 47800 132000 (2019) 35200 (1959) 61100 36300 37100 39800 41200 51100 73100 80700 103000 127000
2020-09-16 02:00 12.07 47800 132000 (2019) 35200 (1959) 61100 36300 37100 39800 41200 51100 73100 80700 103000 127000
2020-09-16 01:00 12.07 47800 132000 (2019) 35200 (1959) 61100 36300 37100 39800 41200 51100 73100 80700 103000 127000
2020-09-16 00:00 12.08 47800 132000 (2019) 35200 (1959) 61100 36300 37100 39800 41200 51100 73100 80700 103000 127000
2020-09-15 23:00 12.09 47900 174000 (1961) 34900 (2005) 62900 35900 36800 40100 40600 49700 73000 86400 111000 132000
2020-09-15 22:00 12.10 47900 174000 (1961) 34900 (2005) 62900 35900 36800 40100 40600 49700 73000 86400 111000 132000
2020-09-15 21:00 12.11 48000 174000 (1961) 34900 (2005) 62900 35900 36800 40100 40600 49700 73000 86400 111000 132000
2020-09-15 20:00 12.13 48100 174000 (1961) 34900 (2005) 62900 35900 36800 40100 40600 49700 73000 86400 111000 132000
2020-09-15 19:00 12.14 48100 174000 (1961) 34900 (2005) 62900 35900 36800 40100 40600 49700 73000 86400 111000 132000
2020-09-15 18:00 12.14 48100 174000 (1961) 34900 (2005) 62900 35900 36800 40100 40600 49700 73000 86400 111000 132000
2020-09-15 17:00 12.15 48200 174000 (1961) 34900 (2005) 62900 35900 36800 40100 40600 49700 73000 86400 111000 132000
2020-09-15 16:00 12.16 48200 174000 (1961) 34900 (2005) 62900 35900 36800 40100 40600 49700 73000 86400 111000 132000
2020-09-15 15:00 12.17 48300 174000 (1961) 34900 (2005) 62900 35900 36800 40100 40600 49700 73000 86400 111000 132000
2020-09-15 14:00 12.18 48300 174000 (1961) 34900 (2005) 62900 35900 36800 40100 40600 49700 73000 86400 111000 132000
2020-09-15 13:00 12.19 48400 174000 (1961) 34900 (2005) 62900 35900 36800 40100 40600 49700 73000 86400 111000 132000
2020-09-15 12:00 12.19 48400 174000 (1961) 34900 (2005) 62900 35900 36800 40100 40600 49700 73000 86400 111000 132000
2020-09-15 11:00 12.21 48500 174000 (1961) 34900 (2005) 62900 35900 36800 40100 40600 49700 73000 86400 111000 132000
2020-09-15 10:00 12.21 48500 174000 (1961) 34900 (2005) 62900 35900 36800 40100 40600 49700 73000 86400 111000 132000
2020-09-15 09:00 12.21 48500 174000 (1961) 34900 (2005) 62900 35900 36800 40100 40600 49700 73000 86400 111000 132000
2020-09-15 08:00 12.22 48600 174000 (1961) 34900 (2005) 62900 35900 36800 40100 40600 49700 73000 86400 111000 132000
2020-09-15 07:00 12.23 48600 174000 (1961) 34900 (2005) 62900 35900 36800 40100 40600 49700 73000 86400 111000 132000
2020-09-15 06:00 12.24 48700 174000 (1961) 34900 (2005) 62900 35900 36800 40100 40600 49700 73000 86400 111000 132000
2020-09-15 05:00 12.25 48700 174000 (1961) 34900 (2005) 62900 35900 36800 40100 40600 49700 73000 86400 111000 132000
2020-09-15 04:00 12.28 48900 174000 (1961) 34900 (2005) 62900 35900 36800 40100 40600 49700 73000 86400 111000 132000
2020-09-15 03:00 12.29 48900 174000 (1961) 34900 (2005) 62900 35900 36800 40100 40600 49700 73000 86400 111000 132000
2020-09-15 02:00 12.31 49000 174000 (1961) 34900 (2005) 62900 35900 36800 40100 40600 49700 73000 86400 111000 132000
2020-09-15 01:00 12.31 49000 174000 (1961) 34900 (2005) 62900 35900 36800 40100 40600 49700 73000 86400 111000 132000
2020-09-15 00:00 12.32 49100 174000 (1961) 34900 (2005) 62900 35900 36800 40100 40600 49700 73000 86400 111000 132000
2020-09-14 23:00 12.34 49200 206000 (1961) 34600 (2005) 61700 35400 36900 39800 40300 49100 72200 78500 111000 126000
2020-09-14 22:00 12.35 49200 206000 (1961) 34600 (2005) 61700 35400 36900 39800 40300 49100 72200 78500 111000 126000
2020-09-14 21:00 12.35 49200 206000 (1961) 34600 (2005) 61700 35400 36900 39800 40300 49100 72200 78500 111000 126000
2020-09-14 20:00 12.36 49300 206000 (1961) 34600 (2005) 61700 35400 36900 39800 40300 49100 72200 78500 111000 126000
2020-09-14 19:00 12.36 49300 206000 (1961) 34600 (2005) 61700 35400 36900 39800 40300 49100 72200 78500 111000 126000
2020-09-14 18:00 12.36 49300 206000 (1961) 34600 (2005) 61700 35400 36900 39800 40300 49100 72200 78500 111000 126000
2020-09-14 17:00 12.32 49100 206000 (1961) 34600 (2005) 61700 35400 36900 39800 40300 49100 72200 78500 111000 126000
2020-09-14 16:00 12.35 49200 206000 (1961) 34600 (2005) 61700 35400 36900 39800 40300 49100 72200 78500 111000 126000
2020-09-14 15:00 12.32 49100 206000 (1961) 34600 (2005) 61700 35400 36900 39800 40300 49100 72200 78500 111000 126000
2020-09-14 14:00 12.39 49500 206000 (1961) 34600 (2005) 61700 35400 36900 39800 40300 49100 72200 78500 111000 126000
2020-09-14 13:00 12.38 49400 206000 (1961) 34600 (2005) 61700 35400 36900 39800 40300 49100 72200 78500 111000 126000
2020-09-14 12:00 12.38 49400 206000 (1961) 34600 (2005) 61700 35400 36900 39800 40300 49100 72200 78500 111000 126000
2020-09-14 11:00 12.36 49300 206000 (1961) 34600 (2005) 61700 35400 36900 39800 40300 49100 72200 78500 111000 126000
2020-09-14 10:00 12.42 49600 206000 (1961) 34600 (2005) 61700 35400 36900 39800 40300 49100 72200 78500 111000 126000
2020-09-14 09:00 12.45 49800 206000 (1961) 34600 (2005) 61700 35400 36900 39800 40300 49100 72200 78500 111000 126000
2020-09-14 08:00 12.46 49800 206000 (1961) 34600 (2005) 61700 35400 36900 39800 40300 49100 72200 78500 111000 126000
2020-09-14 07:00 12.46 49800 206000 (1961) 34600 (2005) 61700 35400 36900 39800 40300 49100 72200 78500 111000 126000
2020-09-14 06:00 12.48 49900 206000 (1961) 34600 (2005) 61700 35400 36900 39800 40300 49100 72200 78500 111000 126000
2020-09-14 05:00 12.49 50000 206000 (1961) 34600 (2005) 61700 35400 36900 39800 40300 49100 72200 78500 111000 126000
2020-09-14 04:00 12.50 50000 206000 (1961) 34600 (2005) 61700 35400 36900 39800 40300 49100 72200 78500 111000 126000
2020-09-14 03:00 12.50 50000 206000 (1961) 34600 (2005) 61700 35400 36900 39800 40300 49100 72200 78500 111000 126000
2020-09-14 02:00 12.51 50100 206000 (1961) 34600 (2005) 61700 35400 36900 39800 40300 49100 72200 78500 111000 126000
2020-09-14 01:00 12.52 50100 206000 (1961) 34600 (2005) 61700 35400 36900 39800 40300 49100 72200 78500 111000 126000
2020-09-14 00:00 12.53 50200 206000 (1961) 34600 (2005) 61700 35400 36900 39800 40300 49100 72200 78500 111000 126000
2020-09-13 23:00 12.54 50300 134000 (2019) 34000 (2005) 58800 35100 36200 39800 40600 48100 72100 77900 97700 127000
2020-09-13 22:00 12.54 50300 134000 (2019) 34000 (2005) 58800 35100 36200 39800 40600 48100 72100 77900 97700 127000
2020-09-13 21:00 12.55 50300 134000 (2019) 34000 (2005) 58800 35100 36200 39800 40600 48100 72100 77900 97700 127000
2020-09-13 20:00 12.55 50300 134000 (2019) 34000 (2005) 58800 35100 36200 39800 40600 48100 72100 77900 97700 127000
2020-09-13 19:00 12.55 50300 134000 (2019) 34000 (2005) 58800 35100 36200 39800 40600 48100 72100 77900 97700 127000
2020-09-13 18:00 12.55 50300 134000 (2019) 34000 (2005) 58800 35100 36200 39800 40600 48100 72100 77900 97700 127000
2020-09-13 17:00 12.52 50100 134000 (2019) 34000 (2005) 58800 35100 36200 39800 40600 48100 72100 77900 97700 127000
2020-09-13 16:00 12.56 50400 134000 (2019) 34000 (2005) 58800 35100 36200 39800 40600 48100 72100 77900 97700 127000
2020-09-13 15:00 12.56 50400 134000 (2019) 34000 (2005) 58800 35100 36200 39800 40600 48100 72100 77900 97700 127000
2020-09-13 14:00 12.54 50300 134000 (2019) 34000 (2005) 58800 35100 36200 39800 40600 48100 72100 77900 97700 127000
2020-09-13 13:00 12.53 50200 134000 (2019) 34000 (2005) 58800 35100 36200 39800 40600 48100 72100 77900 97700 127000
2020-09-13 12:00 12.56 50400 134000 (2019) 34000 (2005) 58800 35100 36200 39800 40600 48100 72100 77900 97700 127000
2020-09-13 11:00 12.55 50300 134000 (2019) 34000 (2005) 58800 35100 36200 39800 40600 48100 72100 77900 97700 127000
2020-09-13 10:00 12.53 50200 134000 (2019) 34000 (2005) 58800 35100 36200 39800 40600 48100 72100 77900 97700 127000
2020-09-13 09:00 12.53 50200 134000 (2019) 34000 (2005) 58800 35100 36200 39800 40600 48100 72100 77900 97700 127000
2020-09-13 08:00 12.57 50400 134000 (2019) 34000 (2005) 58800 35100 36200 39800 40600 48100 72100 77900 97700 127000
2020-09-13 07:00 12.56 50400 134000 (2019) 34000 (2005) 58800 35100 36200 39800 40600 48100 72100 77900 97700 127000
2020-09-13 06:00 12.57 50400 134000 (2019) 34000 (2005) 58800 35100 36200 39800 40600 48100 72100 77900 97700 127000
2020-09-13 05:00 12.56 50400 134000 (2019) 34000 (2005) 58800 35100 36200 39800 40600 48100 72100 77900 97700 127000
2020-09-13 04:00 12.57 50400 134000 (2019) 34000 (2005) 58800 35100 36200 39800 40600 48100 72100 77900 97700 127000
2020-09-13 03:00 12.58 50500 134000 (2019) 34000 (2005) 58800 35100 36200 39800 40600 48100 72100 77900 97700 127000
2020-09-13 02:00 12.57 50400 134000 (2019) 34000 (2005) 58800 35100 36200 39800 40600 48100 72100 77900 97700 127000
2020-09-13 01:00 12.58 50500 134000 (2019) 34000 (2005) 58800 35100 36200 39800 40600 48100 72100 77900 97700 127000
2020-09-13 00:00 12.57 50400 134000 (2019) 34000 (2005) 58800 35100 36200 39800 40600 48100 72100 77900 97700 127000
2020-09-12 23:00 12.55 50300 168000 (1989) 34400 (2003) 59200 35200 36200 39200 40100 47500 69100 77200 98400 133000
2020-09-12 22:00 12.59 50500 168000 (1989) 34400 (2003) 59200 35200 36200 39200 40100 47500 69100 77200 98400 133000
2020-09-12 21:00 12.56 50400 168000 (1989) 34400 (2003) 59200 35200 36200 39200 40100 47500 69100 77200 98400 133000
2020-09-12 20:00 12.54 50300 168000 (1989) 34400 (2003) 59200 35200 36200 39200 40100 47500 69100 77200 98400 133000
2020-09-12 19:00 12.54 50300 168000 (1989) 34400 (2003) 59200 35200 36200 39200 40100 47500 69100 77200 98400 133000
2020-09-12 18:00 12.55 50300 168000 (1989) 34400 (2003) 59200 35200 36200 39200 40100 47500 69100 77200 98400 133000
2020-09-12 17:00 12.56 50400 168000 (1989) 34400 (2003) 59200 35200 36200 39200 40100 47500 69100 77200 98400 133000
2020-09-12 16:00 12.55 50300 168000 (1989) 34400 (2003) 59200 35200 36200 39200 40100 47500 69100 77200 98400 133000
2020-09-12 15:00 12.54 50300 168000 (1989) 34400 (2003) 59200 35200 36200 39200 40100 47500 69100 77200 98400 133000
2020-09-12 14:00 12.57 50400 168000 (1989) 34400 (2003) 59200 35200 36200 39200 40100 47500 69100 77200 98400 133000
2020-09-12 13:00 12.58 50500 168000 (1989) 34400 (2003) 59200 35200 36200 39200 40100 47500 69100 77200 98400 133000
2020-09-12 12:00 12.59 50500 168000 (1989) 34400 (2003) 59200 35200 36200 39200 40100 47500 69100 77200 98400 133000
2020-09-12 11:00 12.58 50500 168000 (1989) 34400 (2003) 59200 35200 36200 39200 40100 47500 69100 77200 98400 133000
2020-09-12 10:00 12.58 50500 168000 (1989) 34400 (2003) 59200 35200 36200 39200 40100 47500 69100 77200 98400 133000
2020-09-12 09:00 12.56 50400 168000 (1989) 34400 (2003) 59200 35200 36200 39200 40100 47500 69100 77200 98400 133000
2020-09-12 08:00 12.57 50400 168000 (1989) 34400 (2003) 59200 35200 36200 39200 40100 47500 69100 77200 98400 133000
2020-09-12 07:00 12.57 50400 168000 (1989) 34400 (2003) 59200 35200 36200 39200 40100 47500 69100 77200 98400 133000
2020-09-12 06:00 12.57 50400 168000 (1989) 34400 (2003) 59200 35200 36200 39200 40100 47500 69100 77200 98400 133000
2020-09-12 05:00 12.57 50400 168000 (1989) 34400 (2003) 59200 35200 36200 39200 40100 47500 69100 77200 98400 133000
2020-09-12 04:00 12.56 50400 168000 (1989) 34400 (2003) 59200 35200 36200 39200 40100 47500 69100 77200 98400 133000
2020-09-12 03:00 12.57 50400 168000 (1989) 34400 (2003) 59200 35200 36200 39200 40100 47500 69100 77200 98400 133000
2020-09-12 02:00 12.56 50400 168000 (1989) 34400 (2003) 59200 35200 36200 39200 40100 47500 69100 77200 98400 133000
2020-09-12 01:00 12.55 50300 168000 (1989) 34400 (2003) 59200 35200 36200 39200 40100 47500 69100 77200 98400 133000
2020-09-12 00:00 12.55 50300 168000 (1989) 34400 (2003) 59200 35200 36200 39200 40100 47500 69100 77200 98400 133000
2020-09-11 23:00 12.55 50300 193000 (1989) 33700 (2003) 59700 34300 36200 39400 40000 49100 67400 77500 98100 129000
2020-09-11 22:00 12.55 50300 193000 (1989) 33700 (2003) 59700 34300 36200 39400 40000 49100 67400 77500 98100 129000
2020-09-11 21:00 12.54 50300 193000 (1989) 33700 (2003) 59700 34300 36200 39400 40000 49100 67400 77500 98100 129000
2020-09-11 20:00 12.53 50200 193000 (1989) 33700 (2003) 59700 34300 36200 39400 40000 49100 67400 77500 98100 129000
2020-09-11 19:00 12.52 50100 193000 (1989) 33700 (2003) 59700 34300 36200 39400 40000 49100 67400 77500 98100 129000
2020-09-11 18:00 12.51 50100 193000 (1989) 33700 (2003) 59700 34300 36200 39400 40000 49100 67400 77500 98100 129000
2020-09-11 17:00 12.48 49900 193000 (1989) 33700 (2003) 59700 34300 36200 39400 40000 49100 67400 77500 98100 129000
2020-09-11 16:00 12.46 49800 193000 (1989) 33700 (2003) 59700 34300 36200 39400 40000 49100 67400 77500 98100 129000
2020-09-11 15:00 12.46 49800 193000 (1989) 33700 (2003) 59700 34300 36200 39400 40000 49100 67400 77500 98100 129000
2020-09-11 14:00 12.44 49700 193000 (1989) 33700 (2003) 59700 34300 36200 39400 40000 49100 67400 77500 98100 129000
2020-09-11 13:00 12.42 49600 193000 (1989) 33700 (2003) 59700 34300 36200 39400 40000 49100 67400 77500 98100 129000
2020-09-11 12:00 12.41 49600 193000 (1989) 33700 (2003) 59700 34300 36200 39400 40000 49100 67400 77500 98100 129000
2020-09-11 11:00 12.39 49500 193000 (1989) 33700 (2003) 59700 34300 36200 39400 40000 49100 67400 77500 98100 129000
2020-09-11 10:00 12.37 49300 193000 (1989) 33700 (2003) 59700 34300 36200 39400 40000 49100 67400 77500 98100 129000
2020-09-11 09:00 12.35 49200 193000 (1989) 33700 (2003) 59700 34300 36200 39400 40000 49100 67400 77500 98100 129000
2020-09-11 08:00 12.33 49100 193000 (1989) 33700 (2003) 59700 34300 36200 39400 40000 49100 67400 77500 98100 129000
2020-09-11 07:00 12.31 49000 193000 (1989) 33700 (2003) 59700 34300 36200 39400 40000 49100 67400 77500 98100 129000
2020-09-11 06:00 12.27 48800 193000 (1989) 33700 (2003) 59700 34300 36200 39400 40000 49100 67400 77500 98100 129000
2020-09-11 05:00 12.26 48800 193000 (1989) 33700 (2003) 59700 34300 36200 39400 40000 49100 67400 77500 98100 129000
2020-09-11 04:00 12.23 48600 193000 (1989) 33700 (2003) 59700 34300 36200 39400 40000 49100 67400 77500 98100 129000
2020-09-11 03:00 12.18 48300 193000 (1989) 33700 (2003) 59700 34300 36200 39400 40000 49100 67400 77500 98100 129000
2020-09-11 02:00 12.15 48200 193000 (1989) 33700 (2003) 59700 34300 36200 39400 40000 49100 67400 77500 98100 129000
2020-09-11 01:00 12.11 48000 193000 (1989) 33700 (2003) 59700 34300 36200 39400 40000 49100 67400 77500 98100 129000
2020-09-11 00:00 12.07 47800 193000 (1989) 33700 (2003) 59700 34300 36200 39400 40000 49100 67400 77500 98100 129000
2020-09-10 23:00 12.03 47600 179000 (1989) 33300 (2003) 59600 34800 36300 39700 40500 49200 70000 74400 101000 133000
2020-09-10 22:00 11.99 47400 179000 (1989) 33300 (2003) 59600 34800 36300 39700 40500 49200 70000 74400 101000 133000
2020-09-10 21:00 11.95 47200 179000 (1989) 33300 (2003) 59600 34800 36300 39700 40500 49200 70000 74400 101000 133000
2020-09-10 20:00 11.90 46900 179000 (1989) 33300 (2003) 59600 34800 36300 39700 40500 49200 70000 74400 101000 133000
2020-09-10 19:00 11.85 46600 179000 (1989) 33300 (2003) 59600 34800 36300 39700 40500 49200 70000 74400 101000 133000
2020-09-10 18:00 11.81 46400 179000 (1989) 33300 (2003) 59600 34800 36300 39700 40500 49200 70000 74400 101000 133000
2020-09-10 17:00 11.76 46200 179000 (1989) 33300 (2003) 59600 34800 36300 39700 40500 49200 70000 74400 101000 133000
2020-09-10 16:00 11.73 46000 179000 (1989) 33300 (2003) 59600 34800 36300 39700 40500 49200 70000 74400 101000 133000
2020-09-10 15:00 11.64 45600 179000 (1989) 33300 (2003) 59600 34800 36300 39700 40500 49200 70000 74400 101000 133000
2020-09-10 14:00 11.58 45300 179000 (1989) 33300 (2003) 59600 34800 36300 39700 40500 49200 70000 74400 101000 133000
2020-09-10 13:00 11.68 45800 179000 (1989) 33300 (2003) 59600 34800 36300 39700 40500 49200 70000 74400 101000 133000
2020-09-10 12:00 11.67 45700 179000 (1989) 33300 (2003) 59600 34800 36300 39700 40500 49200 70000 74400 101000 133000
2020-09-10 11:00 11.55 45100 179000 (1989) 33300 (2003) 59600 34800 36300 39700 40500 49200 70000 74400 101000 133000
2020-09-10 10:00 11.56 45200 179000 (1989) 33300 (2003) 59600 34800 36300 39700 40500 49200 70000 74400 101000 133000
2020-09-10 09:00 11.41 44400 179000 (1989) 33300 (2003) 59600 34800 36300 39700 40500 49200 70000 74400 101000 133000
2020-09-10 08:00 11.47 44700 179000 (1989) 33300 (2003) 59600 34800 36300 39700 40500 49200 70000 74400 101000 133000
2020-09-10 07:00 11.41 44400 179000 (1989) 33300 (2003) 59600 34800 36300 39700 40500 49200 70000 74400 101000 133000
2020-09-10 06:00 11.49 44800 179000 (1989) 33300 (2003) 59600 34800 36300 39700 40500 49200 70000 74400 101000 133000
2020-09-10 05:00 11.35 44100 179000 (1989) 33300 (2003) 59600 34800 36300 39700 40500 49200 70000 74400 101000 133000
2020-09-10 04:00 11.44 44600 179000 (1989) 33300 (2003) 59600 34800 36300 39700 40500 49200 70000 74400 101000 133000
2020-09-10 03:00 11.43 44500 179000 (1989) 33300 (2003) 59600 34800 36300 39700 40500 49200 70000 74400 101000 133000
2020-09-10 02:00 11.33 44000 179000 (1989) 33300 (2003) 59600 34800 36300 39700 40500 49200 70000 74400 101000 133000
2020-09-10 01:00 11.29 43800 179000 (1989) 33300 (2003) 59600 34800 36300 39700 40500 49200 70000 74400 101000 133000
2020-09-10 00:00 11.32 44000 179000 (1989) 33300 (2003) 59600 34800 36300 39700 40500 49200 70000 74400 101000 133000
2020-09-09 23:00 11.35 44100 144000 (2019) 32600 (2003) 60100 34900 36000 40100 41300 49900 70100 76200 107000 135000
2020-09-09 22:00 11.33 44000 144000 (2019) 32600 (2003) 60100 34900 36000 40100 41300 49900 70100 76200 107000 135000
2020-09-09 21:00 11.32 44000 144000 (2019) 32600 (2003) 60100 34900 36000 40100 41300 49900 70100 76200 107000 135000
2020-09-09 20:00 11.33 44000 144000 (2019) 32600 (2003) 60100 34900 36000 40100 41300 49900 70100 76200 107000 135000
2020-09-09 19:00 11.33 44000 144000 (2019) 32600 (2003) 60100 34900 36000 40100 41300 49900 70100 76200 107000 135000
2020-09-09 18:00 11.34 44100 144000 (2019) 32600 (2003) 60100 34900 36000 40100 41300 49900 70100 76200 107000 135000
2020-09-09 17:00 11.36 44200 144000 (2019) 32600 (2003) 60100 34900 36000 40100 41300 49900 70100 76200 107000 135000
2020-09-09 16:00 11.36 44200 144000 (2019) 32600 (2003) 60100 34900 36000 40100 41300 49900 70100 76200 107000 135000
2020-09-09 15:00 11.33 44000 144000 (2019) 32600 (2003) 60100 34900 36000 40100 41300 49900 70100 76200 107000 135000
2020-09-09 14:00 11.36 44200 144000 (2019) 32600 (2003) 60100 34900 36000 40100 41300 49900 70100 76200 107000 135000
2020-09-09 13:00 11.35 44100 144000 (2019) 32600 (2003) 60100 34900 36000 40100 41300 49900 70100 76200 107000 135000
2020-09-09 12:00 11.35 44100 144000 (2019) 32600 (2003) 60100 34900 36000 40100 41300 49900 70100 76200 107000 135000
2020-09-09 11:00 11.31 43900 144000 (2019) 32600 (2003) 60100 34900 36000 40100 41300 49900 70100 76200 107000 135000
2020-09-09 10:00 11.28 43800 144000 (2019) 32600 (2003) 60100 34900 36000 40100 41300 49900 70100 76200 107000 135000
2020-09-09 09:00 11.31 43900 144000 (2019) 32600 (2003) 60100 34900 36000 40100 41300 49900 70100 76200 107000 135000
2020-09-09 08:00 11.35 44100 144000 (2019) 32600 (2003) 60100 34900 36000 40100 41300 49900 70100 76200 107000 135000
2020-09-09 07:00 11.31 43900 144000 (2019) 32600 (2003) 60100 34900 36000 40100 41300 49900 70100 76200 107000 135000
2020-09-09 06:00 11.35 44100 144000 (2019) 32600 (2003) 60100 34900 36000 40100 41300 49900 70100 76200 107000 135000
2020-09-09 05:00 11.26 43700 144000 (2019) 32600 (2003) 60100 34900 36000 40100 41300 49900 70100 76200 107000 135000
2020-09-09 04:00 11.22 43500 144000 (2019) 32600 (2003) 60100 34900 36000 40100 41300 49900 70100 76200 107000 135000
2020-09-09 03:00 11.32 44000 144000 (2019) 32600 (2003) 60100 34900 36000 40100 41300 49900 70100 76200 107000 135000
2020-09-09 02:00 11.24 43600 144000 (2019) 32600 (2003) 60100 34900 36000 40100 41300 49900 70100 76200 107000 135000
2020-09-09 01:00 11.15 43200 144000 (2019) 32600 (2003) 60100 34900 36000 40100 41300 49900 70100 76200 107000 135000
2020-09-09 00:00 11.25 43600 144000 (2019) 32600 (2003) 60100 34900 36000 40100 41300 49900 70100 76200 107000 135000
2020-09-08 23:00 11.18 43300 146000 (2019) 31800 (2003) 58600 34900 36300 40800 42000 50600 67100 73500 85200 138000
2020-09-08 22:00 11.18 43300 146000 (2019) 31800 (2003) 58600 34900 36300 40800 42000 50600 67100 73500 85200 138000
2020-09-08 21:00 11.22 43500 146000 (2019) 31800 (2003) 58600 34900 36300 40800 42000 50600 67100 73500 85200 138000
2020-09-08 20:00 11.25 43600 146000 (2019) 31800 (2003) 58600 34900 36300 40800 42000 50600 67100 73500 85200 138000
2020-09-08 19:00 11.23 43600 146000 (2019) 31800 (2003) 58600 34900 36300 40800 42000 50600 67100 73500 85200 138000
2020-09-08 18:00 11.22 43500 146000 (2019) 31800 (2003) 58600 34900 36300 40800 42000 50600 67100 73500 85200 138000
2020-09-08 17:00 11.20 43400 146000 (2019) 31800 (2003) 58600 34900 36300 40800 42000 50600 67100 73500 85200 138000
2020-09-08 16:00 11.19 43400 146000 (2019) 31800 (2003) 58600 34900 36300 40800 42000 50600 67100 73500 85200 138000
2020-09-08 15:00 11.22 43500 146000 (2019) 31800 (2003) 58600 34900 36300 40800 42000 50600 67100 73500 85200 138000
2020-09-08 14:00 11.19 43400 146000 (2019) 31800 (2003) 58600 34900 36300 40800 42000 50600 67100 73500 85200 138000
2020-09-08 13:00 11.21 43500 146000 (2019) 31800 (2003) 58600 34900 36300 40800 42000 50600 67100 73500 85200 138000
2020-09-08 12:00 11.14 43100 146000 (2019) 31800 (2003) 58600 34900 36300 40800 42000 50600 67100 73500 85200 138000
2020-09-08 11:00 11.16 43200 146000 (2019) 31800 (2003) 58600 34900 36300 40800 42000 50600 67100 73500 85200 138000
2020-09-08 10:00 11.29 43800 146000 (2019) 31800 (2003) 58600 34900 36300 40800 42000 50600 67100 73500 85200 138000
2020-09-08 09:00 11.30 43900 146000 (2019) 31800 (2003) 58600 34900 36300 40800 42000 50600 67100 73500 85200 138000
2020-09-08 08:00 11.27 43700 146000 (2019) 31800 (2003) 58600 34900 36300 40800 42000 50600 67100 73500 85200 138000
2020-09-08 07:00 11.30 43900 146000 (2019) 31800 (2003) 58600 34900 36300 40800 42000 50600 67100 73500 85200 138000
2020-09-08 06:00 11.26 43700 146000 (2019) 31800 (2003) 58600 34900 36300 40800 42000 50600 67100 73500 85200 138000
2020-09-08 05:00 11.27 43700 146000 (2019) 31800 (2003) 58600 34900 36300 40800 42000 50600 67100 73500 85200 138000
2020-09-08 04:00 11.27 43700 146000 (2019) 31800 (2003) 58600 34900 36300 40800 42000 50600 67100 73500 85200 138000
2020-09-08 03:00 11.32 44000 146000 (2019) 31800 (2003) 58600 34900 36300 40800 42000 50600 67100 73500 85200 138000
2020-09-08 02:00 11.35 44100 146000 (2019) 31800 (2003) 58600 34900 36300 40800 42000 50600 67100 73500 85200 138000
2020-09-08 01:00 11.36 44200 146000 (2019) 31800 (2003) 58600 34900 36300 40800 42000 50600 67100 73500 85200 138000
2020-09-08 00:00 11.38 44300 146000 (2019) 31800 (2003) 58600 34900 36300 40800 42000 50600 67100 73500 85200 138000
2020-09-07 23:00 11.40 44400 147000 (2019) 31100 (2003) 57500 35000 36500 41100 42000 49500 62100 71600 82700 139000
2020-09-07 22:00 11.41 44400 147000 (2019) 31100 (2003) 57500 35000 36500 41100 42000 49500 62100 71600 82700 139000
2020-09-07 21:00 11.42 44500 147000 (2019) 31100 (2003) 57500 35000 36500 41100 42000 49500 62100 71600 82700 139000
2020-09-07 20:00 11.46 44700 147000 (2019) 31100 (2003) 57500 35000 36500 41100 42000 49500 62100 71600 82700 139000
2020-09-07 19:00 11.46 44700 147000 (2019) 31100 (2003) 57500 35000 36500 41100 42000 49500 62100 71600 82700 139000
2020-09-07 18:00 11.49 44800 147000 (2019) 31100 (2003) 57500 35000 36500 41100 42000 49500 62100 71600 82700 139000
2020-09-07 17:00 11.49 44800 147000 (2019) 31100 (2003) 57500 35000 36500 41100 42000 49500 62100 71600 82700 139000
2020-09-07 16:00 11.50 44900 147000 (2019) 31100 (2003) 57500 35000 36500 41100 42000 49500 62100 71600 82700 139000
2020-09-07 15:00 11.52 45000 147000 (2019) 31100 (2003) 57500 35000 36500 41100 42000 49500 62100 71600 82700 139000
2020-09-07 14:00 11.46 44700 147000 (2019) 31100 (2003) 57500 35000 36500 41100 42000 49500 62100 71600 82700 139000
2020-09-07 13:00 11.54 45100 147000 (2019) 31100 (2003) 57500 35000 36500 41100 42000 49500 62100 71600 82700 139000
2020-09-07 12:00 11.60 45400 147000 (2019) 31100 (2003) 57500 35000 36500 41100 42000 49500 62100 71600 82700 139000
2020-09-07 11:00 11.61 45400 147000 (2019) 31100 (2003) 57500 35000 36500 41100 42000 49500 62100 71600 82700 139000
2020-09-07 10:00 11.63 45500 147000 (2019) 31100 (2003) 57500 35000 36500 41100 42000 49500 62100 71600 82700 139000
2020-09-07 09:00 11.60 45400 147000 (2019) 31100 (2003) 57500 35000 36500 41100 42000 49500 62100 71600 82700 139000
2020-09-07 08:00 11.61 45400 147000 (2019) 31100 (2003) 57500 35000 36500 41100 42000 49500 62100 71600 82700 139000
2020-09-07 07:00 11.66 45700 147000 (2019) 31100 (2003) 57500 35000 36500 41100 42000 49500 62100 71600 82700 139000
2020-09-07 06:00 11.66 45700 147000 (2019) 31100 (2003) 57500 35000 36500 41100 42000 49500 62100 71600 82700 139000
2020-09-07 05:00 11.67 45700 147000 (2019) 31100 (2003) 57500 35000 36500 41100 42000 49500 62100 71600 82700 139000
2020-09-07 04:00 11.68 45800 147000 (2019) 31100 (2003) 57500 35000 36500 41100 42000 49500 62100 71600 82700 139000
2020-09-07 03:00 11.69 45800 147000 (2019) 31100 (2003) 57500 35000 36500 41100 42000 49500 62100 71600 82700 139000
2020-09-07 02:00 11.70 45900 147000 (2019) 31100 (2003) 57500 35000 36500 41100 42000 49500 62100 71600 82700 139000
2020-09-07 01:00 11.71 45900 147000 (2019) 31100 (2003) 57500 35000 36500 41100 42000 49500 62100 71600 82700 139000
2020-09-07 00:00 11.71 45900 147000 (2019) 31100 (2003) 57500 35000 36500 41100 42000 49500 62100 71600 82700 139000
2020-09-06 23:00 11.73 46000 151000 (2011) 31300 (2003) 57100 35600 36700 40500 42500 50500 61500 66500 87200 137000
2020-09-06 22:00 11.73 46000 151000 (2011) 31300 (2003) 57100 35600 36700 40500 42500 50500 61500 66500 87200 137000
2020-09-06 21:00 11.74 46100 151000 (2011) 31300 (2003) 57100 35600 36700 40500 42500 50500 61500 66500 87200 137000
2020-09-06 20:00 11.78 46300 151000 (2011) 31300 (2003) 57100 35600 36700 40500 42500 50500 61500 66500 87200 137000
2020-09-06 19:00 11.75 46100 151000 (2011) 31300 (2003) 57100 35600 36700 40500 42500 50500 61500 66500 87200 137000
2020-09-06 18:00 11.78 46300 151000 (2011) 31300 (2003) 57100 35600 36700 40500 42500 50500 61500 66500 87200 137000
2020-09-06 17:00 11.77 46200 151000 (2011) 31300 (2003) 57100 35600 36700 40500 42500 50500 61500 66500 87200 137000
2020-09-06 16:00 11.85 46600 151000 (2011) 31300 (2003) 57100 35600 36700 40500 42500 50500 61500 66500 87200 137000
2020-09-06 15:00 11.76 46200 151000 (2011) 31300 (2003) 57100 35600 36700 40500 42500 50500 61500 66500 87200 137000
2020-09-06 14:00 11.85 46600 151000 (2011) 31300 (2003) 57100 35600 36700 40500 42500 50500 61500 66500 87200 137000
2020-09-06 13:00 11.85 46600 151000 (2011) 31300 (2003) 57100 35600 36700 40500 42500 50500 61500 66500 87200 137000
2020-09-06 12:00 11.88 46800 151000 (2011) 31300 (2003) 57100 35600 36700 40500 42500 50500 61500 66500 87200 137000
2020-09-06 11:00 11.84 46600 151000 (2011) 31300 (2003) 57100 35600 36700 40500 42500 50500 61500 66500 87200 137000
2020-09-06 10:00 11.83 46500 151000 (2011) 31300 (2003) 57100 35600 36700 40500 42500 50500 61500 66500 87200 137000
2020-09-06 09:00 11.86 46700 151000 (2011) 31300 (2003) 57100 35600 36700 40500 42500 50500 61500 66500 87200 137000
2020-09-06 08:00 11.84 46600 151000 (2011) 31300 (2003) 57100 35600 36700 40500 42500 50500 61500 66500 87200 137000
2020-09-06 07:00 11.82 46500 151000 (2011) 31300 (2003) 57100 35600 36700 40500 42500 50500 61500 66500 87200 137000
2020-09-06 06:00 11.80 46400 151000 (2011) 31300 (2003) 57100 35600 36700 40500 42500 50500 61500 66500 87200 137000
2020-09-06 05:00 11.76 46200 151000 (2011) 31300 (2003) 57100 35600 36700 40500 42500 50500 61500 66500 87200 137000
2020-09-06 04:00 11.73 46000 151000 (2011) 31300 (2003) 57100 35600 36700 40500 42500 50500 61500 66500 87200 137000
2020-09-06 03:00 11.68 45800 151000 (2011) 31300 (2003) 57100 35600 36700 40500 42500 50500 61500 66500 87200 137000
2020-09-06 02:00 11.65 45600 151000 (2011) 31300 (2003) 57100 35600 36700 40500 42500 50500 61500 66500 87200 137000
2020-09-06 01:00 11.62 45500 151000 (2011) 31300 (2003) 57100 35600 36700 40500 42500 50500 61500 66500 87200 137000
2020-09-06 00:00 11.57 45200 151000 (2011) 31300 (2003) 57100 35600 36700 40500 42500 50500 61500 66500 87200 137000
2020-09-05 23:00 11.51 44900 156000 (2011) 32200 (2003) 57700 35800 36600 40400 41600 50500 61800 67400 92300 137000
2020-09-05 22:00 11.50 44900 156000 (2011) 32200 (2003) 57700 35800 36600 40400 41600 50500 61800 67400 92300 137000
2020-09-05 21:00 11.48 44800 156000 (2011) 32200 (2003) 57700 35800 36600 40400 41600 50500 61800 67400 92300 137000
2020-09-05 20:00 11.45 44600 156000 (2011) 32200 (2003) 57700 35800 36600 40400 41600 50500 61800 67400 92300 137000
2020-09-05 19:00 11.42 44500 156000 (2011) 32200 (2003) 57700 35800 36600 40400 41600 50500 61800 67400 92300 137000
2020-09-05 18:00 11.44 44600 156000 (2011) 32200 (2003) 57700 35800 36600 40400 41600 50500 61800 67400 92300 137000
2020-09-05 17:00 11.39 44300 156000 (2011) 32200 (2003) 57700 35800 36600 40400 41600 50500 61800 67400 92300 137000
2020-09-05 16:00 11.41 44400 156000 (2011) 32200 (2003) 57700 35800 36600 40400 41600 50500 61800 67400 92300 137000
2020-09-05 15:00 11.42 44500 156000 (2011) 32200 (2003) 57700 35800 36600 40400 41600 50500 61800 67400 92300 137000
2020-09-05 14:00 11.44 44600 156000 (2011) 32200 (2003) 57700 35800 36600 40400 41600 50500 61800 67400 92300 137000
2020-09-05 13:00 11.45 44600 156000 (2011) 32200 (2003) 57700 35800 36600 40400 41600 50500 61800 67400 92300 137000
2020-09-05 12:00 11.45 44600 156000 (2011) 32200 (2003) 57700 35800 36600 40400 41600 50500 61800 67400 92300 137000
2020-09-05 11:00 11.45 44600 156000 (2011) 32200 (2003) 57700 35800 36600 40400 41600 50500 61800 67400 92300 137000
2020-09-05 10:00 11.43 44500 156000 (2011) 32200 (2003) 57700 35800 36600 40400 41600 50500 61800 67400 92300 137000
2020-09-05 09:00 11.46 44700 156000 (2011) 32200 (2003) 57700 35800 36600 40400 41600 50500 61800 67400 92300 137000
2020-09-05 08:00 11.44 44600 156000 (2011) 32200 (2003) 57700 35800 36600 40400 41600 50500 61800 67400 92300 137000
2020-09-05 07:00 11.47 44700 156000 (2011) 32200 (2003) 57700 35800 36600 40400 41600 50500 61800 67400 92300 137000
2020-09-05 06:00 11.47 44700 156000 (2011) 32200 (2003) 57700 35800 36600 40400 41600 50500 61800 67400 92300 137000
2020-09-05 05:00 11.48 44800 156000 (2011) 32200 (2003) 57700 35800 36600 40400 41600 50500 61800 67400 92300 137000
2020-09-05 04:00 11.48 44800 156000 (2011) 32200 (2003) 57700 35800 36600 40400 41600 50500 61800 67400 92300 137000
2020-09-05 03:00 11.49 44800 156000 (2011) 32200 (2003) 57700 35800 36600 40400 41600 50500 61800 67400 92300 137000
2020-09-05 02:00 11.50 44900 156000 (2011) 32200 (2003) 57700 35800 36600 40400 41600 50500 61800 67400 92300 137000
2020-09-05 01:00 11.51 44900 156000 (2011) 32200 (2003) 57700 35800 36600 40400 41600 50500 61800 67400 92300 137000
2020-09-05 00:00 11.50 44900 156000 (2011) 32200 (2003) 57700 35800 36600 40400 41600 50500 61800 67400 92300 137000
2020-09-04 23:00 11.52 45000 160000 (2011) 33800 (2003) 58100 36200 37200 39700 40600 49900 62400 69200 92800 129000
2020-09-04 22:00 11.52 45000 160000 (2011) 33800 (2003) 58100 36200 37200 39700 40600 49900 62400 69200 92800 129000
2020-09-04 21:00 11.53 45000 160000 (2011) 33800 (2003) 58100 36200 37200 39700 40600 49900 62400 69200 92800 129000
2020-09-04 20:00 11.53 45000 160000 (2011) 33800 (2003) 58100 36200 37200 39700 40600 49900 62400 69200 92800 129000
2020-09-04 19:00 11.51 44900 160000 (2011) 33800 (2003) 58100 36200 37200 39700 40600 49900 62400 69200 92800 129000
2020-09-04 18:00 11.54 45100 160000 (2011) 33800 (2003) 58100 36200 37200 39700 40600 49900 62400 69200 92800 129000
2020-09-04 17:00 11.55 45100 160000 (2011) 33800 (2003) 58100 36200 37200 39700 40600 49900 62400 69200 92800 129000
2020-09-04 16:00 11.56 45200 160000 (2011) 33800 (2003) 58100 36200 37200 39700 40600 49900 62400 69200 92800 129000
2020-09-04 15:00 11.55 45100 160000 (2011) 33800 (2003) 58100 36200 37200 39700 40600 49900 62400 69200 92800 129000
2020-09-04 14:00 11.55 45100 160000 (2011) 33800 (2003) 58100 36200 37200 39700 40600 49900 62400 69200 92800 129000
2020-09-04 13:00 11.54 45100 160000 (2011) 33800 (2003) 58100 36200 37200 39700 40600 49900 62400 69200 92800 129000
2020-09-04 12:00 11.55 45100 160000 (2011) 33800 (2003) 58100 36200 37200 39700 40600 49900 62400 69200 92800 129000
2020-09-04 11:00 11.56 45200 160000 (2011) 33800 (2003) 58100 36200 37200 39700 40600 49900 62400 69200 92800 129000
2020-09-04 10:00 11.54 45100 160000 (2011) 33800 (2003) 58100 36200 37200 39700 40600 49900 62400 69200 92800 129000
2020-09-04 09:00 11.57 45200 160000 (2011) 33800 (2003) 58100 36200 37200 39700 40600 49900 62400 69200 92800 129000
2020-09-04 08:00 11.58 45300 160000 (2011) 33800 (2003) 58100 36200 37200 39700 40600 49900 62400 69200 92800 129000
2020-09-04 07:00 11.59 45300 160000 (2011) 33800 (2003) 58100 36200 37200 39700 40600 49900 62400 69200 92800 129000
2020-09-04 06:00 11.61 45400 160000 (2011) 33800 (2003) 58100 36200 37200 39700 40600 49900 62400 69200 92800 129000
2020-09-04 05:00 11.61 45400 160000 (2011) 33800 (2003) 58100 36200 37200 39700 40600 49900 62400 69200 92800 129000
2020-09-04 04:00 11.62 45500 160000 (2011) 33800 (2003) 58100 36200 37200 39700 40600 49900 62400 69200 92800 129000
2020-09-04 03:00 11.63 45500 160000 (2011) 33800 (2003) 58100 36200 37200 39700 40600 49900 62400 69200 92800 129000
2020-09-04 02:00 11.64 45600 160000 (2011) 33800 (2003) 58100 36200 37200 39700 40600 49900 62400 69200 92800 129000
2020-09-04 01:00 11.64 45600 160000 (2011) 33800 (2003) 58100 36200 37200 39700 40600 49900 62400 69200 92800 129000
2020-09-04 00:00 11.65 45600 160000 (2011) 33800 (2003) 58100 36200 37200 39700 40600 49900 62400 69200 92800 129000
2020-09-03 23:00 11.65 45600 162000 (2011) 34000 (1991) 57800 36900 37500 40000 40500 50100 66000 69700 80700 129000
2020-09-03 22:00 11.66 45700 162000 (2011) 34000 (1991) 57800 36900 37500 40000 40500 50100 66000 69700 80700 129000
2020-09-03 21:00 11.66 45700 162000 (2011) 34000 (1991) 57800 36900 37500 40000 40500 50100 66000 69700 80700 129000
2020-09-03 20:00 11.67 45700 162000 (2011) 34000 (1991) 57800 36900 37500 40000 40500 50100 66000 69700 80700 129000
2020-09-03 19:00 11.68 45800 162000 (2011) 34000 (1991) 57800 36900 37500 40000 40500 50100 66000 69700 80700 129000
2020-09-03 18:00 11.69 45800 162000 (2011) 34000 (1991) 57800 36900 37500 40000 40500 50100 66000 69700 80700 129000
2020-09-03 17:00 11.71 45900 162000 (2011) 34000 (1991) 57800 36900 37500 40000 40500 50100 66000 69700 80700 129000
2020-09-03 16:00 11.70 45900 162000 (2011) 34000 (1991) 57800 36900 37500 40000 40500 50100 66000 69700 80700 129000
2020-09-03 15:00 11.70 45900 162000 (2011) 34000 (1991) 57800 36900 37500 40000 40500 50100 66000 69700 80700 129000
2020-09-03 14:00 11.62 45500 162000 (2011) 34000 (1991) 57800 36900 37500 40000 40500 50100 66000 69700 80700 129000
2020-09-03 13:00 11.71 45900 162000 (2011) 34000 (1991) 57800 36900 37500 40000 40500 50100 66000 69700 80700 129000
2020-09-03 12:00 11.72 46000 162000 (2011) 34000 (1991) 57800 36900 37500 40000 40500 50100 66000 69700 80700 129000
2020-09-03 11:00 11.71 45900 162000 (2011) 34000 (1991) 57800 36900 37500 40000 40500 50100 66000 69700 80700 129000
2020-09-03 10:00 11.71 45900 162000 (2011) 34000 (1991) 57800 36900 37500 40000 40500 50100 66000 69700 80700 129000
2020-09-03 09:00 11.72 46000 162000 (2011) 34000 (1991) 57800 36900 37500 40000 40500 50100 66000 69700 80700 129000
2020-09-03 08:00 11.73 46000 162000 (2011) 34000 (1991) 57800 36900 37500 40000 40500 50100 66000 69700 80700 129000
2020-09-03 07:00 11.73 46000 162000 (2011) 34000 (1991) 57800 36900 37500 40000 40500 50100 66000 69700 80700 129000
2020-09-03 06:00 11.74 46100 162000 (2011) 34000 (1991) 57800 36900 37500 40000 40500 50100 66000 69700 80700 129000
2020-09-03 05:00 11.74 46100 162000 (2011) 34000 (1991) 57800 36900 37500 40000 40500 50100 66000 69700 80700 129000
2020-09-03 04:00 11.75 46100 162000 (2011) 34000 (1991) 57800 36900 37500 40000 40500 50100 66000 69700 80700 129000
2020-09-03 03:00 11.77 46200 162000 (2011) 34000 (1991) 57800 36900 37500 40000 40500 50100 66000 69700 80700 129000
2020-09-03 02:00 11.77 46200 162000 (2011) 34000 (1991) 57800 36900 37500 40000 40500 50100 66000 69700 80700 129000
2020-09-03 01:00 11.79 46300 162000 (2011) 34000 (1991) 57800 36900 37500 40000 40500 50100 66000 69700 80700 129000
2020-09-03 00:00 11.79 46300 162000 (2011) 34000 (1991) 57800 36900 37500 40000 40500 50100 66000 69700 80700 129000
2020-09-02 23:00 11.80 46400 175000 (2019) 33200 (1991) 59800 37200 38200 40500 42600 50900 66300 74700 86000 125000
2020-09-02 22:00 11.81 46400 175000 (2019) 33200 (1991) 59800 37200 38200 40500 42600 50900 66300 74700 86000 125000
2020-09-02 21:00 11.82 46500 175000 (2019) 33200 (1991) 59800 37200 38200 40500 42600 50900 66300 74700 86000 125000
2020-09-02 20:00 11.82 46500 175000 (2019) 33200 (1991) 59800 37200 38200 40500 42600 50900 66300 74700 86000 125000
2020-09-02 19:00 11.80 46400 175000 (2019) 33200 (1991) 59800 37200 38200 40500 42600 50900 66300 74700 86000 125000
2020-09-02 18:00 11.88 46800 175000 (2019) 33200 (1991) 59800 37200 38200 40500 42600 50900 66300 74700 86000 125000
2020-09-02 17:00 11.88 46800 175000 (2019) 33200 (1991) 59800 37200 38200 40500 42600 50900 66300 74700 86000 125000
2020-09-02 16:00 11.89 46800 175000 (2019) 33200 (1991) 59800 37200 38200 40500 42600 50900 66300 74700 86000 125000
2020-09-02 15:00 11.94 47100 175000 (2019) 33200 (1991) 59800 37200 38200 40500 42600 50900 66300 74700 86000 125000
2020-09-02 14:00 11.95 47200 175000 (2019) 33200 (1991) 59800 37200 38200 40500 42600 50900 66300 74700 86000 125000
2020-09-02 13:00 11.98 47300 175000 (2019) 33200 (1991) 59800 37200 38200 40500 42600 50900 66300 74700 86000 125000
2020-09-02 12:00 12.01 47500 175000 (2019) 33200 (1991) 59800 37200 38200 40500 42600 50900 66300 74700 86000 125000
2020-09-02 11:00 12.03 47600 175000 (2019) 33200 (1991) 59800 37200 38200 40500 42600 50900 66300 74700 86000 125000
2020-09-02 10:00 12.07 47800 175000 (2019) 33200 (1991) 59800 37200 38200 40500 42600 50900 66300 74700 86000 125000
2020-09-02 09:00 12.08 47800 175000 (2019) 33200 (1991) 59800 37200 38200 40500 42600 50900 66300 74700 86000 125000
2020-09-02 08:00 12.12 48000 175000 (2019) 33200 (1991) 59800 37200 38200 40500 42600 50900 66300 74700 86000 125000
2020-09-02 07:00 12.17 48300 175000 (2019) 33200 (1991) 59800 37200 38200 40500 42600 50900 66300 74700 86000 125000
2020-09-02 06:00 12.21 48500 175000 (2019) 33200 (1991) 59800 37200 38200 40500 42600 50900 66300 74700 86000 125000
2020-09-02 05:00 12.25 48700 175000 (2019) 33200 (1991) 59800 37200 38200 40500 42600 50900 66300 74700 86000 125000
2020-09-02 04:00 12.29 48900 175000 (2019) 33200 (1991) 59800 37200 38200 40500 42600 50900 66300 74700 86000 125000
2020-09-02 03:00 12.34 49200 175000 (2019) 33200 (1991) 59800 37200 38200 40500 42600 50900 66300 74700 86000 125000
2020-09-02 02:00 12.37 49300 175000 (2019) 33200 (1991) 59800 37200 38200 40500 42600 50900 66300 74700 86000 125000
2020-09-02 01:00 12.42 49600 175000 (2019) 33200 (1991) 59800 37200 38200 40500 42600 50900 66300 74700 86000 125000
2020-09-02 00:00 12.46 49800 175000 (2019) 33200 (1991) 59800 37200 38200 40500 42600 50900 66300 74700 86000 125000
2020-09-01 23:00 12.49 50000 194000 (2019) 33300 (1991) 60500 37700 38400 40400 42600 50800 67000 75800 92100 119000
2020-09-01 22:00 12.52 50100 194000 (2019) 33300 (1991) 60500 37700 38400 40400 42600 50800 67000 75800 92100 119000
2020-09-01 21:00 12.55 50300 194000 (2019) 33300 (1991) 60500 37700 38400 40400 42600 50800 67000 75800 92100 119000
2020-09-01 20:00 12.59 50500 194000 (2019) 33300 (1991) 60500 37700 38400 40400 42600 50800 67000 75800 92100 119000
2020-09-01 19:00 12.61 50600 194000 (2019) 33300 (1991) 60500 37700 38400 40400 42600 50800 67000 75800 92100 119000
2020-09-01 18:00 12.63 50700 194000 (2019) 33300 (1991) 60500 37700 38400 40400 42600 50800 67000 75800 92100 119000
2020-09-01 17:00 12.63 50700 194000 (2019) 33300 (1991) 60500 37700 38400 40400 42600 50800 67000 75800 92100 119000
2020-09-01 16:00 12.63 50700 194000 (2019) 33300 (1991) 60500 37700 38400 40400 42600 50800 67000 75800 92100 119000
2020-09-01 15:00 12.64 50800 194000 (2019) 33300 (1991) 60500 37700 38400 40400 42600 50800 67000 75800 92100 119000
2020-09-01 14:00 12.63 50700 194000 (2019) 33300 (1991) 60500 37700 38400 40400 42600 50800 67000 75800 92100 119000
2020-09-01 13:00 12.61 50600 194000 (2019) 33300 (1991) 60500 37700 38400 40400 42600 50800 67000 75800 92100 119000
2020-09-01 12:00 12.53 50200 194000 (2019) 33300 (1991) 60500 37700 38400 40400 42600 50800 67000 75800 92100 119000
2020-09-01 11:00 12.45 49800 194000 (2019) 33300 (1991) 60500 37700 38400 40400 42600 50800 67000 75800 92100 119000
2020-09-01 10:00 12.43 49700 194000 (2019) 33300 (1991) 60500 37700 38400 40400 42600 50800 67000 75800 92100 119000
2020-09-01 09:00 12.35 49200 194000 (2019) 33300 (1991) 60500 37700 38400 40400 42600 50800 67000 75800 92100 119000
2020-09-01 08:00 12.38 49400 194000 (2019) 33300 (1991) 60500 37700 38400 40400 42600 50800 67000 75800 92100 119000
2020-09-01 07:00 12.27 48800 194000 (2019) 33300 (1991) 60500 37700 38400 40400 42600 50800 67000 75800 92100 119000
2020-09-01 06:00 12.19 48400 194000 (2019) 33300 (1991) 60500 37700 38400 40400 42600 50800 67000 75800 92100 119000
2020-09-01 05:00 12.21 48500 194000 (2019) 33300 (1991) 60500 37700 38400 40400 42600 50800 67000 75800 92100 119000
2020-09-01 04:00 12.02 47500 194000 (2019) 33300 (1991) 60500 37700 38400 40400 42600 50800 67000 75800 92100 119000
2020-09-01 03:00 12.05 47700 194000 (2019) 33300 (1991) 60500 37700 38400 40400 42600 50800 67000 75800 92100 119000
2020-09-01 02:00 11.95 47200 194000 (2019) 33300 (1991) 60500 37700 38400 40400 42600 50800 67000 75800 92100 119000
2020-09-01 01:00 11.91 46900 194000 (2019) 33300 (1991) 60500 37700 38400 40400 42600 50800 67000 75800 92100 119000
2020-09-01 00:00 11.86 46700 194000 (2019) 33300 (1991) 60500 37700 38400 40400 42600 50800 67000 75800 92100 119000
2020-08-31 23:00 11.82 46500 180000 (2019) 33800 (1991) 60300 37500 38300 40500 41000 51500 68100 75700 85500 119000
2020-08-31 22:00 11.78 46300 180000 (2019) 33800 (1991) 60300 37500 38300 40500 41000 51500 68100 75700 85500 119000
2020-08-31 21:00 11.72 46000 180000 (2019) 33800 (1991) 60300 37500 38300 40500 41000 51500 68100 75700 85500 119000
2020-08-31 20:00 11.67 45700 180000 (2019) 33800 (1991) 60300 37500 38300 40500 41000 51500 68100 75700 85500 119000
2020-08-31 19:00 11.70 45900 180000 (2019) 33800 (1991) 60300 37500 38300 40500 41000 51500 68100 75700 85500 119000
2020-08-31 18:00 11.69 45800 180000 (2019) 33800 (1991) 60300 37500 38300 40500 41000 51500 68100 75700 85500 119000
2020-08-31 17:00 11.69 45800 180000 (2019) 33800 (1991) 60300 37500 38300 40500 41000 51500 68100 75700 85500 119000
2020-08-31 16:00 11.53 45000 180000 (2019) 33800 (1991) 60300 37500 38300 40500 41000 51500 68100 75700 85500 119000
2020-08-31 15:00 11.65 45600 180000 (2019) 33800 (1991) 60300 37500 38300 40500 41000 51500 68100 75700 85500 119000
2020-08-31 14:00 11.65 45600 180000 (2019) 33800 (1991) 60300 37500 38300 40500 41000 51500 68100 75700 85500 119000
2020-08-31 13:00 11.67 45700 180000 (2019) 33800 (1991) 60300 37500 38300 40500 41000 51500 68100 75700 85500 119000
2020-08-31 12:00 11.67 45700 180000 (2019) 33800 (1991) 60300 37500 38300 40500 41000 51500 68100 75700 85500 119000
2020-08-31 11:00 11.65 45600 180000 (2019) 33800 (1991) 60300 37500 38300 40500 41000 51500 68100 75700 85500 119000
2020-08-31 10:00 11.53 45000 180000 (2019) 33800 (1991) 60300 37500 38300 40500 41000 51500 68100 75700 85500 119000
2020-08-31 09:00 11.67 45700 180000 (2019) 33800 (1991) 60300 37500 38300 40500 41000 51500 68100 75700 85500 119000
2020-08-31 08:00 11.64 45600 180000 (2019) 33800 (1991) 60300 37500 38300 40500 41000 51500 68100 75700 85500 119000
2020-08-31 07:00 11.68 45800 180000 (2019) 33800 (1991) 60300 37500 38300 40500 41000 51500 68100 75700 85500 119000
2020-08-31 06:00 11.69 45800 180000 (2019) 33800 (1991) 60300 37500 38300 40500 41000 51500 68100 75700 85500 119000
2020-08-31 05:00 11.71 45900 180000 (2019) 33800 (1991) 60300 37500 38300 40500 41000 51500 68100 75700 85500 119000
2020-08-31 04:00 11.71 45900 180000 (2019) 33800 (1991) 60300 37500 38300 40500 41000 51500 68100 75700 85500 119000
2020-08-31 03:00 11.71 45900 180000 (2019) 33800 (1991) 60300 37500 38300 40500 41000 51500 68100 75700 85500 119000
2020-08-31 02:00 11.75 46100 180000 (2019) 33800 (1991) 60300 37500 38300 40500 41000 51500 68100 75700 85500 119000
2020-08-31 01:00 11.76 46200 180000 (2019) 33800 (1991) 60300 37500 38300 40500 41000 51500 68100 75700 85500 119000
2020-08-31 00:00 11.77 46200 180000 (2019) 33800 (1991) 60300 37500 38300 40500 41000 51500 68100 75700 85500 119000
2020-08-30 23:00 11.79 46300 180000 (2011) 30300 (2003) 59400 37300 38400 40500 40800 52000 67000 72000 87400 106000
2020-08-30 22:00 11.82 46500 180000 (2011) 30300 (2003) 59400 37300 38400 40500 40800 52000 67000 72000 87400 106000
2020-08-30 21:00 11.81 46400 180000 (2011) 30300 (2003) 59400 37300 38400 40500 40800 52000 67000 72000 87400 106000
2020-08-30 20:00 11.83 46500 180000 (2011) 30300 (2003) 59400 37300 38400 40500 40800 52000 67000 72000 87400 106000
2020-08-30 19:00 11.80 46400 180000 (2011) 30300 (2003) 59400 37300 38400 40500 40800 52000 67000 72000 87400 106000
2020-08-30 18:00 11.77 46200 180000 (2011) 30300 (2003) 59400 37300 38400 40500 40800 52000 67000 72000 87400 106000
2020-08-30 17:00 11.80 46400 180000 (2011) 30300 (2003) 59400 37300 38400 40500 40800 52000 67000 72000 87400 106000
2020-08-30 16:00 11.80 46400 180000 (2011) 30300 (2003) 59400 37300 38400 40500 40800 52000 67000 72000 87400 106000
2020-08-30 15:00 11.79 46300 180000 (2011) 30300 (2003) 59400 37300 38400 40500 40800 52000 67000 72000 87400 106000
2020-08-30 14:00 11.81 46400 180000 (2011) 30300 (2003) 59400 37300 38400 40500 40800 52000 67000 72000 87400 106000
2020-08-30 13:00 11.82 46500 180000 (2011) 30300 (2003) 59400 37300 38400 40500 40800 52000 67000 72000 87400 106000
2020-08-30 12:00 11.83 46500 180000 (2011) 30300 (2003) 59400 37300 38400 40500 40800 52000 67000 72000 87400 106000
2020-08-30 11:00 11.84 46600 180000 (2011) 30300 (2003) 59400 37300 38400 40500 40800 52000 67000 72000 87400 106000
2020-08-30 10:00 11.81 46400 180000 (2011) 30300 (2003) 59400 37300 38400 40500 40800 52000 67000 72000 87400 106000
2020-08-30 09:00 11.82 46500 180000 (2011) 30300 (2003) 59400 37300 38400 40500 40800 52000 67000 72000 87400 106000
2020-08-30 08:00 11.84 46600 180000 (2011) 30300 (2003) 59400 37300 38400 40500 40800 52000 67000 72000 87400 106000
2020-08-30 07:00 11.87 46700 180000 (2011) 30300 (2003) 59400 37300 38400 40500 40800 52000 67000 72000 87400 106000
2020-08-30 06:00 11.84 46600 180000 (2011) 30300 (2003) 59400 37300 38400 40500 40800 52000 67000 72000 87400 106000
2020-08-30 05:00 11.84 46600 180000 (2011) 30300 (2003) 59400 37300 38400 40500 40800 52000 67000 72000 87400 106000
2020-08-30 04:00 11.83 46500 180000 (2011) 30300 (2003) 59400 37300 38400 40500 40800 52000 67000 72000 87400 106000
2020-08-30 03:00 11.81 46400 180000 (2011) 30300 (2003) 59400 37300 38400 40500 40800 52000 67000 72000 87400 106000
2020-08-30 02:00 11.77 46200 180000 (2011) 30300 (2003) 59400 37300 38400 40500 40800 52000 67000 72000 87400 106000
2020-08-30 01:00 11.77 46200 180000 (2011) 30300 (2003) 59400 37300 38400 40500 40800 52000 67000 72000 87400 106000
2020-08-30 00:00 11.76 46200 180000 (2011) 30300 (2003) 59400 37300 38400 40500 40800 52000 67000 72000 87400 106000
2020-08-29 23:00 11.75 46100 185000 (2011) 29700 (2003) 59300 35800 38700 40600 41100 53600 65800 69900 87800 113000
2020-08-29 22:00 11.73 46000 185000 (2011) 29700 (2003) 59300 35800 38700 40600 41100 53600 65800 69900 87800 113000
2020-08-29 21:00 11.73 46000 185000 (2011) 29700 (2003) 59300 35800 38700 40600 41100 53600 65800 69900 87800 113000
2020-08-29 20:00 11.66 45700 185000 (2011) 29700 (2003) 59300 35800 38700 40600 41100 53600 65800 69900 87800 113000
2020-08-29 19:00 11.65 45600 185000 (2011) 29700 (2003) 59300 35800 38700 40600 41100 53600 65800 69900 87800 113000
2020-08-29 18:00 11.69 45800 185000 (2011) 29700 (2003) 59300 35800 38700 40600 41100 53600 65800 69900 87800 113000
2020-08-29 17:00 11.67 45700 185000 (2011) 29700 (2003) 59300 35800 38700 40600 41100 53600 65800 69900 87800 113000
2020-08-29 16:00 11.71 45900 185000 (2011) 29700 (2003) 59300 35800 38700 40600 41100 53600 65800 69900 87800 113000
2020-08-29 15:00 11.69 45800 185000 (2011) 29700 (2003) 59300 35800 38700 40600 41100 53600 65800 69900 87800 113000
2020-08-29 14:00 11.67 45700 185000 (2011) 29700 (2003) 59300 35800 38700 40600 41100 53600 65800 69900 87800 113000
2020-08-29 13:00 11.66 45700 185000 (2011) 29700 (2003) 59300 35800 38700 40600 41100 53600 65800 69900 87800 113000
2020-08-29 12:00 11.66 45700 185000 (2011) 29700 (2003) 59300 35800 38700 40600 41100 53600 65800 69900 87800 113000
2020-08-29 11:00 11.68 45800 185000 (2011) 29700 (2003) 59300 35800 38700 40600 41100 53600 65800 69900 87800 113000
2020-08-29 10:00 11.66 45700 185000 (2011) 29700 (2003) 59300 35800 38700 40600 41100 53600 65800 69900 87800 113000
2020-08-29 09:00 11.69 45800 185000 (2011) 29700 (2003) 59300 35800 38700 40600 41100 53600 65800 69900 87800 113000
2020-08-29 08:00 11.69 45800 185000 (2011) 29700 (2003) 59300 35800 38700 40600 41100 53600 65800 69900 87800 113000
2020-08-29 07:00 11.68 45800 185000 (2011) 29700 (2003) 59300 35800 38700 40600 41100 53600 65800 69900 87800 113000
2020-08-29 06:00 11.69 45800 185000 (2011) 29700 (2003) 59300 35800 38700 40600 41100 53600 65800 69900 87800 113000
2020-08-29 05:00 11.70 45900 185000 (2011) 29700 (2003) 59300 35800 38700 40600 41100 53600 65800 69900 87800 113000
2020-08-29 04:00 11.70 45900 185000 (2011) 29700 (2003) 59300 35800 38700 40600 41100 53600 65800 69900 87800 113000
2020-08-29 03:00 11.71 45900 185000 (2011) 29700 (2003) 59300 35800 38700 40600 41100 53600 65800 69900 87800 113000
2020-08-29 02:00 11.71 45900 185000 (2011) 29700 (2003) 59300 35800 38700 40600 41100 53600 65800 69900 87800 113000
2020-08-29 01:00 11.71 45900 185000 (2011) 29700 (2003) 59300 35800 38700 40600 41100 53600 65800 69900 87800 113000
2020-08-29 00:00 11.72 46000 185000 (2011) 29700 (2003) 59300 35800 38700 40600 41100 53600 65800 69900 87800 113000
2020-08-28 23:00 11.72 46000 192000 (2011) 29600 (2003) 60600 34900 39600 41400 42100 51700 66800 77800 91100 127000
2020-08-28 22:00 11.73 46000 192000 (2011) 29600 (2003) 60600 34900 39600 41400 42100 51700 66800 77800 91100 127000
2020-08-28 21:00 11.73 46000 192000 (2011) 29600 (2003) 60600 34900 39600 41400 42100 51700 66800 77800 91100 127000
2020-08-28 20:00 11.69 45800 192000 (2011) 29600 (2003) 60600 34900 39600 41400 42100 51700 66800 77800 91100 127000
2020-08-28 19:00 11.72 46000 192000 (2011) 29600 (2003) 60600 34900 39600 41400 42100 51700 66800 77800 91100 127000
2020-08-28 18:00 11.75 46100 192000 (2011) 29600 (2003) 60600 34900 39600 41400 42100 51700 66800 77800 91100 127000
2020-08-28 17:00 11.75 46100 192000 (2011) 29600 (2003) 60600 34900 39600 41400 42100 51700 66800 77800 91100 127000
2020-08-28 16:00 11.77 46200 192000 (2011) 29600 (2003) 60600 34900 39600 41400 42100 51700 66800 77800 91100 127000
2020-08-28 15:00 11.77 46200 192000 (2011) 29600 (2003) 60600 34900 39600 41400 42100 51700 66800 77800 91100 127000
2020-08-28 14:00 11.75 46100 192000 (2011) 29600 (2003) 60600 34900 39600 41400 42100 51700 66800 77800 91100 127000
2020-08-28 13:00 11.78 46300 192000 (2011) 29600 (2003) 60600 34900 39600 41400 42100 51700 66800 77800 91100 127000
2020-08-28 12:00 11.77 46200 192000 (2011) 29600 (2003) 60600 34900 39600 41400 42100 51700 66800 77800 91100 127000
2020-08-28 11:00 11.78 46300 192000 (2011) 29600 (2003) 60600 34900 39600 41400 42100 51700 66800 77800 91100 127000
2020-08-28 10:00 11.78 46300 192000 (2011) 29600 (2003) 60600 34900 39600 41400 42100 51700 66800 77800 91100 127000
2020-08-28 09:00 11.79 46300 192000 (2011) 29600 (2003) 60600 34900 39600 41400 42100 51700 66800 77800 91100 127000
2020-08-28 08:00 11.78 46300 192000 (2011) 29600 (2003) 60600 34900 39600 41400 42100 51700 66800 77800 91100 127000
2020-08-28 07:00 11.79 46300 192000 (2011) 29600 (2003) 60600 34900 39600 41400 42100 51700 66800 77800 91100 127000
2020-08-28 06:00 11.80 46400 192000 (2011) 29600 (2003) 60600 34900 39600 41400 42100 51700 66800 77800 91100 127000
2020-08-28 05:00 11.79 46300 192000 (2011) 29600 (2003) 60600 34900 39600 41400 42100 51700 66800 77800 91100 127000
2020-08-28 04:00 11.80 46400 192000 (2011) 29600 (2003) 60600 34900 39600 41400 42100 51700 66800 77800 91100 127000
2020-08-28 03:00 11.79 46300 192000 (2011) 29600 (2003) 60600 34900 39600 41400 42100 51700 66800 77800 91100 127000
2020-08-28 02:00 11.81 46400 192000 (2011) 29600 (2003) 60600 34900 39600 41400 42100 51700 66800 77800 91100 127000
2020-08-28 01:00 11.81 46400 192000 (2011) 29600 (2003) 60600 34900 39600 41400 42100 51700 66800 77800 91100 127000
2020-08-28 00:00 11.82 46500 192000 (2011) 29600 (2003) 60600 34900 39600 41400 42100 51700 66800 77800 91100 127000
2020-08-27 23:00 11.83 46500 196000 (2011) 29800 (2003) 60600 34800 38600 42000 42600 51000 63600 78800 94100 116000
2020-08-27 22:00 11.84 46600 196000 (2011) 29800 (2003) 60600 34800 38600 42000 42600 51000 63600 78800 94100 116000
2020-08-27 21:00 11.71 45900 196000 (2011) 29800 (2003) 60600 34800 38600 42000 42600 51000 63600 78800 94100 116000
2020-08-27 20:00 11.79 46300 196000 (2011) 29800 (2003) 60600 34800 38600 42000 42600 51000 63600 78800 94100 116000
2020-08-27 19:00 11.85 46600 196000 (2011) 29800 (2003) 60600 34800 38600 42000 42600 51000 63600 78800 94100 116000
2020-08-27 18:00 11.85 46600 196000 (2011) 29800 (2003) 60600 34800 38600 42000 42600 51000 63600 78800 94100 116000
2020-08-27 17:00 11.85 46600 196000 (2011) 29800 (2003) 60600 34800 38600 42000 42600 51000 63600 78800 94100 116000
2020-08-27 16:00 11.85 46600 196000 (2011) 29800 (2003) 60600 34800 38600 42000 42600 51000 63600 78800 94100 116000
2020-08-27 15:00 11.86 51200 196000 (2011) 29800 (2003) 60600 34800 38600 42000 42600 51000 63600 78800 94100 116000
2020-08-27 14:00 11.86 51200 196000 (2011) 29800 (2003) 60600 34800 38600 42000 42600 51000 63600 78800 94100 116000
2020-08-27 13:00 11.87 51200 196000 (2011) 29800 (2003) 60600 34800 38600 42000 42600 51000 63600 78800 94100 116000
2020-08-27 12:00 11.87 51200 196000 (2011) 29800 (2003) 60600 34800 38600 42000 42600 51000 63600 78800 94100 116000
2020-08-27 11:00 11.86 51200 196000 (2011) 29800 (2003) 60600 34800 38600 42000 42600 51000 63600 78800 94100 116000
2020-08-27 10:00 11.88 51300 196000 (2011) 29800 (2003) 60600 34800 38600 42000 42600 51000 63600 78800 94100 116000
2020-08-27 09:00 11.88 51300 196000 (2011) 29800 (2003) 60600 34800 38600 42000 42600 51000 63600 78800 94100 116000
2020-08-27 08:00 11.88 51300 196000 (2011) 29800 (2003) 60600 34800 38600 42000 42600 51000 63600 78800 94100 116000
2020-08-27 07:00 11.84 51100 196000 (2011) 29800 (2003) 60600 34800 38600 42000 42600 51000 63600 78800 94100 116000
2020-08-27 06:00 11.90 51400 196000 (2011) 29800 (2003) 60600 34800 38600 42000 42600 51000 63600 78800 94100 116000
2020-08-27 05:00 11.89 51300 196000 (2011) 29800 (2003) 60600 34800 38600 42000 42600 51000 63600 78800 94100 116000
2020-08-27 04:00 11.90 51400 196000 (2011) 29800 (2003) 60600 34800 38600 42000 42600 51000 63600 78800 94100 116000
2020-08-27 03:00 11.89 51300 196000 (2011) 29800 (2003) 60600 34800 38600 42000 42600 51000 63600 78800 94100 116000
2020-08-27 02:00 11.91 51400 196000 (2011) 29800 (2003) 60600 34800 38600 42000 42600 51000 63600 78800 94100 116000
2020-08-27 01:00 11.91 51400 196000 (2011) 29800 (2003) 60600 34800 38600 42000 42600 51000 63600 78800 94100 116000
2020-08-27 00:00 11.92 51500 196000 (2011) 29800 (2003) 60600 34800 38600 42000 42600 51000 63600 78800 94100 116000
2020-08-26 23:00 11.92 51500 200000 (2011) 30200 (2003) 59500 35900 39000 40900 42200 52000 64400 66700 90100 117000
2020-08-26 22:00 11.92 51500 200000 (2011) 30200 (2003) 59500 35900 39000 40900 42200 52000 64400 66700 90100 117000
2020-08-26 21:00 11.93 51600 200000 (2011) 30200 (2003) 59500 35900 39000 40900 42200 52000 64400 66700 90100 117000
2020-08-26 20:00 11.93 51600 200000 (2011) 30200 (2003) 59500 35900 39000 40900 42200 52000 64400 66700 90100 117000
2020-08-26 19:00 11.94 51600 200000 (2011) 30200 (2003) 59500 35900 39000 40900 42200 52000 64400 66700 90100 117000
2020-08-26 18:00 11.91 51400 200000 (2011) 30200 (2003) 59500 35900 39000 40900 42200 52000 64400 66700 90100 117000
2020-08-26 17:00 11.91 51400 200000 (2011) 30200 (2003) 59500 35900 39000 40900 42200 52000 64400 66700 90100 117000
2020-08-26 16:00 11.89 51300 200000 (2011) 30200 (2003) 59500 35900 39000 40900 42200 52000 64400 66700 90100 117000
2020-08-26 15:00 11.91 51400 200000 (2011) 30200 (2003) 59500 35900 39000 40900 42200 52000 64400 66700 90100 117000
2020-08-26 14:00 11.90 51400 200000 (2011) 30200 (2003) 59500 35900 39000 40900 42200 52000 64400 66700 90100 117000
2020-08-26 13:00 11.87 51200 200000 (2011) 30200 (2003) 59500 35900 39000 40900 42200 52000 64400 66700 90100 117000
2020-08-26 12:00 11.98 51800 200000 (2011) 30200 (2003) 59500 35900 39000 40900 42200 52000 64400 66700 90100 117000
2020-08-26 11:00 11.98 51800 200000 (2011) 30200 (2003) 59500 35900 39000 40900 42200 52000 64400 66700 90100 117000
2020-08-26 10:00 11.99 51900 200000 (2011) 30200 (2003) 59500 35900 39000 40900 42200 52000 64400 66700 90100 117000
2020-08-26 09:00 12.00 51900 200000 (2011) 30200 (2003) 59500 35900 39000 40900 42200 52000 64400 66700 90100 117000
2020-08-26 08:00 12.01 52000 200000 (2011) 30200 (2003) 59500 35900 39000 40900 42200 52000 64400 66700 90100 117000
2020-08-26 07:00 12.02 52000 200000 (2011) 30200 (2003) 59500 35900 39000 40900 42200 52000 64400 66700 90100 117000
2020-08-26 06:00 12.02 52000 200000 (2011) 30200 (2003) 59500 35900 39000 40900 42200 52000 64400 66700 90100 117000
2020-08-26 05:00 12.02 52000 200000 (2011) 30200 (2003) 59500 35900 39000 40900 42200 52000 64400 66700 90100 117000
2020-08-26 04:00 12.03 52100 200000 (2011) 30200 (2003) 59500 35900 39000 40900 42200 52000 64400 66700 90100 117000
2020-08-26 03:00 12.04 52200 200000 (2011) 30200 (2003) 59500 35900 39000 40900 42200 52000 64400 66700 90100 117000
2020-08-26 02:00 12.03 52100 200000 (2011) 30200 (2003) 59500 35900 39000 40900 42200 52000 64400 66700 90100 117000
2020-08-26 01:00 12.07 52300 200000 (2011) 30200 (2003) 59500 35900 39000 40900 42200 52000 64400 66700 90100 117000
2020-08-26 00:00 12.05 52200 200000 (2011) 30200 (2003) 59500 35900 39000 40900 42200 52000 64400 66700 90100 117000
2020-08-25 23:00 12.06 52300 205000 (2011) 30600 (2003) 58300 36500 38500 41100 41800 49200 62600 66300 92800 119000
2020-08-25 22:00 12.08 52400 205000 (2011) 30600 (2003) 58300 36500 38500 41100 41800 49200 62600 66300 92800 119000
2020-08-25 21:00 12.09 52400 205000 (2011) 30600 (2003) 58300 36500 38500 41100 41800 49200 62600 66300 92800 119000
2020-08-25 20:00 12.09 52400 205000 (2011) 30600 (2003) 58300 36500 38500 41100 41800 49200 62600 66300 92800 119000
2020-08-25 19:00 12.11 52500 205000 (2011) 30600 (2003) 58300 36500 38500 41100 41800 49200 62600 66300 92800 119000
2020-08-25 18:00 12.12 52600 205000 (2011) 30600 (2003) 58300 36500 38500 41100 41800 49200 62600 66300 92800 119000
2020-08-25 17:00 12.12 52600 205000 (2011) 30600 (2003) 58300 36500 38500 41100 41800 49200 62600 66300 92800 119000
2020-08-25 16:00 12.12 52600 205000 (2011) 30600 (2003) 58300 36500 38500 41100 41800 49200 62600 66300 92800 119000
2020-08-25 15:00 12.12 52600 205000 (2011) 30600 (2003) 58300 36500 38500 41100 41800 49200 62600 66300 92800 119000
2020-08-25 14:00 12.11 52500 205000 (2011) 30600 (2003) 58300 36500 38500 41100 41800 49200 62600 66300 92800 119000
2020-08-25 13:00 12.13 52700 205000 (2011) 30600 (2003) 58300 36500 38500 41100 41800 49200 62600 66300 92800 119000
2020-08-25 12:00 12.14 52700 205000 (2011) 30600 (2003) 58300 36500 38500 41100 41800 49200 62600 66300 92800 119000
2020-08-25 11:00 12.11 52500 205000 (2011) 30600 (2003) 58300 36500 38500 41100 41800 49200 62600 66300 92800 119000
2020-08-25 10:00 12.16 52800 205000 (2011) 30600 (2003) 58300 36500 38500 41100 41800 49200 62600 66300 92800 119000
2020-08-25 09:00 12.17 52900 205000 (2011) 30600 (2003) 58300 36500 38500 41100 41800 49200 62600 66300 92800 119000
2020-08-25 08:00 12.18 52900 205000 (2011) 30600 (2003) 58300 36500 38500 41100 41800 49200 62600 66300 92800 119000
2020-08-25 07:00 12.18 52900 205000 (2011) 30600 (2003) 58300 36500 38500 41100 41800 49200 62600 66300 92800 119000
2020-08-25 06:00 12.20 53000 205000 (2011) 30600 (2003) 58300 36500 38500 41100 41800 49200 62600 66300 92800 119000
2020-08-25 05:00 12.20 53000 205000 (2011) 30600 (2003) 58300 36500 38500 41100 41800 49200 62600 66300 92800 119000
2020-08-25 04:00 12.22 53200 205000 (2011) 30600 (2003) 58300 36500 38500 41100 41800 49200 62600 66300 92800 119000
2020-08-25 03:00 12.22 53200 205000 (2011) 30600 (2003) 58300 36500 38500 41100 41800 49200 62600 66300 92800 119000
2020-08-25 02:00 12.21 53100 205000 (2011) 30600 (2003) 58300 36500 38500 41100 41800 49200 62600 66300 92800 119000
2020-08-25 01:00 12.23 53200 205000 (2011) 30600 (2003) 58300 36500 38500 41100 41800 49200 62600 66300 92800 119000
2020-08-25 00:00 12.22 53200 205000 (2011) 30600 (2003) 58300 36500 38500 41100 41800 49200 62600 66300 92800 119000
2020-08-24 23:00 12.24 53300 210000 (2011) 31300 (2003) 58900 35200 39400 41000 41900 48700 63300 66400 102000 123000
2020-08-24 22:00 12.24 53300 210000 (2011) 31300 (2003) 58900 35200 39400 41000 41900 48700 63300 66400 102000 123000
2020-08-24 21:00 12.25 53300 210000 (2011) 31300 (2003) 58900 35200 39400 41000 41900 48700 63300 66400 102000 123000
2020-08-24 20:00 12.25 53300 210000 (2011) 31300 (2003) 58900 35200 39400 41000 41900 48700 63300 66400 102000 123000
2020-08-24 19:00 12.25 53300 210000 (2011) 31300 (2003) 58900 35200 39400 41000 41900 48700 63300 66400 102000 123000
2020-08-24 18:00 12.27 53400 210000 (2011) 31300 (2003) 58900 35200 39400 41000 41900 48700 63300 66400 102000 123000
2020-08-24 17:00 12.28 53500 210000 (2011) 31300 (2003) 58900 35200 39400 41000 41900 48700 63300 66400 102000 123000
2020-08-24 16:00 12.24 53300 210000 (2011) 31300 (2003) 58900 35200 39400 41000 41900 48700 63300 66400 102000 123000
2020-08-24 15:00 12.29 53500 210000 (2011) 31300 (2003) 58900 35200 39400 41000 41900 48700 63300 66400 102000 123000
2020-08-24 14:00 12.29 53500 210000 (2011) 31300 (2003) 58900 35200 39400 41000 41900 48700 63300 66400 102000 123000
2020-08-24 13:00 12.29 53500 210000 (2011) 31300 (2003) 58900 35200 39400 41000 41900 48700 63300 66400 102000 123000
2020-08-24 12:00 12.30 53600 210000 (2011) 31300 (2003) 58900 35200 39400 41000 41900 48700 63300 66400 102000 123000
2020-08-24 11:00 12.30 53600 210000 (2011) 31300 (2003) 58900 35200 39400 41000 41900 48700 63300 66400 102000 123000
2020-08-24 10:00 12.31 53700 210000 (2011) 31300 (2003) 58900 35200 39400 41000 41900 48700 63300 66400 102000 123000
2020-08-24 09:00 12.31 53700 210000 (2011) 31300 (2003) 58900 35200 39400 41000 41900 48700 63300 66400 102000 123000
2020-08-24 08:00 12.32 53700 210000 (2011) 31300 (2003) 58900 35200 39400 41000 41900 48700 63300 66400 102000 123000
2020-08-24 07:00 12.33 53800 210000 (2011) 31300 (2003) 58900 35200 39400 41000 41900 48700 63300 66400 102000 123000
2020-08-24 06:00 12.34 53800 210000 (2011) 31300 (2003) 58900 35200 39400 41000 41900 48700 63300 66400 102000 123000
2020-08-24 05:00 12.34 53800 210000 (2011) 31300 (2003) 58900 35200 39400 41000 41900 48700 63300 66400 102000 123000
2020-08-24 04:00 12.35 53900 210000 (2011) 31300 (2003) 58900 35200 39400 41000 41900 48700 63300 66400 102000 123000
2020-08-24 03:00 12.36 53900 210000 (2011) 31300 (2003) 58900 35200 39400 41000 41900 48700 63300 66400 102000 123000
2020-08-24 02:00 12.36 53900 210000 (2011) 31300 (2003) 58900 35200 39400 41000 41900 48700 63300 66400 102000 123000
2020-08-24 01:00 12.37 54000 210000 (2011) 31300 (2003) 58900 35200 39400 41000 41900 48700 63300 66400 102000 123000
2020-08-24 00:00 12.37 54000 210000 (2011) 31300 (2003) 58900 35200 39400 41000 41900 48700 63300 66400 102000 123000
2020-08-23 23:00 12.37 54000 211000 (2011) 31600 (2003) 60500 35200 38200 42000 42300 49800 62600 65700 106000 151000
2020-08-23 22:00 12.39 54100 211000 (2011) 31600 (2003) 60500 35200 38200 42000 42300 49800 62600 65700 106000 151000
2020-08-23 21:00 12.39 54100 211000 (2011) 31600 (2003) 60500 35200 38200 42000 42300 49800 62600 65700 106000 151000
2020-08-23 20:00 12.41 54200 211000 (2011) 31600 (2003) 60500 35200 38200 42000 42300 49800 62600 65700 106000 151000
2020-08-23 19:00 12.41 54200 211000 (2011) 31600 (2003) 60500 35200 38200 42000 42300 49800 62600 65700 106000 151000
2020-08-23 18:00 12.42 54300 211000 (2011) 31600 (2003) 60500 35200 38200 42000 42300 49800 62600 65700 106000 151000
2020-08-23 17:00 12.43 54300 211000 (2011) 31600 (2003) 60500 35200 38200 42000 42300 49800 62600 65700 106000 151000
2020-08-23 16:00 12.44 54400 211000 (2011) 31600 (2003) 60500 35200 38200 42000 42300 49800 62600 65700 106000 151000
2020-08-23 15:00 12.44 54400 211000 (2011) 31600 (2003) 60500 35200 38200 42000 42300 49800 62600 65700 106000 151000
2020-08-23 14:00 12.45 54400 211000 (2011) 31600 (2003) 60500 35200 38200 42000 42300 49800 62600 65700 106000 151000
2020-08-23 13:00 12.47 54600 211000 (2011) 31600 (2003) 60500 35200 38200 42000 42300 49800 62600 65700 106000 151000
2020-08-23 12:00 12.45 54400 211000 (2011) 31600 (2003) 60500 35200 38200 42000 42300 49800 62600 65700 106000 151000
2020-08-23 11:00 12.48 54600 211000 (2011) 31600 (2003) 60500 35200 38200 42000 42300 49800 62600 65700 106000 151000
2020-08-23 10:00 12.45 54400 211000 (2011) 31600 (2003) 60500 35200 38200 42000 42300 49800 62600 65700 106000 151000
2020-08-23 09:00 12.47 54600 211000 (2011) 31600 (2003) 60500 35200 38200 42000 42300 49800 62600 65700 106000 151000
2020-08-23 08:00 12.49 54700 211000 (2011) 31600 (2003) 60500 35200 38200 42000 42300 49800 62600 65700 106000 151000
2020-08-23 07:00 12.50 54700 211000 (2011) 31600 (2003) 60500 35200 38200 42000 42300 49800 62600 65700 106000 151000
2020-08-23 06:00 12.51 54800 211000 (2011) 31600 (2003) 60500 35200 38200 42000 42300 49800 62600 65700 106000 151000
2020-08-23 05:00 12.52 54800 211000 (2011) 31600 (2003) 60500 35200 38200 42000 42300 49800 62600 65700 106000 151000
2020-08-23 04:00 12.52 54800 211000 (2011) 31600 (2003) 60500 35200 38200 42000 42300 49800 62600 65700 106000 151000
2020-08-23 03:00 12.54 55000 211000 (2011) 31600 (2003) 60500 35200 38200 42000 42300 49800 62600 65700 106000 151000
2020-08-23 02:00 12.53 54900 211000 (2011) 31600 (2003) 60500 35200 38200 42000 42300 49800 62600 65700 106000 151000
2020-08-23 01:00 12.56 55100 211000 (2011) 31600 (2003) 60500 35200 38200 42000 42300 49800 62600 65700 106000 151000
2020-08-23 00:00 12.57 55100 211000 (2011) 31600 (2003) 60500 35200 38200 42000 42300 49800 62600 65700 106000 151000
2020-08-22 23:00 12.58 55200 207000 (2011) 29400 (2003) 59900 35300 37300 41800 42300 49000 62600 64700 96400 128000
2020-08-22 22:00 12.59 55200 207000 (2011) 29400 (2003) 59900 35300 37300 41800 42300 49000 62600 64700 96400 128000
2020-08-22 21:00 12.60 55300 207000 (2011) 29400 (2003) 59900 35300 37300 41800 42300 49000 62600 64700 96400 128000
2020-08-22 20:00 12.61 55400 207000 (2011) 29400 (2003) 59900 35300 37300 41800 42300 49000 62600 64700 96400 128000
2020-08-22 19:00 12.61 55400 207000 (2011) 29400 (2003) 59900 35300 37300 41800 42300 49000 62600 64700 96400 128000
2020-08-22 18:00 12.63 55500 207000 (2011) 29400 (2003) 59900 35300 37300 41800 42300 49000 62600 64700 96400 128000
2020-08-22 17:00 12.65 55600 207000 (2011) 29400 (2003) 59900 35300 37300 41800 42300 49000 62600 64700 96400 128000
2020-08-22 16:00 12.67 55700 207000 (2011) 29400 (2003) 59900 35300 37300 41800 42300 49000 62600 64700 96400 128000
2020-08-22 15:00 12.67 55700 207000 (2011) 29400 (2003) 59900 35300 37300 41800 42300 49000 62600 64700 96400 128000
2020-08-22 14:00 12.70 55900 207000 (2011) 29400 (2003) 59900 35300 37300 41800 42300 49000 62600 64700 96400 128000
2020-08-22 13:00 12.69 55800 207000 (2011) 29400 (2003) 59900 35300 37300 41800 42300 49000 62600 64700 96400 128000
2020-08-22 12:00 12.69 55800 207000 (2011) 29400 (2003) 59900 35300 37300 41800 42300 49000 62600 64700 96400 128000
2020-08-22 11:00 12.73 56100 207000 (2011) 29400 (2003) 59900 35300 37300 41800 42300 49000 62600 64700 96400 128000
2020-08-22 10:00 12.75 56200 207000 (2011) 29400 (2003) 59900 35300 37300 41800 42300 49000 62600 64700 96400 128000
2020-08-22 09:00 12.73 56100 207000 (2011) 29400 (2003) 59900 35300 37300 41800 42300 49000 62600 64700 96400 128000
2020-08-22 08:00 12.74 56100 207000 (2011) 29400 (2003) 59900 35300 37300 41800 42300 49000 62600 64700 96400 128000
2020-08-22 07:00 12.78 56300 207000 (2011) 29400 (2003) 59900 35300 37300 41800 42300 49000 62600 64700 96400 128000
2020-08-22 06:00 12.79 56400 207000 (2011) 29400 (2003) 59900 35300 37300 41800 42300 49000 62600 64700 96400 128000
2020-08-22 05:00 12.81 56500 207000 (2011) 29400 (2003) 59900 35300 37300 41800 42300 49000 62600 64700 96400 128000
2020-08-22 04:00 12.82 56600 207000 (2011) 29400 (2003) 59900 35300 37300 41800 42300 49000 62600 64700 96400 128000
2020-08-22 03:00 12.84 56700 207000 (2011) 29400 (2003) 59900 35300 37300 41800 42300 49000 62600 64700 96400 128000
2020-08-22 02:00 12.85 56800 207000 (2011) 29400 (2003) 59900 35300 37300 41800 42300 49000 62600 64700 96400 128000
2020-08-22 01:00 12.87 56900 207000 (2011) 29400 (2003) 59900 35300 37300 41800 42300 49000 62600 64700 96400 128000
2020-08-22 00:00 12.89 57000 207000 (2011) 29400 (2003) 59900 35300 37300 41800 42300 49000 62600 64700 96400 128000
2020-08-21 23:00 12.91 57100 204000 (2011) 28600 (2003) 59500 35700 36300 41300 42400 51000 67600 68800 87100 136000
2020-08-21 22:00 12.92 57200 204000 (2011) 28600 (2003) 59500 35700 36300 41300 42400 51000 67600 68800 87100 136000
2020-08-21 21:00 12.94 57300 204000 (2011) 28600 (2003) 59500 35700 36300 41300 42400 51000 67600 68800 87100 136000
2020-08-21 20:00 12.96 57400 204000 (2011) 28600 (2003) 59500 35700 36300 41300 42400 51000 67600 68800 87100 136000
2020-08-21 19:00 12.97 57500 204000 (2011) 28600 (2003) 59500 35700 36300 41300 42400 51000 67600 68800 87100 136000
2020-08-21 18:00 12.99 57600 204000 (2011) 28600 (2003) 59500 35700 36300 41300 42400 51000 67600 68800 87100 136000
2020-08-21 17:00 12.99 57600 204000 (2011) 28600 (2003) 59500 35700 36300 41300 42400 51000 67600 68800 87100 136000
2020-08-21 16:00 12.99 57600 204000 (2011) 28600 (2003) 59500 35700 36300 41300 42400 51000 67600 68800 87100 136000
2020-08-21 15:00 13.05 57900 204000 (2011) 28600 (2003) 59500 35700 36300 41300 42400 51000 67600 68800 87100 136000
2020-08-21 14:00 13.07 58000 204000 (2011) 28600 (2003) 59500 35700 36300 41300 42400 51000 67600 68800 87100 136000
2020-08-21 13:00 13.09 58200 204000 (2011) 28600 (2003) 59500 35700 36300 41300 42400 51000 67600 68800 87100 136000
2020-08-21 12:00 13.10 58200 204000 (2011) 28600 (2003) 59500 35700 36300 41300 42400 51000 67600 68800 87100 136000
2020-08-21 11:00 13.11 58300 204000 (2011) 28600 (2003) 59500 35700 36300 41300 42400 51000 67600 68800 87100 136000
2020-08-21 10:00 13.13 58400 204000 (2011) 28600 (2003) 59500 35700 36300 41300 42400 51000 67600 68800 87100 136000
2020-08-21 09:00 13.14 58500 204000 (2011) 28600 (2003) 59500 35700 36300 41300 42400 51000 67600 68800 87100 136000
2020-08-21 08:00 13.16 58600 204000 (2011) 28600 (2003) 59500 35700 36300 41300 42400 51000 67600 68800 87100 136000
2020-08-21 07:00 13.17 58600 204000 (2011) 28600 (2003) 59500 35700 36300 41300 42400 51000 67600 68800 87100 136000
2020-08-21 06:00 13.19 58800 204000 (2011) 28600 (2003) 59500 35700 36300 41300 42400 51000 67600 68800 87100 136000
2020-08-21 05:00 13.20 58800 204000 (2011) 28600 (2003) 59500 35700 36300 41300 42400 51000 67600 68800 87100 136000
2020-08-21 04:00 13.22 58900 204000 (2011) 28600 (2003) 59500 35700 36300 41300 42400 51000 67600 68800 87100 136000
2020-08-21 03:00 13.24 59100 204000 (2011) 28600 (2003) 59500 35700 36300 41300 42400 51000 67600 68800 87100 136000
2020-08-21 02:00 13.26 59200 204000 (2011) 28600 (2003) 59500 35700 36300 41300 42400 51000 67600 68800 87100 136000
2020-08-21 01:00 13.28 59300 204000 (2011) 28600 (2003) 59500 35700 36300 41300 42400 51000 67600 68800 87100 136000
2020-08-21 00:00 13.31 59500 204000 (2011) 28600 (2003) 59500 35700 36300 41300 42400 51000 67600 68800 87100 136000
2020-08-20 23:00 13.32 59500 197000 (2011) 29300 (2003) 59600 35600 37100 40100 42300 51200 63100 70400 88300 120000
2020-08-20 22:00 13.33 59600 197000 (2011) 29300 (2003) 59600 35600 37100 40100 42300 51200 63100 70400 88300 120000
2020-08-20 21:00 13.35 59700 197000 (2011) 29300 (2003) 59600 35600 37100 40100 42300 51200 63100 70400 88300 120000
2020-08-20 20:00 13.36 59800 197000 (2011) 29300 (2003) 59600 35600 37100 40100 42300 51200 63100 70400 88300 120000
2020-08-20 19:00 13.39 60000 197000 (2011) 29300 (2003) 59600 35600 37100 40100 42300 51200 63100 70400 88300 120000
2020-08-20 18:00 13.38 59900 197000 (2011) 29300 (2003) 59600 35600 37100 40100 42300 51200 63100 70400 88300 120000
2020-08-20 17:00 13.41 60100 197000 (2011) 29300 (2003) 59600 35600 37100 40100 42300 51200 63100 70400 88300 120000
2020-08-20 16:00 13.44 60300 197000 (2011) 29300 (2003) 59600 35600 37100 40100 42300 51200 63100 70400 88300 120000
2020-08-20 15:00 13.46 60400 197000 (2011) 29300 (2003) 59600 35600 37100 40100 42300 51200 63100 70400 88300 120000
2020-08-20 14:00 13.47 60500 197000 (2011) 29300 (2003) 59600 35600 37100 40100 42300 51200 63100 70400 88300 120000
2020-08-20 13:00 13.49 60600 197000 (2011) 29300 (2003) 59600 35600 37100 40100 42300 51200 63100 70400 88300 120000
2020-08-20 12:00 13.51 60700 197000 (2011) 29300 (2003) 59600 35600 37100 40100 42300 51200 63100 70400 88300 120000
2020-08-20 11:00 13.52 60800 197000 (2011) 29300 (2003) 59600 35600 37100 40100 42300 51200 63100 70400 88300 120000
2020-08-20 10:00 13.54 60900 197000 (2011) 29300 (2003) 59600 35600 37100 40100 42300 51200 63100 70400 88300 120000
2020-08-20 09:00 13.56 61000 197000 (2011) 29300 (2003) 59600 35600 37100 40100 42300 51200 63100 70400 88300 120000
2020-08-20 08:00 13.58 61100 197000 (2011) 29300 (2003) 59600 35600 37100 40100 42300 51200 63100 70400 88300 120000
2020-08-20 07:00 13.59 61200 197000 (2011) 29300 (2003) 59600 35600 37100 40100 42300 51200 63100 70400 88300 120000
2020-08-20 06:00 13.63 61400 197000 (2011) 29300 (2003) 59600 35600 37100 40100 42300 51200 63100 70400 88300 120000
2020-08-20 05:00 13.65 61600 197000 (2011) 29300 (2003) 59600 35600 37100 40100 42300 51200 63100 70400 88300 120000
2020-08-20 04:00 13.67 61700 197000 (2011) 29300 (2003) 59600 35600 37100 40100 42300 51200 63100 70400 88300 120000
2020-08-20 03:00 13.68 61700 197000 (2011) 29300 (2003) 59600 35600 37100 40100 42300 51200 63100 70400 88300 120000
2020-08-20 02:00 13.70 61900 197000 (2011) 29300 (2003) 59600 35600 37100 40100 42300 51200 63100 70400 88300 120000
2020-08-20 01:00 13.71 61900 197000 (2011) 29300 (2003) 59600 35600 37100 40100 42300 51200 63100 70400 88300 120000
2020-08-20 00:00 13.74 62100 197000 (2011) 29300 (2003) 59600 35600 37100 40100 42300 51200 63100 70400 88300 120000
2020-08-19 23:00 13.72 62000 192000 (2011) 30600 (2003) 59900 34700 36900 39200 42100 50400 64300 67700 91800 121000
2020-08-19 22:00 13.76 62200 192000 (2011) 30600 (2003) 59900 34700 36900 39200 42100 50400 64300 67700 91800 121000
2020-08-19 21:00 13.79 62400 192000 (2011) 30600 (2003) 59900 34700 36900 39200 42100 50400 64300 67700 91800 121000
2020-08-19 20:00 13.81 62600 192000 (2011) 30600 (2003) 59900 34700 36900 39200 42100 50400 64300 67700 91800 121000
2020-08-19 19:00 13.82 62600 192000 (2011) 30600 (2003) 59900 34700 36900 39200 42100 50400 64300 67700 91800 121000
2020-08-19 18:00 13.83 62700 192000 (2011) 30600 (2003) 59900 34700 36900 39200 42100 50400 64300 67700 91800 121000
2020-08-19 17:00 13.79 62400 192000 (2011) 30600 (2003) 59900 34700 36900 39200 42100 50400 64300 67700 91800 121000
2020-08-19 16:00 13.80 62500 192000 (2011) 30600 (2003) 59900 34700 36900 39200 42100 50400 64300 67700 91800 121000
2020-08-19 15:00 13.88 63000 192000 (2011) 30600 (2003) 59900 34700 36900 39200 42100 50400 64300 67700 91800 121000
2020-08-19 14:00 13.87 62900 192000 (2011) 30600 (2003) 59900 34700 36900 39200 42100 50400 64300 67700 91800 121000
2020-08-19 13:00 13.85 62800 192000 (2011) 30600 (2003) 59900 34700 36900 39200 42100 50400 64300 67700 91800 121000
2020-08-19 12:00 13.86 62900 192000 (2011) 30600 (2003) 59900 34700 36900 39200 42100 50400 64300 67700 91800 121000
2020-08-19 11:00 13.93 63300 192000 (2011) 30600 (2003) 59900 34700 36900 39200 42100 50400 64300 67700 91800 121000
2020-08-19 10:00 13.93 63300 192000 (2011) 30600 (2003) 59900 34700 36900 39200 42100 50400 64300 67700 91800 121000
2020-08-19 09:00 13.92 63200 192000 (2011) 30600 (2003) 59900 34700 36900 39200 42100 50400 64300 67700 91800 121000
2020-08-19 08:00 14.03 63900 192000 (2011) 30600 (2003) 59900 34700 36900 39200 42100 50400 64300 67700 91800 121000
2020-08-19 07:00 14.05 64100 192000 (2011) 30600 (2003) 59900 34700 36900 39200 42100 50400 64300 67700 91800 121000
2020-08-19 06:00 14.07 64200 192000 (2011) 30600 (2003) 59900 34700 36900 39200 42100 50400 64300 67700 91800 121000
2020-08-19 05:00 14.11 64400 192000 (2011) 30600 (2003) 59900 34700 36900 39200 42100 50400 64300 67700 91800 121000
2020-08-19 04:00 14.13 64600 192000 (2011) 30600 (2003) 59900 34700 36900 39200 42100 50400 64300 67700 91800 121000
2020-08-19 03:00 14.16 64800 192000 (2011) 30600 (2003) 59900 34700 36900 39200 42100 50400 64300 67700 91800 121000
2020-08-19 02:00 14.18 64900 192000 (2011) 30600 (2003) 59900 34700 36900 39200 42100 50400 64300 67700 91800 121000
2020-08-19 01:00 14.20 65000 192000 (2011) 30600 (2003) 59900 34700 36900 39200 42100 50400 64300 67700 91800 121000
2020-08-19 00:00 14.23 65200 192000 (2011) 30600 (2003) 59900 34700 36900 39200 42100 50400 64300 67700 91800 121000
2020-08-18 23:00 14.25 65300 189000 (2011) 31800 (2002) 60100 34300 35900 39000 41200 51900 67400 72000 94700 127000
2020-08-18 22:00 14.27 65500 189000 (2011) 31800 (2002) 60100 34300 35900 39000 41200 51900 67400 72000 94700 127000
2020-08-18 21:00 14.28 65500 189000 (2011) 31800 (2002) 60100 34300 35900 39000 41200 51900 67400 72000 94700 127000
2020-08-18 20:00 14.30 65700 189000 (2011) 31800 (2002) 60100 34300 35900 39000 41200 51900 67400 72000 94700 127000
2020-08-18 19:00 14.31 65700 189000 (2011) 31800 (2002) 60100 34300 35900 39000 41200 51900 67400 72000 94700 127000
2020-08-18 18:00 14.33 65900 189000 (2011) 31800 (2002) 60100 34300 35900 39000 41200 51900 67400 72000 94700 127000
2020-08-18 17:00 14.35 66000 189000 (2011) 31800 (2002) 60100 34300 35900 39000 41200 51900 67400 72000 94700 127000
2020-08-18 16:00 14.37 66100 189000 (2011) 31800 (2002) 60100 34300 35900 39000 41200 51900 67400 72000 94700 127000
2020-08-18 15:00 14.40 66300 189000 (2011) 31800 (2002) 60100 34300 35900 39000 41200 51900 67400 72000 94700 127000
2020-08-18 14:00 14.40 66300 189000 (2011) 31800 (2002) 60100 34300 35900 39000 41200 51900 67400 72000 94700 127000
2020-08-18 13:00 14.42 66400 189000 (2011) 31800 (2002) 60100 34300 35900 39000 41200 51900 67400 72000 94700 127000
2020-08-18 12:00 14.45 66600 189000 (2011) 31800 (2002) 60100 34300 35900 39000 41200 51900 67400 72000 94700 127000
2020-08-18 11:00 14.46 66700 189000 (2011) 31800 (2002) 60100 34300 35900 39000 41200 51900 67400 72000 94700 127000
2020-08-18 10:00 14.47 66800 189000 (2011) 31800 (2002) 60100 34300 35900 39000 41200 51900 67400 72000 94700 127000
2020-08-18 09:00 14.50 67000 189000 (2011) 31800 (2002) 60100 34300 35900 39000 41200 51900 67400 72000 94700 127000
2020-08-18 08:00 14.51 67000 189000 (2011) 31800 (2002) 60100 34300 35900 39000 41200 51900 67400 72000 94700 127000
2020-08-18 07:00 14.54 67200 189000 (2011) 31800 (2002) 60100 34300 35900 39000 41200 51900 67400 72000 94700 127000
2020-08-18 06:00 14.56 67400 189000 (2011) 31800 (2002) 60100 34300 35900 39000 41200 51900 67400 72000 94700 127000
2020-08-18 05:00 14.58 67500 189000 (2011) 31800 (2002) 60100 34300 35900 39000 41200 51900 67400 72000 94700 127000
2020-08-18 04:00 14.60 67600 189000 (2011) 31800 (2002) 60100 34300 35900 39000 41200 51900 67400 72000 94700 127000
2020-08-18 03:00 14.62 67800 189000 (2011) 31800 (2002) 60100 34300 35900 39000 41200 51900 67400 72000 94700 127000
2020-08-18 02:00 14.64 67900 189000 (2011) 31800 (2002) 60100 34300 35900 39000 41200 51900 67400 72000 94700 127000
2020-08-18 01:00 14.66 68000 189000 (2011) 31800 (2002) 60100 34300 35900 39000 41200 51900 67400 72000 94700 127000
2020-08-18 00:00 14.69 68200 189000 (2011) 31800 (2002) 60100 34300 35900 39000 41200 51900 67400 72000 94700 127000
2020-08-17 23:00 14.72 68400 190000 (2011) 33100 (2002) 60200 34500 36600 39100 41700 52200 68300 72700 90200 130000
2020-08-17 22:00 14.79 68900 190000 (2011) 33100 (2002) 60200 34500 36600 39100 41700 52200 68300 72700 90200 130000
2020-08-17 21:00 14.80 68900 190000 (2011) 33100 (2002) 60200 34500 36600 39100 41700 52200 68300 72700 90200 130000
2020-08-17 20:00 14.81 69000 190000 (2011) 33100 (2002) 60200 34500 36600 39100 41700 52200 68300 72700 90200 130000
2020-08-17 19:00 14.85 69300 190000 (2011) 33100 (2002) 60200 34500 36600 39100 41700 52200 68300 72700 90200 130000
2020-08-17 18:00 14.89 69600 190000 (2011) 33100 (2002) 60200 34500 36600 39100 41700 52200 68300 72700 90200 130000
2020-08-17 17:00 14.89 69600 190000 (2011) 33100 (2002) 60200 34500 36600 39100 41700 52200 68300 72700 90200 130000
2020-08-17 16:00 14.96 70000 190000 (2011) 33100 (2002) 60200 34500 36600 39100 41700 52200 68300 72700 90200 130000
2020-08-17 15:00 14.99 70200 190000 (2011) 33100 (2002) 60200 34500 36600 39100 41700 52200 68300 72700 90200 130000
2020-08-17 14:00 15.03 70500 190000 (2011) 33100 (2002) 60200 34500 36600 39100 41700 52200 68300 72700 90200 130000
2020-08-17 13:00 15.05 70600 190000 (2011) 33100 (2002) 60200 34500 36600 39100 41700 52200 68300 72700 90200 130000
2020-08-17 12:00 15.10 71000 190000 (2011) 33100 (2002) 60200 34500 36600 39100 41700 52200 68300 72700 90200 130000
2020-08-17 11:00 15.11 71000 190000 (2011) 33100 (2002) 60200 34500 36600 39100 41700 52200 68300 72700 90200 130000
2020-08-17 10:00 15.15 71300 190000 (2011) 33100 (2002) 60200 34500 36600 39100 41700 52200 68300 72700 90200 130000
2020-08-17 09:00 15.17 71500 190000 (2011) 33100 (2002) 60200 34500 36600 39100 41700 52200 68300 72700 90200 130000
2020-08-17 08:00 15.15 71300 190000 (2011) 33100 (2002) 60200 34500 36600 39100 41700 52200 68300 72700 90200 130000
2020-08-17 07:00 15.29 72300 190000 (2011) 33100 (2002) 60200 34500 36600 39100 41700 52200 68300 72700 90200 130000
2020-08-17 06:00 15.33 72600 190000 (2011) 33100 (2002) 60200 34500 36600 39100 41700 52200 68300 72700 90200 130000
2020-08-17 05:00 15.34 72600 190000 (2011) 33100 (2002) 60200 34500 36600 39100 41700 52200 68300 72700 90200 130000
2020-08-17 04:00 15.37 72800 190000 (2011) 33100 (2002) 60200 34500 36600 39100 41700 52200 68300 72700 90200 130000
2020-08-17 03:00 15.40 73000 190000 (2011) 33100 (2002) 60200 34500 36600 39100 41700 52200 68300 72700 90200 130000
2020-08-17 02:00 15.42 73200 190000 (2011) 33100 (2002) 60200 34500 36600 39100 41700 52200 68300 72700 90200 130000
2020-08-17 01:00 15.45 73400 190000 (2011) 33100 (2002) 60200 34500 36600 39100 41700 52200 68300 72700 90200 130000
2020-08-17 00:00 15.47 73500 190000 (2011) 33100 (2002) 60200 34500 36600 39100 41700 52200 68300 72700 90200 130000
2020-08-16 23:00 15.51 73800 190000 (2011) 33000 (2002) 60000 34600 37000 39300 40900 52200 66300 75700 84200 133000
2020-08-16 22:00 15.53 73900 190000 (2011) 33000 (2002) 60000 34600 37000 39300 40900 52200 66300 75700 84200 133000
2020-08-16 21:00 15.54 74000 190000 (2011) 33000 (2002) 60000 34600 37000 39300 40900 52200 66300 75700 84200 133000
2020-08-16 20:00 15.56 74200 190000 (2011) 33000 (2002) 60000 34600 37000 39300 40900 52200 66300 75700 84200 133000
2020-08-16 19:00 15.59 74400 190000 (2011) 33000 (2002) 60000 34600 37000 39300 40900 52200 66300 75700 84200 133000
2020-08-16 18:00 15.61 74500 190000 (2011) 33000 (2002) 60000 34600 37000 39300 40900 52200 66300 75700 84200 133000
2020-08-16 17:00 15.64 74700 190000 (2011) 33000 (2002) 60000 34600 37000 39300 40900 52200 66300 75700 84200 133000
2020-08-16 16:00 15.66 74900 190000 (2011) 33000 (2002) 60000 34600 37000 39300 40900 52200 66300 75700 84200 133000
2020-08-16 15:00 15.68 75000 190000 (2011) 33000 (2002) 60000 34600 37000 39300 40900 52200 66300 75700 84200 133000
2020-08-16 14:00 15.66 74900 190000 (2011) 33000 (2002) 60000 34600 37000 39300 40900 52200 66300 75700 84200 133000
2020-08-16 13:00 15.73 75400 190000 (2011) 33000 (2002) 60000 34600 37000 39300 40900 52200 66300 75700 84200 133000
2020-08-16 12:00 15.76 75600 190000 (2011) 33000 (2002) 60000 34600 37000 39300 40900 52200 66300 75700 84200 133000
2020-08-16 11:00 15.77 75600 190000 (2011) 33000 (2002) 60000 34600 37000 39300 40900 52200 66300 75700 84200 133000
2020-08-16 10:00 15.79 75800 190000 (2011) 33000 (2002) 60000 34600 37000 39300 40900 52200 66300 75700 84200 133000
2020-08-16 09:00 15.76 75600 190000 (2011) 33000 (2002) 60000 34600 37000 39300 40900 52200 66300 75700 84200 133000
2020-08-16 08:00 15.84 76100 190000 (2011) 33000 (2002) 60000 34600 37000 39300 40900 52200 66300 75700 84200 133000
2020-08-16 07:00 15.85 76200 190000 (2011) 33000 (2002) 60000 34600 37000 39300 40900 52200 66300 75700 84200 133000
2020-08-16 06:00 15.87 76400 190000 (2011) 33000 (2002) 60000 34600 37000 39300 40900 52200 66300 75700 84200 133000
2020-08-16 05:00 15.88 76400 190000 (2011) 33000 (2002) 60000 34600 37000 39300 40900 52200 66300 75700 84200 133000
2020-08-16 04:00 15.89 76500 190000 (2011) 33000 (2002) 60000 34600 37000 39300 40900 52200 66300 75700 84200 133000
2020-08-16 03:00 15.92 76700 190000 (2011) 33000 (2002) 60000 34600 37000 39300 40900 52200 66300 75700 84200 133000
2020-08-16 02:00 15.93 76800 190000 (2011) 33000 (2002) 60000 34600 37000 39300 40900 52200 66300 75700 84200 133000
2020-08-16 01:00 15.93 76800 190000 (2011) 33000 (2002) 60000 34600 37000 39300 40900 52200 66300 75700 84200 133000
2020-08-16 00:00 15.93 76800 190000 (2011) 33000 (2002) 60000 34600 37000 39300 40900 52200 66300 75700 84200 133000
2020-08-15 23:00 15.92 76700 190000 (2011) 32600 (2002) 60300 34400 37500 40000 41000 49500 68000 73500 89700 135000
2020-08-15 22:00 15.92 76700 190000 (2011) 32600 (2002) 60300 34400 37500 40000 41000 49500 68000 73500 89700 135000
2020-08-15 21:00 15.92 76700 190000 (2011) 32600 (2002) 60300 34400 37500 40000 41000 49500 68000 73500 89700 135000
2020-08-15 20:00 15.86 76300 190000 (2011) 32600 (2002) 60300 34400 37500 40000 41000 49500 68000 73500 89700 135000
2020-08-15 19:00 15.86 76300 190000 (2011) 32600 (2002) 60300 34400 37500 40000 41000 49500 68000 73500 89700 135000
2020-08-15 18:00 15.86 76300 190000 (2011) 32600 (2002) 60300 34400 37500 40000 41000 49500 68000 73500 89700 135000
2020-08-15 17:00 15.86 76300 190000 (2011) 32600 (2002) 60300 34400 37500 40000 41000 49500 68000 73500 89700 135000
2020-08-15 16:00 15.83 76100 190000 (2011) 32600 (2002) 60300 34400 37500 40000 41000 49500 68000 73500 89700 135000
2020-08-15 15:00 15.82 76000 190000 (2011) 32600 (2002) 60300 34400 37500 40000 41000 49500 68000 73500 89700 135000
2020-08-15 14:00 15.81 75900 190000 (2011) 32600 (2002) 60300 34400 37500 40000 41000 49500 68000 73500 89700 135000
2020-08-15 13:00 15.75 75500 190000 (2011) 32600 (2002) 60300 34400 37500 40000 41000 49500 68000 73500 89700 135000
2020-08-15 12:00 15.78 75700 190000 (2011) 32600 (2002) 60300 34400 37500 40000 41000 49500 68000 73500 89700 135000
2020-08-15 11:00 15.78 75700 190000 (2011) 32600 (2002) 60300 34400 37500 40000 41000 49500 68000 73500 89700 135000
2020-08-15 10:00 15.71 75200 190000 (2011) 32600 (2002) 60300 34400 37500 40000 41000 49500 68000 73500 89700 135000
2020-08-15 09:00 15.69 75100 190000 (2011) 32600 (2002) 60300 34400 37500 40000 41000 49500 68000 73500 89700 135000
2020-08-15 08:00 15.69 75100 190000 (2011) 32600 (2002) 60300 34400 37500 40000 41000 49500 68000 73500 89700 135000
2020-08-15 07:00 15.70 75100 190000 (2011) 32600 (2002) 60300 34400 37500 40000 41000 49500 68000 73500 89700 135000
2020-08-15 06:00 15.82 76000 190000 (2011) 32600 (2002) 60300 34400 37500 40000 41000 49500 68000 73500 89700 135000
2020-08-15 05:00 15.83 76100 190000 (2011) 32600 (2002) 60300 34400 37500 40000 41000 49500 68000 73500 89700 135000
2020-08-15 04:00 15.87 76400 190000 (2011) 32600 (2002) 60300 34400 37500 40000 41000 49500 68000 73500 89700 135000
2020-08-15 03:00 15.89 76500 190000 (2011) 32600 (2002) 60300 34400 37500 40000 41000 49500 68000 73500 89700 135000
2020-08-15 02:00 15.92 76700 190000 (2011) 32600 (2002) 60300 34400 37500 40000 41000 49500 68000 73500 89700 135000
2020-08-15 01:00 15.96 77000 190000 (2011) 32600 (2002) 60300 34400 37500 40000 41000 49500 68000 73500 89700 135000
2020-08-15 00:00 15.98 77100 190000 (2011) 32600 (2002) 60300 34400 37500 40000 41000 49500 68000 73500 89700 135000
2020-08-14 23:00 16.00 77300 191000 (2011) 33600 (2002) 61700 34700 37600 40600 42000 50300 66000 74400 97300 140000
2020-08-14 22:00 16.06 77700 191000 (2011) 33600 (2002) 61700 34700 37600 40600 42000 50300 66000 74400 97300 140000
2020-08-14 21:00 16.09 77900 191000 (2011) 33600 (2002) 61700 34700 37600 40600 42000 50300 66000 74400 97300 140000
2020-08-14 20:00 16.11 78100 191000 (2011) 33600 (2002) 61700 34700 37600 40600 42000 50300 66000 74400 97300 140000
2020-08-14 19:00 16.10 78000 191000 (2011) 33600 (2002) 61700 34700 37600 40600 42000 50300 66000 74400 97300 140000
2020-08-14 18:00 16.17 78500 191000 (2011) 33600 (2002) 61700 34700 37600 40600 42000 50300 66000 74400 97300 140000
2020-08-14 17:00 16.22 78900 191000 (2011) 33600 (2002) 61700 34700 37600 40600 42000 50300 66000 74400 97300 140000
2020-08-14 16:00 16.15 78400 191000 (2011) 33600 (2002) 61700 34700 37600 40600 42000 50300 66000 74400 97300 140000
2020-08-14 15:00 16.19 78700 191000 (2011) 33600 (2002) 61700 34700 37600 40600 42000 50300 66000 74400 97300 140000
2020-08-14 14:00 16.29 79400 191000 (2011) 33600 (2002) 61700 34700 37600 40600 42000 50300 66000 74400 97300 140000
2020-08-14 13:00 16.24 79000 191000 (2011) 33600 (2002) 61700 34700 37600 40600 42000 50300 66000 74400 97300 140000
2020-08-14 12:00 16.27 79300 191000 (2011) 33600 (2002) 61700 34700 37600 40600 42000 50300 66000 74400 97300 140000
2020-08-14 11:00 16.29 79400 191000 (2011) 33600 (2002) 61700 34700 37600 40600 42000 50300 66000 74400 97300 140000
2020-08-14 10:00 16.31 79600 191000 (2011) 33600 (2002) 61700 34700 37600 40600 42000 50300 66000 74400 97300 140000
2020-08-14 09:00 16.37 80000 191000 (2011) 33600 (2002) 61700 34700 37600 40600 42000 50300 66000 74400 97300 140000
2020-08-14 08:00 16.39 80100 191000 (2011) 33600 (2002) 61700 34700 37600 40600 42000 50300 66000 74400 97300 140000
2020-08-14 07:00 16.38 80100 191000 (2011) 33600 (2002) 61700 34700 37600 40600 42000 50300 66000 74400 97300 140000
2020-08-14 06:00 16.40 80200 191000 (2011) 33600 (2002) 61700 34700 37600 40600 42000 50300 66000 74400 97300 140000
2020-08-14 05:00 16.42 80400 191000 (2011) 33600 (2002) 61700 34700 37600 40600 42000 50300 66000 74400 97300 140000
2020-08-14 04:00 16.41 80300 191000 (2011) 33600 (2002) 61700 34700 37600 40600 42000 50300 66000 74400 97300 140000
2020-08-14 03:00 16.44 80500 191000 (2011) 33600 (2002) 61700 34700 37600 40600 42000 50300 66000 74400 97300 140000
2020-08-14 02:00 16.41 80300 191000 (2011) 33600 (2002) 61700 34700 37600 40600 42000 50300 66000 74400 97300 140000
2020-08-14 01:00 16.41 80300 191000 (2011) 33600 (2002) 61700 34700 37600 40600 42000 50300 66000 74400 97300 140000
2020-08-14 00:00 16.38 80100 191000 (2011) 33600 (2002) 61700 34700 37600 40600 42000 50300 66000 74400 97300 140000
2020-08-13 23:00 16.47 80700 194000 (2011) 32000 (2002) 61200 34600 37000 40200 42100 50300 73800 75000 99400 134000
2020-08-13 22:00 16.49 80900 194000 (2011) 32000 (2002) 61200 34600 37000 40200 42100 50300 73800 75000 99400 134000
2020-08-13 21:00 16.51 81000 194000 (2011) 32000 (2002) 61200 34600 37000 40200 42100 50300 73800 75000 99400 134000
2020-08-13 20:00 16.44 80500 194000 (2011) 32000 (2002) 61200 34600 37000 40200 42100 50300 73800 75000 99400 134000
2020-08-13 19:00 16.52 81100 194000 (2011) 32000 (2002) 61200 34600 37000 40200 42100 50300 73800 75000 99400 134000
2020-08-13 18:00 16.45 80600 194000 (2011) 32000 (2002) 61200 34600 37000 40200 42100 50300 73800 75000 99400 134000
2020-08-13 17:00 16.51 81000 194000 (2011) 32000 (2002) 61200 34600 37000 40200 42100 50300 73800 75000 99400 134000
2020-08-13 16:00 16.44 80500 194000 (2011) 32000 (2002) 61200 34600 37000 40200 42100 50300 73800 75000 99400 134000
2020-08-13 15:00 16.50 81000 194000 (2011) 32000 (2002) 61200 34600 37000 40200 42100 50300 73800 75000 99400 134000
2020-08-13 14:00 16.44 80500 194000 (2011) 32000 (2002) 61200 34600 37000 40200 42100 50300 73800 75000 99400 134000
2020-08-13 13:00 16.47 80700 194000 (2011) 32000 (2002) 61200 34600 37000 40200 42100 50300 73800 75000 99400 134000
2020-08-13 12:00 16.49 80900 194000 (2011) 32000 (2002) 61200 34600 37000 40200 42100 50300 73800 75000 99400 134000
2020-08-13 11:00 16.56 81400 194000 (2011) 32000 (2002) 61200 34600 37000 40200 42100 50300 73800 75000 99400 134000
2020-08-13 10:00 16.55 81300 194000 (2011) 32000 (2002) 61200 34600 37000 40200 42100 50300 73800 75000 99400 134000
2020-08-13 09:00 16.55 81300 194000 (2011) 32000 (2002) 61200 34600 37000 40200 42100 50300 73800 75000 99400 134000
2020-08-13 08:00 16.54 81300 194000 (2011) 32000 (2002) 61200 34600 37000 40200 42100 50300 73800 75000 99400 134000
2020-08-13 07:00 16.54 81300 194000 (2011) 32000 (2002) 61200 34600 37000 40200 42100 50300 73800 75000 99400 134000
2020-08-13 06:00 16.55 81300 194000 (2011) 32000 (2002) 61200 34600 37000 40200 42100 50300 73800 75000 99400 134000
2020-08-13 05:00 16.54 81300 194000 (2011) 32000 (2002) 61200 34600 37000 40200 42100 50300 73800 75000 99400 134000
2020-08-13 04:00 16.55 81300 194000 (2011) 32000 (2002) 61200 34600 37000 40200 42100 50300 73800 75000 99400 134000
2020-08-13 03:00 16.46 80700 194000 (2011) 32000 (2002) 61200 34600 37000 40200 42100 50300 73800 75000 99400 134000
2020-08-13 02:00 16.51 81000 194000 (2011) 32000 (2002) 61200 34600 37000 40200 42100 50300 73800 75000 99400 134000
2020-08-13 01:00 16.48 80800 194000 (2011) 32000 (2002) 61200 34600 37000 40200 42100 50300 73800 75000 99400 134000
2020-08-13 00:00 16.53 81200 194000 (2011) 32000 (2002) 61200 34600 37000 40200 42100 50300 73800 75000 99400 134000
2020-08-12 23:00 16.53 81200 194000 (2011) 32600 (2002) 61300 34500 36100 40700 41800 52100 69400 77100 97800 132000
2020-08-12 22:00 16.53 81200 194000 (2011) 32600 (2002) 61300 34500 36100 40700 41800 52100 69400 77100 97800 132000
2020-08-12 21:00 16.54 81300 194000 (2011) 32600 (2002) 61300 34500 36100 40700 41800 52100 69400 77100 97800 132000
2020-08-12 20:00 16.51 81000 194000 (2011) 32600 (2002) 61300 34500 36100 40700 41800 52100 69400 77100 97800 132000
2020-08-12 19:00 16.54 81300 194000 (2011) 32600 (2002) 61300 34500 36100 40700 41800 52100 69400 77100 97800 132000
2020-08-12 18:00 16.53 81200 194000 (2011) 32600 (2002) 61300 34500 36100 40700 41800 52100 69400 77100 97800 132000
2020-08-12 17:00 16.50 81000 194000 (2011) 32600 (2002) 61300 34500 36100 40700 41800 52100 69400 77100 97800 132000
2020-08-12 16:00 16.49 80900 194000 (2011) 32600 (2002) 61300 34500 36100 40700 41800 52100 69400 77100 97800 132000
2020-08-12 15:00 16.49 80900 194000 (2011) 32600 (2002) 61300 34500 36100 40700 41800 52100 69400 77100 97800 132000
2020-08-12 14:00 16.53 81200 194000 (2011) 32600 (2002) 61300 34500 36100 40700 41800 52100 69400 77100 97800 132000
2020-08-12 13:00 16.52 81100 194000 (2011) 32600 (2002) 61300 34500 36100 40700 41800 52100 69400 77100 97800 132000
2020-08-12 12:00 16.52 81100 194000 (2011) 32600 (2002) 61300 34500 36100 40700 41800 52100 69400 77100 97800 132000
2020-08-12 11:00 16.52 81100 194000 (2011) 32600 (2002) 61300 34500 36100 40700 41800 52100 69400 77100 97800 132000
2020-08-12 10:00 16.53 81200 194000 (2011) 32600 (2002) 61300 34500 36100 40700 41800 52100 69400 77100 97800 132000
2020-08-12 09:00 16.51 81000 194000 (2011) 32600 (2002) 61300 34500 36100 40700 41800 52100 69400 77100 97800 132000
2020-08-12 08:00 16.52 81100 194000 (2011) 32600 (2002) 61300 34500 36100 40700 41800 52100 69400 77100 97800 132000
2020-08-12 07:00 16.54 81300 194000 (2011) 32600 (2002) 61300 34500 36100 40700 41800 52100 69400 77100 97800 132000
2020-08-12 06:00 16.55 81300 194000 (2011) 32600 (2002) 61300 34500 36100 40700 41800 52100 69400 77100 97800 132000
2020-08-12 05:00 16.54 81300 194000 (2011) 32600 (2002) 61300 34500 36100 40700 41800 52100 69400 77100 97800 132000
2020-08-12 04:00 16.53 81200 194000 (2011) 32600 (2002) 61300 34500 36100 40700 41800 52100 69400 77100 97800 132000
2020-08-12 03:00 16.53 81200 194000 (2011) 32600 (2002) 61300 34500 36100 40700 41800 52100 69400 77100 97800 132000
2020-08-12 02:00 16.44 80500 194000 (2011) 32600 (2002) 61300 34500 36100 40700 41800 52100 69400 77100 97800 132000
2020-08-12 01:00 16.56 81400 194000 (2011) 32600 (2002) 61300 34500 36100 40700 41800 52100 69400 77100 97800 132000
2020-08-12 00:00 16.55 81300 194000 (2011) 32600 (2002) 61300 34500 36100 40700 41800 52100 69400 77100 97800 132000
2020-08-11 23:00 16.53 81200 196000 (2011) 34100 (2002) 62200 34500 35800 41300 41900 51200 74600 77900 107000 134000
2020-08-11 22:00 16.52 81100 196000 (2011) 34100 (2002) 62200 34500 35800 41300 41900 51200 74600 77900 107000 134000
2020-08-11 21:00 16.53 81200 196000 (2011) 34100 (2002) 62200 34500 35800 41300 41900 51200 74600 77900 107000 134000
2020-08-11 20:00 16.55 81300 196000 (2011) 34100 (2002) 62200 34500 35800 41300 41900 51200 74600 77900 107000 134000
2020-08-11 19:00 16.45 80600 196000 (2011) 34100 (2002) 62200 34500 35800 41300 41900 51200 74600 77900 107000 134000
2020-08-11 18:00 16.49 80900 196000 (2011) 34100 (2002) 62200 34500 35800 41300 41900 51200 74600 77900 107000 134000
2020-08-11 17:00 16.54 81300 196000 (2011) 34100 (2002) 62200 34500 35800 41300 41900 51200 74600 77900 107000 134000
2020-08-11 16:00 16.49 80900 196000 (2011) 34100 (2002) 62200 34500 35800 41300 41900 51200 74600 77900 107000 134000
2020-08-11 15:00 16.56 81400 196000 (2011) 34100 (2002) 62200 34500 35800 41300 41900 51200 74600 77900 107000 134000
2020-08-11 14:00 16.52 81100 196000 (2011) 34100 (2002) 62200 34500 35800 41300 41900 51200 74600 77900 107000 134000
2020-08-11 13:00 16.56 81400 196000 (2011) 34100 (2002) 62200 34500 35800 41300 41900 51200 74600 77900 107000 134000
2020-08-11 12:00 16.58 81600 196000 (2011) 34100 (2002) 62200 34500 35800 41300 41900 51200 74600 77900 107000 134000
2020-08-11 11:00 16.58 81600 196000 (2011) 34100 (2002) 62200 34500 35800 41300 41900 51200 74600 77900 107000 134000
2020-08-11 10:00 16.61 81800 196000 (2011) 34100 (2002) 62200 34500 35800 41300 41900 51200 74600 77900 107000 134000
2020-08-11 09:00 16.63 81900 196000 (2011) 34100 (2002) 62200 34500 35800 41300 41900 51200 74600 77900 107000 134000
2020-08-11 08:00 16.66 82200 196000 (2011) 34100 (2002) 62200 34500 35800 41300 41900 51200 74600 77900 107000 134000
2020-08-11 07:00 16.66 82200 196000 (2011) 34100 (2002) 62200 34500 35800 41300 41900 51200 74600 77900 107000 134000
2020-08-11 06:00 16.68 82300 196000 (2011) 34100 (2002) 62200 34500 35800 41300 41900 51200 74600 77900 107000 134000
2020-08-11 05:00 16.71 82500 196000 (2011) 34100 (2002) 62200 34500 35800 41300 41900 51200 74600 77900 107000 134000
2020-08-11 04:00 16.73 82700 196000 (2011) 34100 (2002) 62200 34500 35800 41300 41900 51200 74600 77900 107000 134000
2020-08-11 03:00 16.69 82400 196000 (2011) 34100 (2002) 62200 34500 35800 41300 41900 51200 74600 77900 107000 134000
2020-08-11 02:00 16.75 82800 196000 (2011) 34100 (2002) 62200 34500 35800 41300 41900 51200 74600 77900 107000 134000
2020-08-11 01:00 16.77 83000 196000 (2011) 34100 (2002) 62200 34500 35800 41300 41900 51200 74600 77900 107000 134000
2020-08-11 00:00 16.76 82900 196000 (2011) 34100 (2002) 62200 34500 35800 41300 41900 51200 74600 77900 107000 134000
2020-08-10 23:00 16.75 82800 198000 (2011) 33400 (2002) 61900 34600 36800 41200 42500 52200 68000 72500 109000 137000
2020-08-10 22:00 16.79 83200 198000 (2011) 33400 (2002) 61900 34600 36800 41200 42500 52200 68000 72500 109000 137000
2020-08-10 21:00 16.81 83300 198000 (2011) 33400 (2002) 61900 34600 36800 41200 42500 52200 68000 72500 109000 137000
2020-08-10 20:00 16.83 83500 198000 (2011) 33400 (2002) 61900 34600 36800 41200 42500 52200 68000 72500 109000 137000
2020-08-10 19:00 16.85 83600 198000 (2011) 33400 (2002) 61900 34600 36800 41200 42500 52200 68000 72500 109000 137000
2020-08-10 18:00 16.86 83700 198000 (2011) 33400 (2002) 61900 34600 36800 41200 42500 52200 68000 72500 109000 137000
2020-08-10 17:00 16.83 83500 198000 (2011) 33400 (2002) 61900 34600 36800 41200 42500 52200 68000 72500 109000 137000
2020-08-10 16:00 16.90 84000 198000 (2011) 33400 (2002) 61900 34600 36800 41200 42500 52200 68000 72500 109000 137000
2020-08-10 15:00 16.97 84500 198000 (2011) 33400 (2002) 61900 34600 36800 41200 42500 52200 68000 72500 109000 137000
2020-08-10 14:00 17.00 84800 198000 (2011) 33400 (2002) 61900 34600 36800 41200 42500 52200 68000 72500 109000 137000
2020-08-10 13:00 16.96 84400 198000 (2011) 33400 (2002) 61900 34600 36800 41200 42500 52200 68000 72500 109000 137000
2020-08-10 12:00 17.03 85000 198000 (2011) 33400 (2002) 61900 34600 36800 41200 42500 52200 68000 72500 109000 137000
2020-08-10 11:00 17.08 85400 198000 (2011) 33400 (2002) 61900 34600 36800 41200 42500 52200 68000 72500 109000 137000
2020-08-10 10:00 17.13 85800 198000 (2011) 33400 (2002) 61900 34600 36800 41200 42500 52200 68000 72500 109000 137000
2020-08-10 09:00 17.15 85900 198000 (2011) 33400 (2002) 61900 34600 36800 41200 42500 52200 68000 72500 109000 137000
2020-08-10 08:00 17.17 86100 198000 (2011) 33400 (2002) 61900 34600 36800 41200 42500 52200 68000 72500 109000 137000
2020-08-10 07:00 17.21 86400 198000 (2011) 33400 (2002) 61900 34600 36800 41200 42500 52200 68000 72500 109000 137000
2020-08-10 06:00 17.24 86600 198000 (2011) 33400 (2002) 61900 34600 36800 41200 42500 52200 68000 72500 109000 137000
2020-08-10 05:00 17.25 86700 198000 (2011) 33400 (2002) 61900 34600 36800 41200 42500 52200 68000 72500 109000 137000
2020-08-10 04:00 17.27 86900 198000 (2011) 33400 (2002) 61900 34600 36800 41200 42500 52200 68000 72500 109000 137000
2020-08-10 03:00 17.30 87100 198000 (2011) 33400 (2002) 61900 34600 36800 41200 42500 52200 68000 72500 109000 137000
2020-08-10 02:00 17.31 87200 198000 (2011) 33400 (2002) 61900 34600 36800 41200 42500 52200 68000 72500 109000 137000
2020-08-10 01:00 17.32 87200 198000 (2011) 33400 (2002) 61900 34600 36800 41200 42500 52200 68000 72500 109000 137000
2020-08-10 00:00 17.30 87100 198000 (2011) 33400 (2002) 61900 34600 36800 41200 42500 52200 68000 72500 109000 137000
2020-08-09 23:00 17.30 87100 200000 (2011) 31300 (2002) 61900 34700 36400 40900 42400 53700 67300 75500 95500 139000
2020-08-09 22:00 17.27 86900 200000 (2011) 31300 (2002) 61900 34700 36400 40900 42400 53700 67300 75500 95500 139000
2020-08-09 21:00 17.25 86700 200000 (2011) 31300 (2002) 61900 34700 36400 40900 42400 53700 67300 75500 95500 139000
2020-08-09 20:00 17.23 86500 200000 (2011) 31300 (2002) 61900 34700 36400 40900 42400 53700 67300 75500 95500 139000
2020-08-09 19:00 17.21 86400 200000 (2011) 31300 (2002) 61900 34700 36400 40900 42400 53700 67300 75500 95500 139000
2020-08-09 18:00 17.19 86200 200000 (2011) 31300 (2002) 61900 34700 36400 40900 42400 53700 67300 75500 95500 139000
2020-08-09 17:00 17.12 85700 200000 (2011) 31300 (2002) 61900 34700 36400 40900 42400 53700 67300 75500 95500 139000
2020-08-09 16:00 17.12 85700 200000 (2011) 31300 (2002) 61900 34700 36400 40900 42400 53700 67300 75500 95500 139000
2020-08-09 15:00 17.13 85800 200000 (2011) 31300 (2002) 61900 34700 36400 40900 42400 53700 67300 75500 95500 139000
2020-08-09 14:00 17.08 85400 200000 (2011) 31300 (2002) 61900 34700 36400 40900 42400 53700 67300 75500 95500 139000
2020-08-09 13:00 16.97 84500 200000 (2011) 31300 (2002) 61900 34700 36400 40900 42400 53700 67300 75500 95500 139000
2020-08-09 12:00 16.94 84300 200000 (2011) 31300 (2002) 61900 34700 36400 40900 42400 53700 67300 75500 95500 139000
2020-08-09 11:00 17.01 84800 200000 (2011) 31300 (2002) 61900 34700 36400 40900 42400 53700 67300 75500 95500 139000
2020-08-09 10:00 17.00 84800 200000 (2011) 31300 (2002) 61900 34700 36400 40900 42400 53700 67300 75500 95500 139000
2020-08-09 09:00 16.90 84000 200000 (2011) 31300 (2002) 61900 34700 36400 40900 42400 53700 67300 75500 95500 139000
2020-08-09 08:00 16.85 83600 200000 (2011) 31300 (2002) 61900 34700 36400 40900 42400 53700 67300 75500 95500 139000
2020-08-09 07:00 16.89 83900 200000 (2011) 31300 (2002) 61900 34700 36400 40900 42400 53700 67300 75500 95500 139000
2020-08-09 06:00 16.84 83500 200000 (2011) 31300 (2002) 61900 34700 36400 40900 42400 53700 67300 75500 95500 139000
2020-08-09 05:00 16.86 83700 200000 (2011) 31300 (2002) 61900 34700 36400 40900 42400 53700 67300 75500 95500 139000
2020-08-09 04:00 16.81 83300 200000 (2011) 31300 (2002) 61900 34700 36400 40900 42400 53700 67300 75500 95500 139000
2020-08-09 03:00 16.76 82900 200000 (2011) 31300 (2002) 61900 34700 36400 40900 42400 53700 67300 75500 95500 139000
2020-08-09 02:00 16.78 83100 200000 (2011) 31300 (2002) 61900 34700 36400 40900 42400 53700 67300 75500 95500 139000
2020-08-09 01:00 16.78 83100 200000 (2011) 31300 (2002) 61900 34700 36400 40900 42400 53700 67300 75500 95500 139000
2020-08-09 00:00 16.74 82800 200000 (2011) 31300 (2002) 61900 34700 36400 40900 42400 53700 67300 75500 95500 139000
2020-08-08 23:00 16.71 82500 202000 (2011) 30600 (2002) 61900 34900 35500 41100 41900 52800 67300 72400 91000 139000
2020-08-08 22:00 16.62 81900 202000 (2011) 30600 (2002) 61900 34900 35500 41100 41900 52800 67300 72400 91000 139000
2020-08-08 21:00 16.55 81300 202000 (2011) 30600 (2002) 61900 34900 35500 41100 41900 52800 67300 72400 91000 139000
2020-08-08 20:00 16.55 81300 202000 (2011) 30600 (2002) 61900 34900 35500 41100 41900 52800 67300 72400 91000 139000
2020-08-08 19:00 16.48 80800 202000 (2011) 30600 (2002) 61900 34900 35500 41100 41900 52800 67300 72400 91000 139000
2020-08-08 18:00 16.44 80500 202000 (2011) 30600 (2002) 61900 34900 35500 41100 41900 52800 67300 72400 91000 139000
2020-08-08 17:00 16.44 80500 202000 (2011) 30600 (2002) 61900 34900 35500 41100 41900 52800 67300 72400 91000 139000
2020-08-08 16:00 16.35 79900 202000 (2011) 30600 (2002) 61900 34900 35500 41100 41900 52800 67300 72400 91000 139000
2020-08-08 15:00 16.35 79900 202000 (2011) 30600 (2002) 61900 34900 35500 41100 41900 52800 67300 72400 91000 139000
2020-08-08 14:00 16.30 79500 202000 (2011) 30600 (2002) 61900 34900 35500 41100 41900 52800 67300 72400 91000 139000
2020-08-08 13:00 16.25 79100 202000 (2011) 30600 (2002) 61900 34900 35500 41100 41900 52800 67300 72400 91000 139000
2020-08-08 12:00 16.27 79300 202000 (2011) 30600 (2002) 61900 34900 35500 41100 41900 52800 67300 72400 91000 139000
2020-08-08 11:00 16.19 78700 202000 (2011) 30600 (2002) 61900 34900 35500 41100 41900 52800 67300 72400 91000 139000
2020-08-08 10:00 16.23 79000 202000 (2011) 30600 (2002) 61900 34900 35500 41100 41900 52800 67300 72400 91000 139000
2020-08-08 09:00 16.20 78700 202000 (2011) 30600 (2002) 61900 34900 35500 41100 41900 52800 67300 72400 91000 139000
2020-08-08 08:00 16.25 79100 202000 (2011) 30600 (2002) 61900 34900 35500 41100 41900 52800 67300 72400 91000 139000
2020-08-08 07:00 16.28 79300 202000 (2011) 30600 (2002) 61900 34900 35500 41100 41900 52800 67300 72400 91000 139000
2020-08-08 06:00 16.27 79300 202000 (2011) 30600 (2002) 61900 34900 35500 41100 41900 52800 67300 72400 91000 139000
2020-08-08 05:00 16.23 79000 202000 (2011) 30600 (2002) 61900 34900 35500 41100 41900 52800 67300 72400 91000 139000
2020-08-08 04:00 16.21 78800 202000 (2011) 30600 (2002) 61900 34900 35500 41100 41900 52800 67300 72400 91000 139000
2020-08-08 03:00 16.22 78900 202000 (2011) 30600 (2002) 61900 34900 35500 41100 41900 52800 67300 72400 91000 139000
2020-08-08 02:00 16.24 79000 202000 (2011) 30600 (2002) 61900 34900 35500 41100 41900 52800 67300 72400 91000 139000
2020-08-08 01:00 16.24 79000 202000 (2011) 30600 (2002) 61900 34900 35500 41100 41900 52800 67300 72400 91000 139000
2020-08-08 00:00 16.22 78900 202000 (2011) 30600 (2002) 61900 34900 35500 41100 41900 52800 67300 72400 91000 139000
2020-08-07 23:00 16.24 79000 203000 (2011) 30400 (2002) 62000 35000 35600 40900 42300 53800 70100 74500 85400 134000
2020-08-07 22:00 16.23 79000 203000 (2011) 30400 (2002) 62000 35000 35600 40900 42300 53800 70100 74500 85400 134000
2020-08-07 21:00 16.18 78600 203000 (2011) 30400 (2002) 62000 35000 35600 40900 42300 53800 70100 74500 85400 134000
2020-08-07 20:00 16.16 78500 203000 (2011) 30400 (2002) 62000 35000 35600 40900 42300 53800 70100 74500 85400 134000
2020-08-07 19:00 16.13 78200 203000 (2011) 30400 (2002) 62000 35000 35600 40900 42300 53800 70100 74500 85400 134000
2020-08-07 18:00 16.16 78500 203000 (2011) 30400 (2002) 62000 35000 35600 40900 42300 53800 70100 74500 85400 134000
2020-08-07 17:00 16.15 78400 203000 (2011) 30400 (2002) 62000 35000 35600 40900 42300 53800 70100 74500 85400 134000
2020-08-07 16:00 16.21 78800 203000 (2011) 30400 (2002) 62000 35000 35600 40900 42300 53800 70100 74500 85400 134000
2020-08-07 15:00 16.21 78800 203000 (2011) 30400 (2002) 62000 35000 35600 40900 42300 53800 70100 74500 85400 134000
2020-08-07 14:00 16.15 78400 203000 (2011) 30400 (2002) 62000 35000 35600 40900 42300 53800 70100 74500 85400 134000
2020-08-07 13:00 16.13 78200 203000 (2011) 30400 (2002) 62000 35000 35600 40900 42300 53800 70100 74500 85400 134000
2020-08-07 12:00 16.19 78700 203000 (2011) 30400 (2002) 62000 35000 35600 40900 42300 53800 70100 74500 85400 134000
2020-08-07 11:00 16.20 78700 203000 (2011) 30400 (2002) 62000 35000 35600 40900 42300 53800 70100 74500 85400 134000
2020-08-07 10:00 16.16 78500 203000 (2011) 30400 (2002) 62000 35000 35600 40900 42300 53800 70100 74500 85400 134000
2020-08-07 09:00 16.18 78600 203000 (2011) 30400 (2002) 62000 35000 35600 40900 42300 53800 70100 74500 85400 134000
2020-08-07 08:00 16.13 78200 203000 (2011) 30400 (2002) 62000 35000 35600 40900 42300 53800 70100 74500 85400 134000
2020-08-07 07:00 16.14 78300 203000 (2011) 30400 (2002) 62000 35000 35600 40900 42300 53800 70100 74500 85400 134000
2020-08-07 06:00 16.18 78600 203000 (2011) 30400 (2002) 62000 35000 35600 40900 42300 53800 70100 74500 85400 134000
2020-08-07 05:00 16.17 78500 203000 (2011) 30400 (2002) 62000 35000 35600 40900 42300 53800 70100 74500 85400 134000
2020-08-07 04:00 16.17 78500 203000 (2011) 30400 (2002) 62000 35000 35600 40900 42300 53800 70100 74500 85400 134000
2020-08-07 03:00 16.20 78700 203000 (2011) 30400 (2002) 62000 35000 35600 40900 42300 53800 70100 74500 85400 134000
2020-08-07 02:00 16.18 78600 203000 (2011) 30400 (2002) 62000 35000 35600 40900 42300 53800 70100 74500 85400 134000
2020-08-07 01:00 16.14 78300 203000 (2011) 30400 (2002) 62000 35000 35600 40900 42300 53800 70100 74500 85400 134000
2020-08-07 00:00 16.14 78300 203000 (2011) 30400 (2002) 62000 35000 35600 40900 42300 53800 70100 74500 85400 134000
2020-08-06 23:00 16.15 78400 205000 (1993) 30400 (2002) 62700 35100 35500 41000 43000 53000 72000 76200 83300 130000
2020-08-06 22:00 16.15 78400 205000 (1993) 30400 (2002) 62700 35100 35500 41000 43000 53000 72000 76200 83300 130000
2020-08-06 21:00 16.18 78600 205000 (1993) 30400 (2002) 62700 35100 35500 41000 43000 53000 72000 76200 83300 130000
2020-08-06 20:00 16.21 78800 205000 (1993) 30400 (2002) 62700 35100 35500 41000 43000 53000 72000 76200 83300 130000
2020-08-06 19:00 16.16 78500 205000 (1993) 30400 (2002) 62700 35100 35500 41000 43000 53000 72000 76200 83300 130000
2020-08-06 18:00 16.11 78100 205000 (1993) 30400 (2002) 62700 35100 35500 41000 43000 53000 72000 76200 83300 130000
2020-08-06 17:00 16.07 77800 205000 (1993) 30400 (2002) 62700 35100 35500 41000 43000 53000 72000 76200 83300 130000
2020-08-06 16:00 16.14 76100 205000 (1993) 30400 (2002) 62700 35100 35500 41000 43000 53000 72000 76200 83300 130000
2020-08-06 15:00 16.18 76400 205000 (1993) 30400 (2002) 62700 35100 35500 41000 43000 53000 72000 76200 83300 130000
2020-08-06 14:00 16.17 76400 205000 (1993) 30400 (2002) 62700 35100 35500 41000 43000 53000 72000 76200 83300 130000
2020-08-06 13:00 16.16 76300 205000 (1993) 30400 (2002) 62700 35100 35500 41000 43000 53000 72000 76200 83300 130000
2020-08-06 12:00 16.19 76500 205000 (1993) 30400 (2002) 62700 35100 35500 41000 43000 53000 72000 76200 83300 130000
2020-08-06 11:00 16.18 76400 205000 (1993) 30400 (2002) 62700 35100 35500 41000 43000 53000 72000 76200 83300 130000
2020-08-06 10:00 16.10 75900 205000 (1993) 30400 (2002) 62700 35100 35500 41000 43000 53000 72000 76200 83300 130000
2020-08-06 09:00 16.08 75700 205000 (1993) 30400 (2002) 62700 35100 35500 41000 43000 53000 72000 76200 83300 130000
2020-08-06 08:00 16.12 76000 205000 (1993) 30400 (2002) 62700 35100 35500 41000 43000 53000 72000 76200 83300 130000
2020-08-06 07:00 16.04 75400 205000 (1993) 30400 (2002) 62700 35100 35500 41000 43000 53000 72000 76200 83300 130000
2020-08-06 06:00 16.05 75500 205000 (1993) 30400 (2002) 62700 35100 35500 41000 43000 53000 72000 76200 83300 130000
2020-08-06 05:00 15.99 75100 205000 (1993) 30400 (2002) 62700 35100 35500 41000 43000 53000 72000 76200 83300 130000
2020-08-06 04:00 15.98 75000 205000 (1993) 30400 (2002) 62700 35100 35500 41000 43000 53000 72000 76200 83300 130000
2020-08-06 03:00 15.95 74800 205000 (1993) 30400 (2002) 62700 35100 35500 41000 43000 53000 72000 76200 83300 130000
2020-08-06 02:00 15.96 74900 205000 (1993) 30400 (2002) 62700 35100 35500 41000 43000 53000 72000 76200 83300 130000
2020-08-06 01:00 15.90 74400 205000 (1993) 30400 (2002) 62700 35100 35500 41000 43000 53000 72000 76200 83300 130000
2020-08-06 00:00 15.85 74100 205000 (1993) 30400 (2002) 62700 35100 35500 41000 43000 53000 72000 76200 83300 130000
2020-08-05 23:00 15.85 74100 220000 (1993) 30600 (2002) 63200 34900 36200 40600 43100 53000 75400 78600 82700 129000
2020-08-05 22:00 15.85 74100 220000 (1993) 30600 (2002) 63200 34900 36200 40600 43100 53000 75400 78600 82700 129000
2020-08-05 21:00 15.82 73900 220000 (1993) 30600 (2002) 63200 34900 36200 40600 43100 53000 75400 78600 82700 129000
2020-08-05 20:00 15.77 73500 220000 (1993) 30600 (2002) 63200 34900 36200 40600 43100 53000 75400 78600 82700 129000
2020-08-05 19:00 15.75 73400 220000 (1993) 30600 (2002) 63200 34900 36200 40600 43100 53000 75400 78600 82700 129000
2020-08-05 18:00 15.70 73000 220000 (1993) 30600 (2002) 63200 34900 36200 40600 43100 53000 75400 78600 82700 129000
2020-08-05 17:00 15.72 73200 220000 (1993) 30600 (2002) 63200 34900 36200 40600 43100 53000 75400 78600 82700 129000
2020-08-05 16:00 15.74 73300 220000 (1993) 30600 (2002) 63200 34900 36200 40600 43100 53000 75400 78600 82700 129000
2020-08-05 15:00 15.75 73400 220000 (1993) 30600 (2002) 63200 34900 36200 40600 43100 53000 75400 78600 82700 129000
2020-08-05 14:00 15.77 73500 220000 (1993) 30600 (2002) 63200 34900 36200 40600 43100 53000 75400 78600 82700 129000
2020-08-05 13:00 15.78 73600 220000 (1993) 30600 (2002) 63200 34900 36200 40600 43100 53000 75400 78600 82700 129000
2020-08-05 12:00 15.74 73300 220000 (1993) 30600 (2002) 63200 34900 36200 40600 43100 53000 75400 78600 82700 129000
2020-08-05 11:00 15.78 73600 220000 (1993) 30600 (2002) 63200 34900 36200 40600 43100 53000 75400 78600 82700 129000
2020-08-05 10:00 15.79 73700 220000 (1993) 30600 (2002) 63200 34900 36200 40600 43100 53000 75400 78600 82700 129000
2020-08-05 09:00 15.76 73500 220000 (1993) 30600 (2002) 63200 34900 36200 40600 43100 53000 75400 78600 82700 129000
2020-08-05 08:00 15.81 73800 220000 (1993) 30600 (2002) 63200 34900 36200 40600 43100 53000 75400 78600 82700 129000
2020-08-05 07:00 15.83 73900 220000 (1993) 30600 (2002) 63200 34900 36200 40600 43100 53000 75400 78600 82700 129000
2020-08-05 06:00 15.86 74200 220000 (1993) 30600 (2002) 63200 34900 36200 40600 43100 53000 75400 78600 82700 129000
2020-08-05 05:00 15.87 74200 220000 (1993) 30600 (2002) 63200 34900 36200 40600 43100 53000 75400 78600 82700 129000
2020-08-05 04:00 15.88 74300 220000 (1993) 30600 (2002) 63200 34900 36200 40600 43100 53000 75400 78600 82700 129000
2020-08-05 03:00 15.91 74500 220000 (1993) 30600 (2002) 63200 34900 36200 40600 43100 53000 75400 78600 82700 129000
2020-08-05 02:00 15.92 74600 220000 (1993) 30600 (2002) 63200 34900 36200 40600 43100 53000 75400 78600 82700 129000
2020-08-05 01:00 15.93 74600 220000 (1993) 30600 (2002) 63200 34900 36200 40600 43100 53000 75400 78600 82700 129000
2020-08-05 00:00 15.95 74800 220000 (1993) 30600 (2002) 63200 34900 36200 40600 43100 53000 75400 78600 82700 129000
2020-08-04 23:00 15.98 75000 242000 (1993) 30900 (2002) 64600 34600 37000 40700 43600 51600 76300 81000 95900 134000
2020-08-04 22:00 16.00 75100 242000 (1993) 30900 (2002) 64600 34600 37000 40700 43600 51600 76300 81000 95900 134000
2020-08-04 21:00 16.04 75400 242000 (1993) 30900 (2002) 64600 34600 37000 40700 43600 51600 76300 81000 95900 134000
2020-08-04 20:00 16.05 75500 242000 (1993) 30900 (2002) 64600 34600 37000 40700 43600 51600 76300 81000 95900 134000
2020-08-04 19:00 16.03 75400 242000 (1993) 30900 (2002) 64600 34600 37000 40700 43600 51600 76300 81000 95900 134000
2020-08-04 18:00 16.15 76200 242000 (1993) 30900 (2002) 64600 34600 37000 40700 43600 51600 76300 81000 95900 134000
2020-08-04 17:00 16.18 76400 242000 (1993) 30900 (2002) 64600 34600 37000 40700 43600 51600 76300 81000 95900 134000
2020-08-04 16:00 16.18 76400 242000 (1993) 30900 (2002) 64600 34600 37000 40700 43600 51600 76300 81000 95900 134000
2020-08-04 15:00 16.27 77100 242000 (1993) 30900 (2002) 64600 34600 37000 40700 43600 51600 76300 81000 95900 134000
2020-08-04 14:00 16.31 77400 242000 (1993) 30900 (2002) 64600 34600 37000 40700 43600 51600 76300 81000 95900 134000
2020-08-04 13:00 16.23 76800 242000 (1993) 30900 (2002) 64600 34600 37000 40700 43600 51600 76300 81000 95900 134000
2020-08-04 12:00 16.34 77600 242000 (1993) 30900 (2002) 64600 34600 37000 40700 43600 51600 76300 81000 95900 134000
2020-08-04 11:00 16.38 77900 242000 (1993) 30900 (2002) 64600 34600 37000 40700 43600 51600 76300 81000 95900 134000
2020-08-04 10:00 16.45 78400 242000 (1993) 30900 (2002) 64600 34600 37000 40700 43600 51600 76300 81000 95900 134000
2020-08-04 09:00 16.48 78600 242000 (1993) 30900 (2002) 64600 34600 37000 40700 43600 51600 76300 81000 95900 134000
2020-08-04 08:00 16.52 78900 242000 (1993) 30900 (2002) 64600 34600 37000 40700 43600 51600 76300 81000 95900 134000
2020-08-04 07:00 16.57 79300 242000 (1993) 30900 (2002) 64600 34600 37000 40700 43600 51600 76300 81000 95900 134000
2020-08-04 06:00 16.60 79500 242000 (1993) 30900 (2002) 64600 34600 37000 40700 43600 51600 76300 81000 95900 134000
2020-08-04 05:00 16.66 79900 242000 (1993) 30900 (2002) 64600 34600 37000 40700 43600 51600 76300 81000 95900 134000
2020-08-04 04:00 16.71 80300 242000 (1993) 30900 (2002) 64600 34600 37000 40700 43600 51600 76300 81000 95900 134000
2020-08-04 03:00 16.76 80700 242000 (1993) 30900 (2002) 64600 34600 37000 40700 43600 51600 76300 81000 95900 134000
2020-08-04 02:00 16.81 81000 242000 (1993) 30900 (2002) 64600 34600 37000 40700 43600 51600 76300 81000 95900 134000
2020-08-04 01:00 16.87 81500 242000 (1993) 30900 (2002) 64600 34600 37000 40700 43600 51600 76300 81000 95900 134000
2020-08-04 00:00 16.92 81900 242000 (1993) 30900 (2002) 64600 34600 37000 40700 43600 51600 76300 81000 95900 134000
2020-08-03 23:00 17.00 82500 267000 (1993) 31400 (2002) 65500 34400 36900 41800 42700 52300 75300 80200 99800 145000
2020-08-03 22:00 17.05 82800 267000 (1993) 31400 (2002) 65500 34400 36900 41800 42700 52300 75300 80200 99800 145000
2020-08-03 21:00 17.13 83500 267000 (1993) 31400 (2002) 65500 34400 36900 41800 42700 52300 75300 80200 99800 145000
2020-08-03 20:00 17.18 83800 267000 (1993) 31400 (2002) 65500 34400 36900 41800 42700 52300 75300 80200 99800 145000
2020-08-03 19:00 17.26 84400 267000 (1993) 31400 (2002) 65500 34400 36900 41800 42700 52300 75300 80200 99800 145000
2020-08-03 18:00 17.33 85000 267000 (1993) 31400 (2002) 65500 34400 36900 41800 42700 52300 75300 80200 99800 145000
2020-08-03 17:00 17.40 85500 267000 (1993) 31400 (2002) 65500 34400 36900 41800 42700 52300 75300 80200 99800 145000
2020-08-03 16:00 17.45 85900 267000 (1993) 31400 (2002) 65500 34400 36900 41800 42700 52300 75300 80200 99800 145000
2020-08-03 15:00 17.49 86200 267000 (1993) 31400 (2002) 65500 34400 36900 41800 42700 52300 75300 80200 99800 145000
2020-08-03 14:00 17.62 87200 267000 (1993) 31400 (2002) 65500 34400 36900 41800 42700 52300 75300 80200 99800 145000
2020-08-03 13:00 17.61 87200 267000 (1993) 31400 (2002) 65500 34400 36900 41800 42700 52300 75300 80200 99800 145000
2020-08-03 12:00 17.78 88500 267000 (1993) 31400 (2002) 65500 34400 36900 41800 42700 52300 75300 80200 99800 145000
2020-08-03 11:00 17.86 89100 267000 (1993) 31400 (2002) 65500 34400 36900 41800 42700 52300 75300 80200 99800 145000
2020-08-03 10:00 17.95 89900 267000 (1993) 31400 (2002) 65500 34400 36900 41800 42700 52300 75300 80200 99800 145000
2020-08-03 09:00 18.05 90700 267000 (1993) 31400 (2002) 65500 34400 36900 41800 42700 52300 75300 80200 99800 145000
2020-08-03 08:00 18.12 91200 267000 (1993) 31400 (2002) 65500 34400 36900 41800 42700 52300 75300 80200 99800 145000
2020-08-03 07:00 18.22 92100 267000 (1993) 31400 (2002) 65500 34400 36900 41800 42700 52300 75300 80200 99800 145000
2020-08-03 06:00 18.29 92600 267000 (1993) 31400 (2002) 65500 34400 36900 41800 42700 52300 75300 80200 99800 145000
2020-08-03 05:00 18.38 93400 267000 (1993) 31400 (2002) 65500 34400 36900 41800 42700 52300 75300 80200 99800 145000
2020-08-03 04:00 18.47 94100 267000 (1993) 31400 (2002) 65500 34400 36900 41800 42700 52300 75300 80200 99800 145000
2020-08-03 03:00 18.56 94900 267000 (1993) 31400 (2002) 65500 34400 36900 41800 42700 52300 75300 80200 99800 145000
2020-08-03 02:00 18.64 95500 267000 (1993) 31400 (2002) 65500 34400 36900 41800 42700 52300 75300 80200 99800 145000
2020-08-03 01:00 18.72 96200 267000 (1993) 31400 (2002) 65500 34400 36900 41800 42700 52300 75300 80200 99800 145000
2020-08-03 00:00 18.80 96900 267000 (1993) 31400 (2002) 65500 34400 36900 41800 42700 52300 75300 80200 99800 145000
2020-08-02 23:00 18.89 97600 299000 (1993) 31900 (2002) 67200 34000 36500 40500 41900 53400 72600 80700 116000 163000
2020-08-02 22:00 18.97 98300 299000 (1993) 31900 (2002) 67200 34000 36500 40500 41900 53400 72600 80700 116000 163000
2020-08-02 21:00 19.06 99100 299000 (1993) 31900 (2002) 67200 34000 36500 40500 41900 53400 72600 80700 116000 163000
2020-08-02 20:00 19.15 99900 299000 (1993) 31900 (2002) 67200 34000 36500 40500 41900 53400 72600 80700 116000 163000
2020-08-02 19:00 19.24 101000 299000 (1993) 31900 (2002) 67200 34000 36500 40500 41900 53400 72600 80700 116000 163000
2020-08-02 18:00 19.32 101000 299000 (1993) 31900 (2002) 67200 34000 36500 40500 41900 53400 72600 80700 116000 163000
2020-08-02 17:00 19.35 102000 299000 (1993) 31900 (2002) 67200 34000 36500 40500 41900 53400 72600 80700 116000 163000
2020-08-02 16:00 19.52 103000 299000 (1993) 31900 (2002) 67200 34000 36500 40500 41900 53400 72600 80700 116000 163000
2020-08-02 15:00 19.62 104000 299000 (1993) 31900 (2002) 67200 34000 36500 40500 41900 53400 72600 80700 116000 163000
2020-08-02 14:00 19.73 105000 299000 (1993) 31900 (2002) 67200 34000 36500 40500 41900 53400 72600 80700 116000 163000
2020-08-02 13:00 19.83 106000 299000 (1993) 31900 (2002) 67200 34000 36500 40500 41900 53400 72600 80700 116000 163000
2020-08-02 12:00 19.94 107000